[[{"header":{"parameterUnit":"m.s-1","parameterCategory":1,"la1":30.6,"la2":28.766,"lo1":-90.7593,"lo2":-88.6598,"dy":0.0162,"dx":0.0183,"nx":116,"ny":114,"refTime":"2023-06-08T12:00:00:Z","depth":0,"parameterNumber":2,"parameterNumberName":"U-component_of_WINDS"},"data":[0.0,0.0,0.0,0.0,0.0,0.0,0.0,0.0,0.0,0.0,0.0,0.0,0.0,0.0,0.0,0.0,0.0,0.0,0.0,0.0,0.0,0.0,0.0,0.0,0.0,0.0,0.0,0.0,0.0,0.0,0.0,0.0,0.0,0.0,0.0,0.0,0.0,0.0,0.0,0.0,0.0,0.0,0.0,0.0,0.0,0.0,0.0,0.0,0.0,0.0,0.0,0.0,0.0,0.0,0.0,0.0,0.0,0.0,0.0,0.0,0.0,0.0,0.0,0.0,0.0,0.0,0.0,0.0,0.0,0.0,0.0,0.0,0.0,0.0,0.0,0.0,0.0,0.0,0.0,0.0,0.0,0.0,0.0,0.0,0.0,0.0,0.0,0.0,0.0,0.0,0.0,0.0,0.0,0.0,0.0,0.0,0.0,0.0,0.0,0.0,0.0,0.0,0.0,0.0,0.0,0.0,0.0,0.0,0.0,0.0,0.0,0.0,0.0,0.0,0.0,0.0,0.0,0.0,0.0,0.0,0.0,0.0,0.0,0.0,0.0,0.0,0.0,0.0,0.0,0.0,0.0,0.0,0.0,0.0,0.0,0.0,0.0,0.0,0.0,0.0,0.0,0.0,0.0,0.0,0.0,0.0,0.0,0.0,0.0,0.0,0.0,0.0,0.0,0.0,0.0,0.0,0.0,0.0,0.0,0.0,0.0,0.0,0.0,0.0,0.0,0.0,0.0,0.0,0.0,0.0,0.0,0.0,0.0,0.0,0.0,0.0,0.0,0.0,0.0,0.0,0.0,0.0,0.0,0.0,0.0,0.0,0.0,0.0,0.0,0.0,0.0,0.0,0.0,0.0,0.0,0.0,0.0,0.0,0.0,0.0,0.0,0.0,0.0,0.0,0.0,0.0,0.0,0.0,0.0,0.0,0.0,0.0,0.0,0.0,0.0,0.0,0.0,0.0,0.0,0.0,0.0,0.0,0.0,0.0,0.0,0.0,0.0,0.0,0.0,0.0,0.0,0.0,0.0,0.0,0.0,0.0,0.0,0.0,0.0,0.0,0.0,0.0,0.0,0.0,0.0,0.0,0.0,0.0,0.0,0.0,0.0,0.0,0.0,0.0,0.0,0.0,0.0,0.0,0.0,0.0,0.0,0.0,0.0,0.0,0.0,0.0,0.0,0.0,0.0,0.0,0.0,0.0,0.0,0.0,0.0,0.0,0.0,0.0,0.0,0.0,0.0,0.0,0.0,0.0,0.0,0.0,0.0,0.0,0.0,0.0,0.0,0.0,0.0,0.0,0.0,0.0,0.0,0.0,0.0,0.0,0.0,0.0,0.0,0.0,0.0,0.0,0.0,0.0,0.0,0.0,0.0,0.0,0.0,0.0,0.0,0.0,0.0,0.0,0.0,0.0,0.0,0.0,0.0,0.0,0.0,0.0,0.0,0.0,0.0,0.0,0.0,0.0,0.0,0.0,0.0,0.0,0.0,0.0,0.0,0.0,0.0,0.0,0.0,0.0,0.0,0.0,0.0,0.0,0.0,0.0,0.0,0.0,0.0,0.0,0.0,0.0,0.0,0.0,0.0,0.0,0.0,0.0,0.0,0.0,0.0,0.0,0.0,0.0,0.0,0.0,0.0,0.0,0.0,0.0,0.0,0.0,0.0,0.0,0.0,0.0,0.0,0.0,0.0,0.0,0.0,0.0,0.0,0.0,0.0,0.0,0.0,0.0,0.0,0.0,0.0,0.0,0.0,0.0,0.0,0.0,0.0,0.0,0.0,0.0,0.0,0.0,0.0,0.0,0.0,0.0,0.0,0.0,0.0,0.0,0.0,0.0,0.0,0.0,0.0,0.0,0.0,0.0,0.0,0.0,0.0,0.0,0.0,0.0,0.0,0.0,0.0,0.0,0.0,0.0,0.0,0.0,0.0,0.0,0.0,0.0,0.0,0.0,0.0,0.0,0.0,0.0,0.0,0.0,0.0,0.0,0.0,0.0,0.0,0.0,0.0,0.0,0.0,0.0,0.0,0.0,0.0,0.0,0.0,0.0,0.0,0.0,0.0,0.0,0.0,0.0,0.0,0.0,0.0,0.0,0.0,0.0,0.0,0.0,0.0,0.0,0.0,0.0,0.0,0.0,0.0,0.0,0.0,0.0,0.0,0.0,0.0,0.0,0.0,0.0,0.0,0.0,0.0,0.0,0.0,0.0,0.0,0.0,0.0,0.0,0.0,0.0,0.0,0.0,0.0,0.0,0.0,0.0,0.0,0.0,0.0,0.0,0.0,0.0,0.0,0.0,0.0,0.0,0.0,0.0,0.0,0.0,0.0,0.0,0.0,0.0,0.0,0.0,0.0,0.0,0.0,0.0,0.0,0.0,0.0,0.0,0.0,0.0,0.0,0.0,0.0,0.0,0.0,0.0,0.0,0.0,0.0,0.0,0.0,0.0,0.0,0.0,0.0,0.0,0.0,0.0,0.0,0.0,0.0,0.0,0.0,0.0,0.0,0.0,0.0,0.0,0.0,0.0,0.0,0.0,0.0,0.0,0.0,0.0,0.0,0.0,0.0,0.0,0.0,0.0,0.0,0.0,0.0,0.0,0.0,0.0,0.0,0.0,0.0,0.0,0.0,0.0,0.0,0.0,0.0,0.0,0.0,0.0,0.0,0.0,0.0,0.0,0.0,0.0,0.0,0.0,0.0,0.0,0.0,0.0,0.0,0.0,0.0,0.0,0.0,0.0,0.0,0.0,0.0,0.0,0.0,0.0,0.0,0.0,0.0,0.0,0.0,0.0,0.0,0.0,0.0,0.0,0.0,0.0,0.0,0.0,0.0,0.0,0.0,0.0,0.0,0.0,0.0,0.0,0.0,0.0,0.0,0.0,0.0,0.0,0.0,0.0,0.0,0.0,0.0,0.0,0.0,0.0,0.0,0.0,0.0,0.0,0.0,0.0,0.0,0.0,0.0,0.0,0.0,0.0,0.0,0.0,0.0,0.0,0.0,0.0,0.0,0.0,0.0,0.0,0.0,0.0,0.0,0.0,0.0,0.0,0.0,0.0,0.0,0.0,0.0,0.0,0.0,0.0,0.0,0.0,0.0,0.0,0.0,0.0,0.0,0.0,0.0,0.0,0.0,0.0,0.0,0.0,0.0,0.0,0.0,0.0,0.0,0.0,0.0,0.0,0.0,0.0,0.0,0.0,0.0,0.0,0.0,0.0,0.0,0.0,0.0,0.0,0.0,0.0,0.0,0.0,0.0,0.0,0.0,0.0,0.0,0.0,0.0,0.0,0.0,0.0,0.0,0.0,0.0,0.0,0.0,0.0,0.0,0.0,0.0,0.0,0.0,0.0,0.0,0.0,0.0,0.0,0.0,0.0,0.0,0.0,0.0,0.0,0.0,0.0,0.0,0.0,0.0,0.0,0.0,0.0,0.0,0.0,0.0,0.0,0.0,0.0,0.0,0.0,0.0,0.0,0.0,0.0,0.0,0.0,0.0,0.0,0.0,0.0,0.0,0.0,0.0,0.0,0.0,0.0,0.0,0.0,0.0,0.0,0.0,0.0,0.0,0.0,0.0,0.0,0.0,0.0,0.0,0.0,0.0,0.0,0.0,0.0,0.0,0.0,0.0,0.0,0.0,0.0,0.0,0.0,0.0,0.0,0.0,0.0,0.0,0.0,0.0,0.0,0.0,0.0,0.0,0.0,0.0,0.0,0.0,0.0,0.0,0.0,0.0,0.0,0.0,0.0,0.0,0.0,0.0,0.0,0.0,0.0,0.0,0.0,0.0,0.0,0.0,0.0,0.0,0.0,0.0,0.0,0.0,0.0,0.0,0.0,0.0,0.0,0.0,0.0,0.0,0.0,0.0,0.0,0.0,0.0,0.0,0.0,0.0,0.0,0.0,0.0,0.0,0.0,0.0,0.0,0.0,0.0,0.0,0.0,0.0,0.0,0.0,0.0,0.0,0.0,0.0,0.0,0.0,0.0,0.0,0.0,0.0,0.0,0.0,0.0,0.0,0.0,0.0,0.0,0.0,0.0,0.0,0.0,0.0,0.0,0.0,0.0,0.0,0.0,0.0,0.0,0.0,0.0,0.0,0.0,0.0,0.0,0.0,0.0,0.0,0.0,0.0,0.0,0.0,0.0,0.0,0.0,0.0,0.0,0.0,0.0,0.0,0.0,0.0,0.0,0.0,0.0,0.0,0.0,0.0,0.0,0.0,0.0,0.0,0.0,0.0,0.0,0.0,0.0,0.0,0.0,0.0,0.0,0.0,0.0,0.0,0.0,0.0,0.0,0.0,0.0,0.0,0.0,0.0,0.0,0.0,0.0,0.0,0.0,0.0,0.0,0.0,0.0,0.0,0.0,0.0,0.0,0.0,0.0,0.0,0.0,0.0,0.0,0.0,0.0,0.0,0.0,0.0,0.0,0.0,0.0,0.0,0.0,0.0,0.0,0.0,0.0,0.0,0.0,0.0,0.0,0.0,0.0,0.0,0.0,0.0,0.0,0.0,0.0,0.0,0.0,0.0,0.0,0.0,0.0,0.0,0.0,0.0,0.0,0.0,0.0,0.0,0.0,0.0,0.0,0.0,0.0,0.0,0.0,0.0,0.0,0.0,0.0,0.0,0.0,0.0,0.0,0.0,0.0,0.0,0.0,0.0,0.0,0.0,0.0,0.0,0.0,0.0,0.0,0.0,0.0,0.0,0.0,0.0,0.0,0.0,0.0,0.0,0.0,0.0,0.0,0.0,0.0,0.0,0.0,0.0,0.0,0.0,0.0,0.0,0.0,0.0,0.0,0.0,0.0,0.0,0.0,0.0,0.0,0.0,0.0,0.0,0.0,0.0,0.0,0.0,0.0,0.0,0.0,0.0,0.0,0.0,0.0,0.0,0.0,0.0,0.0,0.0,0.0,0.0,0.0,0.0,0.0,0.0,0.0,0.0,0.0,0.0,0.0,0.0,0.0,0.0,0.0,0.0,0.0,0.0,0.0,0.0,0.0,0.0,0.0,0.0,0.0,0.0,0.0,0.0,0.0,0.0,0.0,0.0,0.0,0.0,0.0,0.0,0.0,0.0,0.0,0.0,0.0,0.0,0.0,0.0,0.0,0.0,0.0,0.0,0.0,0.0,0.0,0.0,0.0,0.0,0.0,0.0,0.0,0.0,0.0,0.0,0.0,0.0,0.0,0.0,0.0,0.0,0.0,0.0,0.0,0.0,0.0,0.0,0.0,0.0,0.0,0.0,0.0,0.0,0.0,0.0,0.0,0.0,0.0,0.0,0.0,0.0,0.0,0.0,0.0,0.0,0.0,0.0,0.0,0.0,0.0,0.0,0.0,0.0,0.0,0.0,0.0,0.0,0.0,0.0,0.0,0.0,0.0,0.0,0.0,0.0,0.0,0.0,0.0,0.0,0.0,0.0,0.0,0.0,0.0,0.0,0.0,0.0,0.0,0.0,0.0,0.0,0.0,0.0,0.0,0.0,0.0,0.0,0.0,0.0,0.0,0.0,0.0,0.0,0.0,0.0,0.0,0.0,0.0,0.0,0.0,0.0,0.0,0.0,0.0,0.0,0.0,0.0,0.0,0.0,0.0,0.0,0.0,0.0,0.0,0.0,0.0,0.0,0.0,0.0,0.0,0.0,0.0,0.0,0.0,0.0,0.0,0.0,0.0,0.0,0.0,0.0,0.0,0.0,0.0,0.0,0.0,0.0,0.0,0.0,0.0,0.0,0.0,0.0,0.0,0.0,0.0,0.0,0.0,0.0,0.0,0.0,0.0,0.0,0.0,0.0,0.0,0.0,0.0,0.0,0.0,0.0,0.0,0.0,0.0,0.0,0.0,0.0,0.0,0.0,0.0,0.0,0.0,0.0,0.0,0.0,0.0,0.0,0.0,0.0,0.0,0.0,0.0,0.0,0.0,0.0,0.0,0.0,0.0,0.0,0.0,0.0,0.0,0.0,0.0,0.0,0.0,0.0,0.0,0.0,0.0,0.0,0.0,0.0,0.0,0.0,0.0,0.0,0.0,0.0,0.0,0.0,0.0,0.0,0.0,0.0,0.0,0.0,0.0,0.0,0.0,0.0,0.0,0.0,0.0,-3.017,-3.0428,0.0,0.0,0.0,0.0,0.0,0.0,0.0,0.0,0.0,0.0,0.0,0.0,0.0,0.0,0.0,0.0,0.0,0.0,0.0,0.0,0.0,0.0,0.0,0.0,0.0,0.0,0.0,0.0,0.0,0.0,0.0,0.0,0.0,0.0,0.0,0.0,0.0,0.0,-2.15,-2.1649,-2.1298,-2.1082,-2.0489,-1.9584,0.0,0.0,0.0,0.0,0.0,0.0,0.0,0.0,0.0,0.0,0.0,0.0,0.0,0.0,0.0,0.0,0.0,0.0,0.0,0.0,0.0,0.0,0.0,0.0,0.0,0.0,0.0,0.0,0.0,0.0,0.0,0.0,0.0,0.0,0.0,0.0,0.0,0.0,0.0,0.0,0.0,0.0,0.0,0.0,0.0,0.0,0.0,0.0,0.0,0.0,0.0,0.0,0.0,0.0,0.0,0.0,0.0,0.0,0.0,0.0,0.0,0.0,0.0,0.0,0.0,0.0,0.0,0.0,0.0,0.0,-3.0573,-3.0517,0.0,0.0,0.0,0.0,0.0,0.0,0.0,0.0,0.0,0.0,0.0,0.0,0.0,0.0,0.0,0.0,0.0,0.0,0.0,0.0,0.0,0.0,0.0,0.0,-2.0721,-2.1017,-2.1714,-2.2064,0.0,0.0,0.0,0.0,0.0,0.0,0.0,0.0,0.0,0.0,-2.1794,-2.236,-2.2362,-2.197,-2.1153,-1.9987,-1.9889,0.0,0.0,0.0,0.0,0.0,0.0,0.0,0.0,0.0,0.0,0.0,0.0,0.0,0.0,0.0,0.0,0.0,0.0,0.0,0.0,0.0,0.0,0.0,0.0,0.0,0.0,0.0,0.0,0.0,0.0,0.0,0.0,0.0,0.0,0.0,0.0,0.0,0.0,0.0,0.0,0.0,0.0,0.0,0.0,0.0,0.0,0.0,0.0,0.0,0.0,0.0,0.0,0.0,0.0,0.0,0.0,0.0,0.0,0.0,0.0,0.0,0.0,0.0,-3.102,-3.1373,-3.206,-3.1457,-3.1555,-3.2197,-3.1215,-3.0834,-3.091,-3.0582,0.0,0.0,0.0,0.0,0.0,0.0,0.0,0.0,0.0,0.0,0.0,0.0,0.0,0.0,0.0,0.0,0.0,0.0,0.0,0.0,0.0,-1.9758,-2.0848,-2.2308,-2.3101,-2.3085,0.0,0.0,0.0,0.0,0.0,0.0,0.0,-2.1242,-2.1534,-2.2053,-2.2153,-2.2238,-2.2234,-2.216,-2.1801,-2.1188,-2.1502,-2.0936,-1.9762,0.0,0.0,0.0,0.0,0.0,0.0,0.0,0.0,0.0,0.0,0.0,0.0,0.0,0.0,0.0,0.0,0.0,0.0,0.0,0.0,0.0,0.0,0.0,0.0,0.0,0.0,0.0,0.0,0.0,0.0,0.0,0.0,0.0,0.0,0.0,0.0,0.0,0.0,0.0,0.0,0.0,-2.9897,-3.0113,0.0,0.0,0.0,0.0,0.0,0.0,0.0,0.0,0.0,0.0,0.0,0.0,0.0,-3.0631,-3.1282,-3.2272,-3.2837,-3.2934,-3.2999,-3.3083,-3.3181,-3.3085,-3.3105,-3.3163,-3.2283,0.0,-3.1776,-3.0986,0.0,0.0,0.0,0.0,0.0,0.0,0.0,0.0,0.0,0.0,0.0,0.0,0.0,0.0,0.0,0.0,0.0,0.0,0.0,0.0,0.0,-1.99,-2.1129,-2.2435,-2.3172,-2.323,-2.2456,-2.2144,0.0,0.0,0.0,0.0,-1.9889,-2.0446,-2.1259,-2.2368,-2.2634,-2.2964,-2.3378,-2.3296,-2.3082,-2.2763,-2.3363,-2.259,-2.0765,-2.0334,0.0,0.0,0.0,0.0,0.0,0.0,0.0,0.0,0.0,0.0,0.0,0.0,0.0,0.0,0.0,0.0,0.0,0.0,0.0,0.0,0.0,0.0,0.0,0.0,0.0,0.0,0.0,0.0,0.0,0.0,0.0,0.0,0.0,0.0,0.0,0.0,0.0,0.0,0.0,-2.9701,-3.0541,-2.9207,-2.9198,-2.8724,0.0,0.0,0.0,0.0,0.0,0.0,0.0,0.0,0.0,-3.0783,-3.1627,-3.2282,-3.2708,-3.3142,-3.3592,-3.4079,-3.3613,-3.3652,-3.4119,-3.3612,-3.3669,-3.4079,-3.3203,-3.3083,-3.3401,-3.2005,-3.1393,-3.1372,0.0,0.0,0.0,0.0,-3.1954,-3.2263,0.0,0.0,0.0,0.0,0.0,0.0,0.0,0.0,0.0,0.0,0.0,0.0,-1.8679,-1.9989,-2.1299,-2.2488,-2.3075,-2.3036,-2.2242,-2.1772,0.0,0.0,0.0,-1.939,-1.8786,-1.9885,-2.115,-2.2522,-2.31,-2.366,-2.4201,-2.4095,-2.3945,-2.3768,-2.4291,-2.351,-2.1793,-2.1392,-2.0789,-2.0003,0.0,0.0,0.0,0.0,0.0,0.0,0.0,0.0,0.0,0.0,0.0,0.0,0.0,0.0,0.0,0.0,0.0,0.0,0.0,0.0,0.0,0.0,0.0,0.0,0.0,0.0,0.0,0.0,0.0,0.0,0.0,0.0,0.0,0.0,0.0,0.0,0.0,-3.0564,-3.0983,-2.8867,-2.9718,-2.9613,0.0,0.0,0.0,0.0,0.0,0.0,-2.9961,-3.0798,-3.1582,-3.2323,-3.3203,-3.3671,-3.3732,-3.3951,-3.4385,-3.5014,-3.4372,-3.4391,-3.5011,-3.4366,-3.4424,-3.4989,-3.4118,-3.4101,-3.4568,-3.2766,-3.2151,-3.2382,-3.266,-3.2887,-3.303,-3.3019,-3.3087,-3.3307,0.0,0.0,0.0,0.0,0.0,0.0,0.0,0.0,0.0,0.0,0.0,-1.733,-1.9056,-2.003,-2.1234,-2.3011,-2.3248,-2.2599,-2.0921,-2.0613,-1.9982,-1.8888,-1.8245,-1.817,-1.8687,-2.0194,-2.1589,-2.2872,-2.353,-2.3868,-2.3917,-2.3917,-2.3792,-2.3605,-2.352,-2.3166,-2.2713,-2.3612,-2.2785,-2.077,-1.9975,0.0,0.0,0.0,0.0,0.0,0.0,0.0,0.0,0.0,0.0,0.0,0.0,0.0,0.0,0.0,0.0,0.0,0.0,0.0,0.0,0.0,0.0,0.0,0.0,0.0,0.0,0.0,0.0,0.0,0.0,0.0,0.0,0.0,0.0,0.0,0.0,0.0,0.0,-3.0678,-3.0624,0.0,0.0,0.0,0.0,-2.9177,-3.0799,-3.1813,-3.1852,-3.2751,-3.3282,-3.3331,-3.4171,-3.4635,-3.4624,-3.5451,-3.5885,-3.5924,-3.5893,-3.5896,-3.5935,-3.5896,-3.588,-3.5887,-3.5003,-3.4663,-3.4569,-3.282,-3.2576,-3.3256,-3.2455,-3.2641,-3.3375,-3.3297,-3.3796,-3.4492,0.0,0.0,0.0,0.0,0.0,0.0,0.0,0.0,-1.4872,-1.5662,-1.6592,-1.7873,-1.9674,-2.0525,-2.1503,-2.2898,-2.2986,-2.2591,-2.1658,-2.0697,-1.9846,-1.9177,-1.8273,-1.8388,-1.9641,-2.075,-2.1852,-2.2957,-2.3635,-2.3958,-2.3966,-2.38,-2.3649,-2.3526,-2.3265,-2.2997,-2.2798,-2.3141,-2.272,-2.1771,-2.1396,-2.0089,0.0,0.0,0.0,0.0,0.0,0.0,0.0,0.0,0.0,0.0,0.0,0.0,0.0,0.0,0.0,0.0,0.0,0.0,0.0,0.0,0.0,0.0,0.0,0.0,0.0,0.0,0.0,0.0,0.0,0.0,0.0,0.0,0.0,0.0,0.0,0.0,0.0,-3.2289,-3.2826,0.0,-3.1142,-3.1522,-3.1645,-3.1077,-3.2187,-3.29,-3.29,-3.3743,-3.424,-3.4236,-3.5075,-3.5541,-3.5537,-3.5839,-3.5999,-3.5999,-3.6007,-3.5986,-3.5937,-3.5981,-3.6004,-3.5985,-3.5672,-3.5545,-3.5449,-3.4258,-3.3968,-3.4257,-3.4452,-3.4745,-3.4992,-3.4924,-3.5115,-3.5368,0.0,0.0,0.0,0.0,0.0,0.0,0.0,0.0,-1.48,-1.6127,-1.7064,-1.832,-2.0263,-2.1135,-2.1892,-2.2723,-2.2778,-2.2281,-2.113,-2.0069,-1.909,-1.8198,-1.8001,-1.8793,-2.0735,-2.134,-2.2171,-2.327,-2.366,-2.3891,-2.3894,-2.3627,-2.3458,-2.3389,-2.3052,-2.2855,-2.2764,-2.2646,-2.251,-2.2365,-2.2443,-2.0949,-1.8674,0.0,0.0,0.0,0.0,0.0,0.0,0.0,0.0,0.0,0.0,0.0,0.0,0.0,0.0,0.0,0.0,0.0,0.0,0.0,0.0,0.0,0.0,0.0,0.0,0.0,0.0,0.0,0.0,0.0,0.0,0.0,0.0,0.0,0.0,0.0,-3.3609,-3.3202,-3.404,-3.4043,-3.2548,-3.3495,-3.3847,-3.2988,-3.4304,-3.5028,-3.4731,-3.5254,-3.558,-3.5531,-3.5823,-3.5977,-3.5973,-3.5962,-3.5966,-3.5966,-3.5978,-3.5939,-3.5908,-3.5963,-3.6007,-3.5988,-3.5697,-3.5566,-3.5487,-3.4604,-3.4228,-3.4313,-3.5142,-3.5645,-3.5898,-3.5811,-3.5795,-3.5795,0.0,0.0,0.0,0.0,0.0,0.0,0.0,-1.3543,-1.4341,-1.5886,-1.7092,-1.8624,-2.0734,-2.1761,-2.2394,-2.2565,-2.2659,-2.1664,-1.9214,-1.8693,-1.767,-1.5821,-1.7285,-1.9304,-2.1838,-2.1937,-2.2565,-2.3795,-2.3667,-2.3641,-2.3689,-2.343,-2.3265,-2.318,-2.2855,-2.2699,-2.2672,-2.2369,-2.2327,-2.2521,-2.3013,-2.1775,-1.9536,0.0,0.0,0.0,0.0,0.0,0.0,0.0,0.0,0.0,0.0,0.0,0.0,0.0,0.0,0.0,0.0,0.0,0.0,0.0,0.0,0.0,0.0,0.0,0.0,0.0,0.0,0.0,0.0,0.0,0.0,0.0,0.0,0.0,-3.175,-3.3406,-3.4335,-3.351,-3.4232,-3.4443,-3.3572,-3.5036,-3.568,-3.4842,-3.7147,-3.8235,-3.7384,-3.7308,-3.7279,-3.7196,-3.6358,-3.5904,-3.5892,-3.5892,-3.5892,-3.5892,-3.5897,-3.5908,-3.591,-3.5977,-3.6007,-3.5952,-3.5115,-3.4746,-3.4662,-3.3721,-3.336,-3.3451,-3.4254,-3.5097,-3.5856,-3.5772,-3.5775,-3.5795,0.0,0.0,0.0,0.0,0.0,0.0,0.0,-1.3725,-1.4261,-1.5507,-1.6903,-1.8401,-2.0036,-2.1457,-2.2394,-2.2565,-2.2659,-2.1983,-2.0268,-1.911,-1.7939,-1.6698,-1.8045,-1.9777,-2.1779,-2.2774,-2.3451,-2.3807,-2.3711,-2.3663,-2.3618,-2.3348,-2.3193,-2.3119,-2.2881,-2.2659,-2.2508,-2.2937,-2.2724,-2.2128,-2.2788,-2.2264,-2.1006,0.0,0.0,0.0,0.0,0.0,0.0,0.0,0.0,0.0,0.0,0.0,0.0,0.0,0.0,0.0,0.0,0.0,0.0,0.0,0.0,0.0,0.0,0.0,0.0,0.0,0.0,0.0,0.0,0.0,0.0,0.0,-3.3321,-3.4539,-3.4506,-3.5133,-3.5751,-3.6144,-3.6428,-3.6245,-3.5368,-3.6285,-3.6833,-3.6599,-3.7783,-3.8422,-3.8184,-3.7576,-3.7214,-3.7198,-3.6358,-3.5907,-3.5904,-3.5892,-3.5921,-3.5968,-3.5962,-3.597,-3.5977,-3.5987,-3.5991,-3.5994,-3.5742,-3.5642,-3.5579,-3.4622,-3.4611,-3.5087,-3.4056,-3.4167,-3.4886,-3.4851,-3.5255,-3.5717,0.0,0.0,0.0,0.0,0.0,0.0,0.0,-1.367,-1.4173,-1.5243,-1.673,-1.8246,-1.9745,-2.1248,-2.2175,-2.2343,-2.2497,-2.1742,-1.9735,-1.8339,-1.7863,-1.8489,-1.937,-2.0688,-2.2429,-2.3258,-2.3703,-2.3772,-2.3611,-2.3522,-2.3517,-2.3241,-2.3258,-2.3509,-2.331,-2.3213,-2.3226,-2.3678,-2.3553,-2.3044,-2.324,-2.2638,-2.1627,-2.1908,-2.1446,-2.0655,-2.0553,-2.0808,-2.1118,-2.0643,0.0,0.0,0.0,0.0,0.0,0.0,0.0,0.0,0.0,0.0,0.0,0.0,0.0,0.0,0.0,0.0,0.0,0.0,0.0,0.0,0.0,0.0,0.0,0.0,-3.4784,-3.613,-3.7216,-3.7207,-3.7288,-3.7771,-3.7849,-3.7653,-3.7145,-3.7848,-3.8219,-3.7867,-3.8591,-3.9039,-3.9037,-3.79,-3.7406,-3.773,-3.6567,-3.5936,-3.5936,-3.5947,-3.5956,-3.6006,-3.6,-3.6008,-3.5992,-3.5996,-3.5996,-3.5956,-3.5225,-3.4906,-3.4805,-3.3507,-3.3476,-3.423,0.0,0.0,0.0,0.0,-3.513,-3.5243,0.0,0.0,0.0,0.0,0.0,0.0,0.0,-1.3506,-1.4143,-1.5188,-1.6599,-1.8125,-1.9765,-2.1083,-2.1882,-2.194,-2.2062,-2.1019,-1.8361,-1.6998,-1.7562,-2.0456,-2.078,-2.1665,-2.3318,-2.3441,-2.3533,-2.3656,-2.3418,-2.3313,-2.336,-2.3207,-2.3463,-2.4049,-2.395,-2.4042,-2.4272,-2.4288,-2.4365,-2.439,-2.3962,-2.304,-2.1998,-2.2588,-2.2282,-2.1575,-2.156,-2.162,-2.1695,-2.1714,0.0,0.0,0.0,0.0,0.0,0.0,0.0,0.0,0.0,0.0,0.0,0.0,0.0,0.0,0.0,0.0,0.0,0.0,0.0,0.0,0.0,0.0,0.0,0.0,-3.6055,-3.7259,-3.9603,-3.9336,-3.8842,-3.8751,-3.8749,-3.8708,-3.8611,-3.9333,-3.9471,-3.8652,-3.9443,-3.9856,-3.9677,0.0,0.0,0.0,0.0,-3.5994,-3.5994,-3.6004,-3.5994,-3.6,-3.5994,-3.5996,-3.5995,-3.5987,-3.598,-3.5901,-3.4358,-3.3682,-3.3544,-3.1838,-3.1595,-3.2425,-3.391,-3.4964,-3.5674,-3.5752,-3.5258,-3.462,0.0,0.0,0.0,0.0,0.0,0.0,0.0,-1.3581,-1.4251,-1.5948,-1.6951,-1.8193,-2.0024,-2.1022,-2.1568,-2.16,-2.0886,-1.9813,-1.8222,-1.6936,-1.7486,-2.032,-2.0685,-2.1528,-2.3047,-2.3301,-2.3407,-2.3383,-2.3277,-2.3205,-2.3174,-2.3671,-2.3852,-2.3798,-2.4301,-2.4309,-2.3967,-2.3819,-2.3615,-2.3408,-2.3699,-2.3891,-2.3981,-2.3593,-2.3648,-2.3951,-2.388,-2.4244,-2.4643,-2.3895,-2.3449,-2.3092,-2.2589,-2.2321,0.0,0.0,0.0,0.0,0.0,0.0,0.0,0.0,0.0,0.0,0.0,0.0,0.0,0.0,0.0,0.0,0.0,0.0,0.0,-3.5925,-3.778,-3.9476,-4.0677,-4.0719,-4.0351,-3.9642,-3.9573,-3.9312,-3.8669,-3.9322,-3.9464,-3.8663,-3.9998,-4.0253,-3.8905,-3.8515,-3.8104,-3.7554,-3.6538,-3.5991,-3.5991,-3.5995,-3.5996,-3.5993,-3.5944,0.0,-3.5914,-3.5927,-3.5919,-3.5909,-3.5551,-3.541,-3.5329,-3.4282,-3.3916,-3.4043,-3.4365,-3.4606,-3.4842,-3.5536,-3.5251,-3.4516,0.0,0.0,0.0,0.0,0.0,0.0,0.0,-1.3564,-1.3928,-1.4889,-1.614,-1.7453,-1.8759,-1.9556,-2.0114,-2.0415,-1.9468,-1.8858,-1.8889,-1.8377,-1.8964,-2.1002,-2.1424,-2.1983,-2.2773,-2.3008,-2.3126,-2.3205,-2.3511,-2.3653,-2.367,-2.4338,-2.4728,-2.4859,-2.5019,-2.4994,-2.4784,-2.4504,-2.4138,-2.3728,-2.3912,-2.4135,-2.4349,-2.4281,-2.4526,-2.4938,-2.4941,-2.4975,-2.4952,-2.457,-2.4079,-2.3701,-2.3959,-2.3732,-2.3254,0.0,0.0,0.0,0.0,0.0,0.0,0.0,0.0,0.0,0.0,0.0,0.0,0.0,0.0,-3.2259,0.0,0.0,-3.6178,-3.7797,-3.9043,-4.0109,-4.0981,-4.1104,-4.0936,-4.0504,-4.0458,-4.0296,-3.9899,-4.0203,-4.0287,-3.9877,-4.0215,-4.0272,-3.9862,-3.9061,-3.8397,-3.7968,-3.7109,-3.6445,-3.5996,-3.5995,-3.5989,-3.5955,-3.5921,-3.5903,-3.5899,-3.5899,-3.5892,-3.5878,-3.5395,-3.5207,-3.5155,-3.4664,-3.4414,-3.441,-3.4865,-3.5082,-3.5197,-3.5568,-3.5456,-3.5108,0.0,0.0,0.0,0.0,0.0,0.0,0.0,-1.348,-1.3654,-1.3909,-1.5267,-1.651,-1.7323,-1.7911,-1.8347,-1.8602,-1.7996,-1.8092,-1.9233,-1.9623,-2.0422,-2.1733,-2.2269,-2.2527,-2.2511,-2.281,-2.2955,-2.2977,-2.3676,-2.4004,-2.4004,-2.4807,-2.5341,-2.5641,-2.5464,-2.5384,-2.5387,-2.5047,-2.4567,-2.4015,-2.3912,-2.3849,-2.3894,-2.4343,-2.4779,-2.515,-2.508,-2.4737,-2.4349,-2.4385,-2.4072,-2.3868,-2.4944,-2.4725,-2.3998,-2.3605,-2.3619,0.0,0.0,0.0,0.0,0.0,0.0,0.0,0.0,0.0,-3.1254,-3.3004,-3.3545,-3.4224,-3.5906,-3.66,-3.7538,-3.9441,-3.9899,-4.0262,-4.0978,-4.1072,-4.1087,-4.1093,-4.1092,-4.1108,-4.1102,-4.109,-4.1015,-4.0839,-4.0327,-4.0199,-4.0571,-3.9457,-3.8656,-3.8344,-3.765,-3.685,-3.5987,-3.5963,-3.5929,-3.588,-3.5887,-3.5869,-3.5862,-3.5862,-3.585,-3.579,-3.503,-3.4691,-3.4684,-3.4568,-3.4496,-3.4524,-3.5243,-3.5596,-3.5679,-3.5637,-3.5524,-3.5433,0.0,0.0,0.0,0.0,0.0,0.0,0.0,0.0,-1.383,-1.4965,-1.5345,-1.5896,-1.6932,-1.7226,-1.6949,-1.5938,-1.6718,-1.7456,-1.7893,-1.8936,-2.0222,-2.1733,-2.2592,-2.279,-2.2265,-2.3076,-2.3206,-2.2569,-2.3361,-2.3576,-2.3253,-2.4526,-2.486,-2.4414,-2.4798,-2.4733,-2.4338,-2.3948,-2.3493,-2.3046,-2.2793,-2.2762,-2.2875,-2.3054,-2.3758,-2.4585,-2.4006,-2.3929,-2.4047,-2.3481,-2.3439,-2.3667,-2.3984,-2.4212,-2.4043,-2.249,-2.208,-2.1846,-2.0429,-2.2025,-2.5178,-2.9682,-2.9729,-3.0119,0.0,0.0,-3.3971,-3.57,-3.6733,-3.7186,-3.6728,-3.8022,-3.9259,-3.9573,-4.0275,-4.0827,-4.1,-4.1006,-4.103,-4.1093,-4.1108,-4.1092,-4.1091,-4.1098,-4.075,-3.9921,-4.0479,-4.0265,-3.8862,-3.9291,-3.8884,-3.7403,-3.7252,-3.6799,-3.5928,-3.5855,-3.5827,-3.5799,-3.5818,-3.5778,-3.5712,-3.5712,-3.5689,-3.562,-3.5463,-3.5396,-3.539,-3.5316,-3.5316,-3.5348,-3.5271,-3.5295,-3.5386,-3.5532,-3.5071,-3.4462,0.0,0.0,0.0,0.0,0.0,0.0,0.0,0.0,0.0,0.0,-1.4558,-1.5115,-1.5921,-1.605,-1.5608,-1.4396,-1.5429,-1.6491,-1.7239,-1.857,-2.013,-2.1908,-2.2063,-2.2279,-2.2653,-2.2666,-2.2678,-2.2677,-2.3447,-2.3829,-2.3884,-2.478,-2.5017,-2.4659,-2.4456,-2.4194,-2.3855,-2.3135,-2.2725,-2.2512,-2.2133,-2.2063,-2.2137,-2.1809,-2.2228,-2.2915,-2.2526,-2.2015,0.0,-2.152,-2.1399,-2.1456,-2.2881,-2.3272,-2.306,-2.208,-2.2176,-2.2734,-2.3375,-2.4592,-2.6658,-3.0655,-3.1974,-3.3114,-3.6294,-3.613,-3.5789,-3.7534,-3.8301,-3.8693,-3.8827,-3.9625,-4.0289,0.0,-4.0658,-4.0754,-4.0317,-4.0688,-4.0626,-3.965,-4.0461,-4.1109,-4.1106,-4.1091,-4.0935,-4.0541,-4.0819,-4.0484,-3.9318,-3.9574,-3.897,-3.7253,-3.7653,-3.7232,-3.5853,-3.6821,-3.6778,-3.5757,-3.6227,-3.6118,-3.5525,-3.5579,-3.5531,-3.5432,-3.5311,-3.5239,-3.5212,-3.5181,-3.5157,-3.5141,-3.5066,-3.5013,-3.503,-3.5239,-3.5032,-3.4711,0.0,0.0,0.0,0.0,0.0,0.0,0.0,0.0,0.0,0.0,-1.3795,-1.4284,-1.4728,-1.4779,-1.4419,-1.3552,-1.4641,-1.584,-1.6937,-1.8305,-1.9867,-2.1625,-2.1568,-2.1762,-2.2325,-2.2256,-2.2291,-2.2442,-2.3373,-2.3883,-2.4002,-2.4608,-2.4725,-2.4327,-2.3824,-2.3448,-2.3135,-2.2406,-2.2002,-2.1799,-2.1468,-2.1385,-2.1414,-2.0838,-2.0697,-2.0769,-2.0564,-2.0053,-1.9468,-1.9347,-1.9094,-1.9153,-2.0909,-2.1357,-2.1167,-2.0913,-2.1564,-2.2811,-2.488,-2.639,-2.8154,-3.1444,-3.3757,-3.5524,-3.6692,-3.6939,-3.7366,-3.8832,-3.9307,-3.9621,-4.0219,-4.0342,-4.0376,-4.0422,-4.0281,-3.9956,-3.9388,-3.9863,-3.9797,-3.8544,-3.9565,-4.0446,-4.0666,-4.0925,-4.1064,-4.105,-4.0974,-4.0669,-4.0081,-3.9848,-3.9143,-3.7872,-3.8179,-3.7615,-3.6082,-3.735,-3.7182,-3.561,-3.5977,-3.588,-3.5398,-3.5405,-3.5331,-3.5159,-3.5081,-3.4988,-3.4851,-3.486,-3.4813,-3.4763,-3.4715,-3.4684,-3.4651,-3.4774,-3.487,-3.4924,0.0,0.0,0.0,0.0,0.0,0.0,0.0,0.0,0.0,0.0,0.0,0.0,0.0,-1.3467,-1.3438,-1.3408,-1.457,-1.5783,-1.692,-1.8134,-1.9365,-2.0597,-2.1324,-2.1371,-2.0694,-2.2057,-2.2368,-2.1536,-2.2994,-2.3456,-2.295,-2.3619,-2.3513,-2.2762,-2.2678,-2.2347,-2.1841,-2.1688,-2.1264,-2.066,-2.0635,-2.0635,-2.0594,-2.0258,-1.9385,-1.8272,-1.8018,-1.8357,-1.8679,-1.7061,-1.6806,-1.7239,-1.7702,-1.8035,-1.8252,-1.8359,-1.9378,-2.0956,-2.3167,-2.5967,-2.9015,-3.2177,-3.4369,-3.6235,-3.795,-3.8441,-3.8764,-3.9607,-3.9927,-4.0099,-4.0196,-3.9689,-3.9258,-3.9258,-3.8711,-3.8299,-3.8345,-3.8369,-3.8394,-3.8391,-3.8458,-3.8788,0.0,-4.0474,-4.0971,-4.0917,-4.0828,-4.0771,-4.0674,-3.9938,-3.9487,-3.9423,-3.8626,-3.7746,-3.6768,-3.6889,-3.6433,-3.5405,-3.4635,-3.4674,-3.5391,-3.5278,-3.506,-3.4823,-3.4879,-3.4763,-3.4518,-3.452,-3.448,-3.4401,-3.4274,-3.4221,-3.4209,-3.4161,-3.4371,-3.4684,0.0,0.0,0.0,0.0,0.0,0.0,0.0,0.0,0.0,0.0,0.0,0.0,0.0,0.0,0.0,0.0,-1.3659,-1.4362,-1.5459,-1.6623,-1.7964,-1.954,-2.0145,-2.0551,-2.0791,-2.0895,-2.1054,-2.1304,-2.1798,-2.2055,-2.2112,-2.2272,-2.2109,-2.1629,-2.1369,-2.1177,-2.0981,-2.0485,-2.0309,-2.0342,-1.9585,-1.956,-1.9826,-1.8057,-1.7405,-1.7117,0.0,-1.4643,-1.532,-1.5325,-1.5534,-1.6021,-1.7334,-1.7975,-1.8444,-1.951,-2.0164,-2.1305,-2.4809,-2.7002,-2.9243,-3.3205,-3.5188,-3.6643,-3.8327,-3.8907,-3.9146,-3.9421,-3.8495,-3.7636,-3.7671,-3.7236,-3.6872,-3.6872,-3.7544,-3.7887,-3.7371,-3.8307,-3.8432,-3.6793,-3.8641,0.0,0.0,0.0,0.0,-4.0745,-4.0275,-3.9673,-3.9069,-3.8779,-3.8102,-3.6961,-3.7145,-3.6844,-3.5958,-3.7584,-3.7387,-3.5333,-3.4885,-3.4767,-3.4934,-3.4744,-3.4662,-3.4651,-3.4502,-3.4413,-3.4367,-3.4281,-3.4191,-3.4142,-3.4049,-3.3998,-3.3998,-3.3921,-3.3998,-3.4099,0.0,0.0,0.0,0.0,0.0,0.0,0.0,0.0,0.0,0.0,0.0,0.0,0.0,0.0,0.0,0.0,0.0,-1.3667,-1.4721,-1.5375,-1.6362,-1.7813,-1.8057,-1.8324,-1.8712,-1.8961,-1.9314,-1.9762,-2.0384,-2.0732,-2.089,-2.0741,-2.0613,-2.0464,-2.0234,-2.014,-2.0194,-1.9585,-1.9303,-1.9236,-1.8029,-1.7908,-1.8265,-1.6158,-1.5674,0.0,-1.3404,-1.2676,-1.2941,-1.3654,-1.4336,-1.5114,-1.666,-1.7882,-1.8901,-1.974,-2.0899,-2.2625,-2.596,-2.8204,-3.0341,-3.3477,-3.5268,-3.6591,-3.7927,-3.8192,-3.8219,-3.8456,-3.7039,-3.5758,-3.5758,-3.5427,-3.5063,-3.478,-3.5796,-3.6538,-3.6304,-3.7178,-3.7507,-3.6556,-3.8439,-3.9255,0.0,0.0,0.0,-3.9785,-3.9629,-3.9212,-3.8608,-3.799,-3.7398,-3.6878,-3.6794,-3.6465,-3.5832,-3.7394,-3.702,-3.4655,-3.4718,-3.4533,-3.4126,-3.4195,-3.425,-3.4305,-3.4093,-3.3967,-3.3897,-3.3805,-3.3711,-3.3634,-3.3564,-3.3536,-3.3541,-3.3498,-3.3484,-3.3512,0.0,0.0,0.0,0.0,0.0,0.0,0.0,0.0,0.0,0.0,0.0,0.0,0.0,0.0,0.0,0.0,0.0,0.0,-1.4647,-1.444,-1.4691,-1.5553,-1.5322,-1.5048,-1.4771,-1.6461,-1.7249,-1.7085,-1.8666,-1.9337,-1.9141,-1.8867,-1.8856,-1.9074,-1.8928,-1.9021,-1.9238,-1.8709,-1.8056,-1.7291,-1.597,-1.5739,-1.6057,-1.4625,-1.4253,-1.4314,-1.3279,-1.2358,-1.173,-1.2213,-1.3392,-1.4808,-1.589,-1.7786,-1.9546,-1.9303,-2.1633,-2.4716,-2.6586,-2.9404,-3.2008,-3.2967,-3.4519,-3.5985,-3.6671,-3.6413,-3.6208,-3.6827,-3.5589,-3.4418,0.0,0.0,-3.3792,-3.3079,-3.3659,-3.4465,-3.5235,-3.5299,-3.5914,0.0,0.0,0.0,0.0,0.0,0.0,-3.8092,0.0,-3.9346,-3.9296,-3.7666,-3.7436,-3.8966,-3.7502,-3.6577,-3.6373,-3.6307,-3.5381,-3.3598,-3.4191,-3.3997,-3.3142,-3.3648,-3.3839,-3.3762,-3.3643,-3.3447,-3.3205,-3.3184,-3.3111,-3.2993,-3.2914,-3.29,-3.29,-3.29,-3.29,-3.2963,0.0,0.0,0.0,0.0,0.0,0.0,0.0,0.0,0.0,0.0,0.0,0.0,0.0,0.0,0.0,0.0,0.0,0.0,-1.3594,-1.3955,-1.4163,-1.4217,-1.4607,-1.4688,-1.4367,-1.4899,-1.5302,-1.55,-1.5847,-1.5879,-1.5532,-1.5395,-1.5082,-1.4627,-1.459,-1.4618,-1.4663,-1.4327,-1.4389,-1.4604,-1.3625,-1.4023,-1.5009,-1.3344,-1.3209,-1.3718,-1.2194,-1.1923,-1.2422,-1.3336,-1.544,-1.7865,-1.8996,-2.0132,-2.1395,-2.3095,-2.458,-2.6084,-2.7859,-2.9357,-3.0653,-3.1702,-3.261,-3.3499,-3.4467,-3.4964,-3.5156,-3.4993,-3.3255,-3.1875,-3.2228,0.0,0.0,-3.2311,-3.4247,0.0,-3.5818,-3.7005,0.0,-3.7665,0.0,-3.8941,-3.7264,-3.8633,0.0,0.0,-3.8134,-3.9092,-3.9091,-3.7931,-3.7477,-3.7898,-3.6777,-3.6112,-3.5962,-3.5163,-3.4749,-3.4754,-3.4284,-3.3857,-3.3482,-3.3616,-3.3606,-3.349,-3.3364,-3.3258,-3.3184,-3.3081,-3.299,-3.2914,-3.2916,-3.29,-3.29,-3.29,-3.29,-3.2916,0.0,0.0,0.0,0.0,0.0,0.0,0.0,0.0,0.0,0.0,0.0,0.0,0.0,0.0,0.0,0.0,0.0,0.0,0.0,-1.3348,-1.3366,-1.3174,-1.3199,-1.3084,-1.2796,-1.339,-1.3665,-1.3584,-1.4157,-1.4195,-1.3751,-1.3398,-1.3179,-1.3081,-1.2666,-1.2671,-1.2958,-1.252,-1.2556,0.0,0.0,-1.2287,-1.3505,-1.2191,-1.2467,-1.3431,-1.2311,0.0,0.0,0.0,0.0,-1.9714,-2.0615,-2.1752,-2.2997,-2.4166,-2.5547,-2.6909,-2.7907,-2.9004,-2.9941,-3.0238,-3.0771,-3.132,-3.1689,-3.1969,-3.1985,-3.1533,-3.0035,-2.9,-2.9539,-2.9882,-3.0284,0.0,0.0,0.0,-3.5642,-3.6889,-3.7736,0.0,-3.8634,0.0,-3.6843,-3.8013,-3.8362,0.0,-3.8156,-3.8833,-3.8706,-3.7537,-3.7165,-3.7791,-3.6256,-3.5329,-3.5109,-3.4437,-3.4246,-3.4499,-3.3908,-3.356,-3.3368,-3.322,-3.3111,-3.3032,-3.283,-3.275,-3.275,-3.2654,-3.2606,-3.2589,-3.2589,-3.2623,-3.2691,-3.2691,-3.2691,-3.2691,0.0,0.0,0.0,0.0,0.0,0.0,0.0,0.0,0.0,0.0,0.0,0.0,0.0,0.0,0.0,0.0,0.0,0.0,0.0,0.0,0.0,-1.2425,-1.1793,-1.1341,-1.1132,-1.2218,-1.2454,-1.1793,-1.3019,-1.3299,-1.2691,-1.2048,-1.2041,-1.2552,-1.1689,-1.1675,-1.2303,-1.1651,-1.1393,-1.1329,-1.032,-1.0771,-1.1995,0.0,0.0,0.0,0.0,0.0,0.0,0.0,-1.945,-2.1116,-2.1696,-2.3108,-2.4491,-2.4083,-2.5563,-2.732,-2.7296,-2.8362,-2.9328,-2.8727,-2.9027,-2.9366,-2.8853,-2.86,-2.8336,-2.7704,-2.687,-2.6471,-2.7208,-2.8391,-2.9396,-2.9768,0.0,-3.4125,-3.5129,-3.5932,-3.6703,-3.7514,-3.7901,-3.7729,-3.6862,-3.7107,-3.7484,-3.787,-3.8221,-3.8439,-3.8459,-3.7101,-3.6839,-3.7946,-3.5871,-3.4566,-3.4222,-3.3983,-3.3748,-3.3459,-3.3276,-3.3142,-3.3019,-3.2703,-3.2573,-3.2539,-3.2301,-3.2197,-3.2179,-3.2126,-3.2126,-3.2179,-3.2179,-3.2179,-3.2213,-3.2301,-3.2283,-3.2248,0.0,0.0,0.0,0.0,0.0,0.0,0.0,0.0,0.0,0.0,-1.3509,-1.3391,0.0,0.0,0.0,0.0,0.0,0.0,0.0,0.0,0.0,0.0,-1.2033,-1.1962,-1.1745,-1.2379,-1.2225,-1.1246,-1.1428,-1.1052,-1.0131,-0.989,-0.9684,-0.9459,-0.891,-0.8733,-0.8845,-0.8394,-0.8482,-0.8956,-0.9283,-1.0199,-1.1411,0.0,0.0,0.0,0.0,0.0,0.0,0.0,-2.1238,-2.3787,-2.4167,-2.5056,-2.593,-2.5861,-2.6652,-2.7416,-2.6894,-2.73,-2.7808,-2.7415,-2.7607,-2.7702,-2.6959,-2.7439,0.0,-2.6138,-2.5956,-2.6373,-2.7354,-2.7794,-2.8786,-3.1189,-3.2725,-3.3968,-3.4908,-3.5878,-3.6513,0.0,-3.7403,-3.7346,-3.582,-3.7038,0.0,0.0,-3.659,-3.7698,-3.9207,-3.8197,-3.7346,-3.6811,-3.5594,-3.4743,-3.4295,-3.3587,-3.3099,-3.2768,-3.2736,-3.2703,-3.267,-3.2454,-3.2318,-3.2266,-3.2214,-3.2161,-3.2108,-3.209,-3.2108,-3.2108,-3.2108,-3.1725,-3.1237,-3.1776,-3.1708,-3.141,0.0,0.0,0.0,0.0,0.0,0.0,0.0,-1.4331,-1.4513,-1.4513,-1.4268,-1.4186,-1.4488,-1.4268,-1.4092,0.0,0.0,0.0,0.0,0.0,0.0,0.0,0.0,0.0,-1.2682,-1.2733,-1.2486,-1.1934,0.0,-1.1314,-1.0324,-0.999,-0.9715,-0.95,-0.8709,-0.8631,-0.9061,-0.867,-0.8884,-0.9534,-0.999,-1.0833,0.0,0.0,0.0,0.0,0.0,0.0,0.0,0.0,-2.0874,-2.3374,-2.4606,-2.5533,-2.6137,-2.61,-2.6509,-2.6904,-2.6553,-2.6668,-2.6853,-2.6809,-2.6772,-2.6351,-2.4865,0.0,0.0,-2.3513,-2.3861,-2.4776,-2.5718,-2.6512,0.0,-2.9553,-3.1627,-3.3155,-3.3686,-3.5036,-3.5808,-3.5356,-3.5831,-3.5711,-3.4468,-3.5277,-3.5591,-3.4971,-3.5483,-3.6564,-3.8312,-3.7858,-3.6973,-3.5754,-3.515,-3.4513,-3.3846,-3.3314,-3.2898,-3.2606,-3.2606,-3.2506,-3.2335,-3.2232,-3.2126,-3.1983,-3.1983,-3.1965,-3.1929,-3.1929,-3.1965,-3.1984,-3.1984,-3.1794,-3.1568,-3.1898,-3.1794,-3.155,0.0,0.0,0.0,0.0,0.0,0.0,0.0,-1.4997,-1.506,-1.506,-1.5193,-1.5268,-1.5248,-1.5035,-1.479,0.0,0.0,0.0,0.0,0.0,0.0,0.0,0.0,0.0,0.0,0.0,0.0,-1.2712,-1.2672,0.0,0.0,0.0,0.0,0.0,-0.9635,-0.9619,-1.018,-0.9883,-1.0119,0.0,0.0,-1.1706,0.0,0.0,0.0,0.0,0.0,0.0,0.0,0.0,-1.9782,-2.1814,-2.3702,-2.475,-2.5283,-2.5403,-2.5639,-2.5923,-2.6157,-2.6171,-2.6207,-2.6452,-2.6207,-2.5381,-2.3303,-2.3604,0.0,-2.1457,-2.2112,-2.3304,-2.4112,-2.5174,-2.6344,0.0,-2.9816,-3.16,-3.2267,-3.3633,-3.4458,0.0,-3.4339,0.0,-3.3465,-3.3765,0.0,-3.4307,-3.4637,-3.5586,-3.7274,-3.6961,-3.6251,-3.5198,-3.4626,-3.3961,-3.3119,-3.2898,-3.2638,-3.2335,-3.2403,-3.2284,-3.2054,-3.2054,-3.1947,-3.18,-3.18,-3.18,-3.18,-3.18,-3.1751,-3.1633,-3.1633,-3.16,-3.155,-3.1706,-3.1722,-3.165,0.0,0.0,0.0,0.0,0.0,0.0,0.0,-1.5311,-1.5618,-1.5618,-1.6166,-1.6502,-1.6371,-1.5467,-1.5072,0.0,0.0,0.0,0.0,0.0,0.0,0.0,0.0,0.0,0.0,0.0,0.0,-1.2785,-1.2781,0.0,0.0,0.0,0.0,0.0,0.0,-1.0868,-1.0561,-1.0575,0.0,0.0,0.0,0.0,0.0,0.0,0.0,0.0,0.0,0.0,0.0,0.0,0.0,-2.0047,-2.1337,-2.2286,-2.3046,-2.3705,0.0,0.0,-2.5611,-2.5805,-2.5766,-2.615,-2.5915,-2.5118,-2.3099,0.0,-2.3655,-2.1457,-2.2011,-2.3164,-2.3954,-2.4277,-2.5116,-2.7275,-2.7824,-2.8802,-3.1266,-3.1601,-3.1985,-3.3091,0.0,0.0,-3.3451,-3.4189,-3.4346,-3.3484,-3.4011,-3.5191,-3.7124,-3.5941,-3.5367,-3.5717,-3.4117,-3.2884,-3.2144,-3.2109,-3.1914,-3.1511,-3.1765,-3.1873,-3.1837,-3.1837,-3.1818,-3.18,-3.18,-3.18,-3.18,-3.18,-3.1421,-3.08,-3.08,-3.0369,-2.9817,-3.0418,-3.0729,-3.0886,0.0,0.0,0.0,0.0,0.0,0.0,-1.5984,-1.6223,-1.6397,-1.6313,-1.6587,-1.6782,-1.6654,-1.6312,-1.6036,-1.584,0.0,0.0,0.0,0.0,0.0,0.0,0.0,0.0,0.0,0.0,-1.4982,-1.4731,-1.4078,0.0,0.0,0.0,0.0,0.0,0.0,-1.1893,-1.2155,-1.194,0.0,0.0,0.0,0.0,0.0,0.0,0.0,0.0,0.0,0.0,-1.5748,0.0,0.0,0.0,-1.8884,-1.9514,0.0,0.0,-2.3503,-2.3817,-2.5016,-2.5298,-2.5314,-2.56,-2.5018,-2.4052,-2.2727,0.0,-2.2825,-2.1322,-2.2011,-2.3045,-2.353,-2.4074,-2.4791,-2.581,-2.6959,-2.8322,-3.0003,-3.0694,-3.1439,-3.2599,-3.3053,0.0,0.0,0.0,-3.3548,-3.3147,-3.3214,-3.3893,-3.5267,-3.4787,-3.4492,-3.4591,-3.3388,-3.2487,-3.1986,-3.1967,-3.175,-3.1397,-3.1509,-3.1523,-3.1443,-3.1443,-3.1443,-3.1443,-3.1443,-3.15,-3.1614,-3.1614,-3.1259,-3.0714,-3.0714,-3.0196,-2.9575,-3.0333,-3.0589,-3.0619,0.0,0.0,0.0,0.0,0.0,-1.6697,-1.674,-1.6846,-1.6854,-1.6761,-1.6867,-1.6876,-1.6761,-1.6867,-1.6743,-1.6276,-1.6122,0.0,0.0,0.0,0.0,0.0,0.0,0.0,0.0,0.0,-1.5534,-1.5822,-1.5051,-1.4393,0.0,0.0,-1.313,-1.2791,0.0,0.0,0.0,0.0,0.0,0.0,0.0,0.0,0.0,0.0,0.0,0.0,0.0,0.0,0.0,0.0,0.0,0.0,0.0,0.0,0.0,0.0,-2.2592,-2.309,-2.4386,-2.4906,-2.5103,-2.524,-2.4432,-2.3378,0.0,0.0,-2.2277,-2.1216,-2.2011,-2.2955,-2.3201,-2.3767,-2.4359,-2.4768,-2.6295,-2.7783,-2.8819,-2.9748,-3.0664,-3.1513,0.0,-3.2086,-3.2102,-3.2546,-3.2834,-3.285,-3.2655,-3.2855,-3.3573,-3.354,-3.3578,-3.3705,-3.2774,-3.2109,-3.1768,-3.1656,-3.1468,-3.1145,-3.1203,-3.1198,-3.1112,-3.1171,-3.119,-3.119,-3.119,-3.1269,-3.1404,-3.1183,-3.0731,-3.0174,-3.0263,-2.9954,-2.9541,-3.0385,-3.0726,-3.0818,0.0,0.0,0.0,0.0,0.0,0.0,-1.6876,-1.6897,-1.6897,-1.6897,-1.696,-1.696,-1.6897,-1.696,-1.7002,-1.6989,-1.6926,0.0,0.0,0.0,0.0,0.0,0.0,0.0,0.0,0.0,-1.5874,-1.5411,-1.5321,-1.5073,-1.4675,-1.4559,-1.4065,-1.3306,0.0,0.0,0.0,0.0,0.0,0.0,0.0,0.0,0.0,0.0,0.0,0.0,0.0,0.0,0.0,0.0,0.0,0.0,0.0,0.0,0.0,0.0,-2.0941,-2.1976,-2.3645,-2.4694,-2.5278,-2.5227,-2.4432,-2.339,0.0,-2.2259,-2.2224,-2.1216,-2.2011,-2.2947,-2.3082,-2.3223,-2.3616,-2.4552,-2.562,-2.6697,-2.7755,-2.8539,-2.914,0.0,0.0,-3.0838,-3.0906,-3.1828,-3.244,-3.2507,-3.244,-3.2406,-3.2423,-3.2231,-3.2546,-3.3477,-3.2331,-3.1562,-3.121,-3.1012,-3.0773,-3.051,-3.0773,-3.0912,-3.0912,-3.1112,-3.119,-3.119,-3.119,-3.119,-3.1159,-3.0434,-2.9636,-2.8942,-2.9209,-2.9314,-2.9435,-3.035,-3.1072,-3.1598,0.0,0.0,0.0,0.0,0.0,0.0,0.0,-1.7065,-1.7086,-1.6981,-1.7086,-1.7094,-1.6981,-1.7086,-1.7136,-1.7136,-1.6981,0.0,0.0,0.0,0.0,0.0,0.0,0.0,0.0,0.0,-1.6595,-1.6488,-1.6061,-1.5786,-1.5654,-1.5287,-1.4993,-1.4732,-1.4892,-1.4699,0.0,0.0,0.0,0.0,0.0,0.0,0.0,0.0,0.0,0.0,0.0,0.0,0.0,0.0,0.0,0.0,0.0,0.0,0.0,-1.9575,0.0,0.0,-2.1917,-2.2541,-2.2862,-2.2921,-2.2255,-2.1579,-2.1649,-2.1634,-2.1618,-2.1669,-2.233,-2.2947,-2.3082,-2.3696,-2.4503,-2.5496,-2.6509,-2.7546,0.0,0.0,0.0,-3.0177,-3.108,-3.1707,0.0,0.0,-3.2143,-3.2019,-3.2,-3.1982,-3.1982,-3.18,-3.1959,-3.2528,-3.1942,-3.156,-3.1406,-3.1114,-3.0895,-3.0773,-3.0671,-3.063,-3.063,-3.0692,-3.0733,-3.0733,-3.0733,-3.0547,-3.0216,-3.0,-2.9505,-2.8856,-2.8488,-2.8713,-2.928,-2.9624,-3.0208,-3.0912,0.0,0.0,0.0,0.0,0.0,0.0,0.0,-1.7157,-1.7178,-1.7094,-1.7157,-1.7178,-1.7073,-1.7157,-1.7199,-1.7199,-1.7094,0.0,0.0,0.0,0.0,0.0,0.0,0.0,0.0,-1.7073,-1.7044,-1.7073,-1.6646,-1.6377,-1.6235,-1.5898,-1.5785,-1.5863,-1.546,-1.5347,0.0,0.0,0.0,0.0,0.0,0.0,-1.5119,0.0,0.0,0.0,0.0,0.0,0.0,0.0,0.0,0.0,0.0,0.0,0.0,0.0,-1.9701,-2.0259,0.0,-2.1834,-2.1887,-2.2139,-2.1385,-2.0742,-2.1282,-2.1263,-2.1303,-2.188,-2.2475,-2.2978,-2.3275,-2.3894,-2.4667,-2.5667,-2.7005,-2.8045,-2.8466,0.0,0.0,-3.0931,0.0,0.0,0.0,-3.2001,-3.1929,-3.1818,-3.18,-3.18,-3.18,-3.1559,-3.1458,-3.1496,-3.1406,-3.1312,-3.1196,-3.0898,-3.0695,-3.063,-3.0363,-3.0236,-3.0241,-3.0342,-3.0401,-3.0384,-3.0166,-2.9908,0.0,-2.9365,-2.9042,-2.8688,-2.8342,-2.8703,-2.9403,-2.9257,-2.9669,-3.039,0.0,0.0,0.0,0.0,0.0,0.0,0.0,-1.7199,-1.7199,-1.7199,-1.7199,-1.7199,-1.7199,-1.7199,-1.7199,-1.7199,0.0,0.0,0.0,0.0,0.0,0.0,0.0,0.0,-1.7264,-1.7212,-1.7212,-1.7264,-1.7099,-1.6863,-1.6565,-1.6432,-1.651,-1.6718,-1.5703,-1.5795,-1.666,0.0,0.0,0.0,0.0,0.0,0.0,0.0,0.0,0.0,0.0,0.0,0.0,0.0,0.0,0.0,0.0,0.0,0.0,0.0,0.0,0.0,0.0,-2.2265,-2.1981,-2.2469,-2.156,-2.0688,-2.114,-2.1158,0.0,-2.1981,-2.2571,-2.312,-2.3629,-2.3864,-2.4318,-2.5298,-2.7118,-2.8246,0.0,-2.9827,0.0,0.0,-3.0996,0.0,-3.1632,-3.175,-3.1764,-3.1677,-3.171,-3.1744,-3.1744,-3.1447,-3.103,-3.0515,-3.0801,-3.0861,-3.067,-3.0439,-3.0284,-3.021,-2.9919,-2.9777,-2.9729,-3.0,-3.0091,-3.003,-2.9547,-2.9317,-2.9198,-2.8591,-2.8326,-2.8345,-2.8469,-2.9013,-2.9671,-2.9107,-2.9384,-2.9944,0.0,0.0,0.0,0.0,0.0,0.0,0.0,0.0,0.0,0.0,-1.7199,-1.7199,-1.7199,-1.7199,-1.7199,0.0,0.0,0.0,0.0,0.0,0.0,0.0,0.0,0.0,-1.7878,-1.7434,-1.7421,-1.7891,-1.7379,-1.717,-1.7183,-1.7162,-1.7185,-1.7217,-1.6982,-1.6812,-1.6663,-1.6219,0.0,0.0,0.0,0.0,0.0,0.0,0.0,0.0,-1.8028,-1.8486,0.0,0.0,0.0,0.0,0.0,0.0,0.0,0.0,-2.1022,-2.1504,-2.2549,0.0,-2.069,-2.126,-2.0796,-2.0498,0.0,-2.1793,-2.206,-2.3093,0.0,0.0,-2.3815,-2.4507,-2.5242,-2.5835,-2.7449,-2.8592,-2.8462,-2.9578,0.0,-3.1675,-3.1608,-3.1037,-2.9933,-3.0891,-3.1278,-3.0547,-3.0927,-3.1193,-3.1193,-3.1055,-3.0891,-3.0667,-3.0517,-3.0416,-3.0332,-3.0396,-3.0447,-3.0405,-3.0006,-2.9518,-2.9038,-2.9249,-2.9075,-2.8608,-2.8626,-2.831,-2.7779,-2.7613,-2.7547,-2.7497,-2.6987,-2.7679,-2.8865,-2.8184,-2.8496,-2.9233,0.0,0.0,0.0,0.0,0.0,0.0,0.0,0.0,0.0,0.0,0.0,-1.7199,-1.7199,-1.7199,0.0,0.0,0.0,0.0,0.0,0.0,0.0,0.0,0.0,-1.7761,-1.8087,-1.7512,-1.7499,-1.81,-1.7499,-1.7274,-1.7404,-1.7404,-1.757,-1.7864,-1.7864,-1.7439,-1.6765,-1.705,-1.7341,-1.767,-1.7939,0.0,0.0,0.0,0.0,0.0,-1.8846,-1.9111,0.0,-1.9252,-1.907,-1.8799,0.0,0.0,0.0,0.0,-2.1355,-2.2036,-2.2711,-2.1736,-2.0669,-2.1293,-2.0973,-2.077,-2.1772,0.0,0.0,0.0,0.0,0.0,0.0,0.0,-2.5671,-2.6088,-2.7816,0.0,0.0,0.0,-3.0116,-3.1994,-3.1677,-3.1158,0.0,-3.1153,-3.1176,-3.0555,-3.0777,-3.0955,-3.0955,-3.0871,-3.0623,-3.0212,-3.0224,-3.0249,-3.0199,-3.0086,-3.0044,-3.0027,-2.9355,-2.8826,-2.8474,-2.837,-2.818,-2.7923,-2.7813,-2.7588,-2.7298,-2.7298,-2.7298,-2.7249,-2.6868,-2.7454,-2.8431,-2.7346,-2.7487,-2.8184,0.0,0.0,0.0,0.0,0.0,0.0,0.0,0.0,0.0,0.0,0.0,0.0,0.0,0.0,0.0,0.0,0.0,0.0,0.0,0.0,0.0,0.0,0.0,-1.8131,-1.8109,-1.7542,-1.7529,-1.8109,-1.7529,-1.7316,-1.7446,-1.7446,-1.7752,-1.8302,-1.8395,-1.7929,-1.7131,-1.8168,-1.8647,-1.8767,-1.9288,0.0,0.0,0.0,0.0,0.0,0.0,0.0,0.0,-1.9342,-1.9138,-1.8989,-1.8581,0.0,0.0,0.0,0.0,0.0,-2.2797,-2.2135,-2.1486,-2.2004,-2.1641,-2.1322,-2.1989,0.0,0.0,0.0,0.0,0.0,0.0,-2.5298,0.0,0.0,0.0,0.0,-3.1469,-3.0277,-3.0114,-3.2383,-3.1631,0.0,-3.1898,-3.1511,-3.1067,-3.0727,-3.0727,-3.079,-3.0794,-3.0651,-3.029,-2.9716,-2.9946,-3.0032,-2.9918,-2.9532,-2.9333,-2.9317,-2.8402,-2.7889,-2.7769,-2.7402,-2.7274,-2.7308,-2.698,-2.6928,-2.7096,-2.7114,-2.7133,-2.7133,-2.7133,-2.7514,-2.7912,-2.6667,-2.6601,-2.7052,0.0,0.0,0.0,0.0,0.0,0.0,0.0,0.0,0.0,0.0,0.0,0.0,0.0,0.0,0.0,0.0,0.0,0.0,0.0,0.0,0.0,-1.9154,-1.8631,-1.8309,-1.8192,-1.7697,-1.7684,-1.8179,-1.7684,-1.7509,-1.7638,-1.7638,-1.7712,-1.784,-1.8336,-1.8489,-1.8393,-1.9184,-1.9755,-2.0201,-2.0273,0.0,0.0,0.0,0.0,0.0,0.0,0.0,0.0,-2.0857,-2.0654,-2.0315,-2.0721,0.0,0.0,0.0,0.0,0.0,-2.2865,-2.2922,-2.2908,-2.2781,-2.2287,-2.2004,-2.262,0.0,0.0,0.0,0.0,0.0,0.0,-2.558,-2.5902,0.0,0.0,-3.1099,0.0,0.0,-3.2328,-3.2357,0.0,-3.1252,-2.9226,-3.0092,-3.0388,-2.9379,-2.9812,-3.0215,-3.0372,-3.0097,-2.9978,-3.011,-2.9777,-2.9315,-2.8683,-2.8596,-2.8574,-2.8558,-2.7666,-2.6925,-2.6325,-2.642,-2.6174,-2.5676,-2.5945,-2.6098,-2.6135,-2.6297,-2.6369,-2.6369,-2.6369,-2.6452,-2.6518,-2.6268,-2.6268,-2.637,0.0,0.0,0.0,0.0,0.0,0.0,0.0,0.0,0.0,0.0,0.0,0.0,0.0,0.0,0.0,0.0,0.0,0.0,0.0,0.0,0.0,-1.9454,-1.9212,-1.8864,-1.8314,-1.7781,-1.7767,-1.8314,-1.8086,-1.7891,-1.7699,-1.776,-1.7977,-1.8308,-1.8578,-1.8889,-1.9241,-1.9881,-2.0274,-2.0522,0.0,0.0,0.0,0.0,0.0,0.0,0.0,0.0,0.0,0.0,-2.0735,-2.0504,-2.0501,0.0,0.0,0.0,0.0,0.0,-2.282,-2.2978,-2.309,-2.3112,-2.2988,-2.295,-2.3223,0.0,0.0,0.0,0.0,0.0,0.0,0.0,-2.6912,-2.9044,0.0,-3.0533,-3.2326,-3.149,-3.0971,0.0,0.0,-3.0691,-3.0177,-3.0348,-3.0219,-2.9597,-2.9762,-2.9778,-2.9494,-2.9621,-2.941,-2.8798,-2.8833,-2.8493,-2.7758,-2.7307,-2.7296,-2.7693,-2.6889,-2.634,-2.5993,-2.5715,-2.55,-2.5314,-2.5505,-2.564,-2.5752,-2.5952,-2.6041,-2.6059,-2.615,-2.6202,-2.6202,-2.6202,-2.6202,-2.6203,0.0,0.0,0.0,0.0,0.0,0.0,0.0,0.0,0.0,0.0,0.0,0.0,0.0,0.0,0.0,0.0,0.0,0.0,0.0,0.0,-1.997,-1.9359,-1.9425,-1.9157,-1.847,-1.7898,-1.7864,-1.8457,-1.8339,-1.8108,-1.774,-1.8011,-1.835,-1.882,-1.9084,-1.9442,-1.9931,-2.0477,-2.0721,-2.0762,0.0,0.0,0.0,0.0,0.0,0.0,0.0,0.0,0.0,0.0,0.0,0.0,0.0,0.0,0.0,-2.1187,-2.1752,-2.2342,-2.2624,-2.2854,-2.3045,-2.3253,-2.3429,-2.3551,-2.3659,0.0,0.0,0.0,0.0,0.0,0.0,-2.7005,0.0,-3.0393,-3.0535,-3.0674,-3.1606,-3.0603,-3.0201,-3.1314,-3.0593,-3.0299,-3.0986,-3.0489,-3.0011,-2.982,-2.9554,-2.9194,-2.8715,-2.8854,-2.8522,-2.7515,-2.7774,-2.7602,-2.6878,-2.6282,-2.6272,-2.683,-2.6103,-2.5772,-2.574,-2.5223,-2.5084,-2.5236,-2.5275,-2.5394,-2.5546,-2.5752,-2.5826,-2.5844,-2.6059,-2.615,-2.6202,-2.6202,-2.6202,-2.6202,0.0,0.0,0.0,0.0,0.0,0.0,0.0,0.0,0.0,0.0,0.0,0.0,0.0,0.0,0.0,0.0,0.0,0.0,0.0,0.0,-1.9483,-1.888,-1.8853,-1.8776,-1.8594,-1.8132,-1.8105,-1.8594,-1.8146,-1.7923,-1.7896,-1.8473,-1.8765,-1.8861,-1.9895,-2.041,-2.0491,-2.1087,-2.1331,-2.1331,-2.1372,0.0,0.0,0.0,0.0,0.0,0.0,0.0,0.0,0.0,0.0,0.0,0.0,0.0,-2.1651,-2.1312,-2.1866,-2.2509,-2.2156,-2.2659,-2.3275,-2.3297,-2.3319,0.0,-2.3794,-2.4,0.0,-2.5215,0.0,0.0,0.0,-2.8069,-2.9345,-2.9736,-3.1572,-3.2997,-3.3212,0.0,-3.2537,-3.1115,-3.0984,-3.0595,-2.9553,-2.9525,-2.9448,-2.9167,-2.8566,-2.8253,-2.8321,-2.7547,-2.7097,-2.7153,-2.6926,-2.6532,-2.5911,-2.5916,-2.5973,-2.6072,-2.5397,-2.5065,-2.5065,-2.5017,-2.5005,-2.5025,-2.5217,-2.5314,-2.5352,-2.5546,-2.5624,-2.5642,-2.5844,-2.6041,-2.6202,-2.6202,-2.6202,-2.6202,0.0,0.0,0.0,0.0,0.0,0.0,0.0,0.0,0.0,0.0,0.0,0.0,0.0,0.0,0.0,0.0,0.0,0.0,0.0,-1.9138,-1.903,-1.882,-1.8806,-1.8785,-1.8721,-1.818,-1.8167,-1.8721,-1.8167,-1.8092,-1.8459,-1.8697,-1.8989,-1.9374,-2.0166,-2.0721,-2.1074,-2.1304,-2.1399,-2.1399,-2.1399,-2.1399,0.0,0.0,0.0,0.0,0.0,0.0,0.0,0.0,-2.1399,-2.1399,-2.1399,-2.1471,-2.1585,-2.1764,-2.2071,-2.2397,-2.2531,-2.2789,-2.312,-2.3414,-2.3392,0.0,0.0,-2.4441,-2.504,-2.4833,-2.5685,0.0,0.0,0.0,-3.0724,-3.0587,-3.2017,-3.3161,-3.321,-3.2327,-3.1456,-3.0845,-3.0325,-2.9804,-2.9344,-2.8968,-2.8669,-2.8474,-2.7857,-2.7294,-2.6899,-2.6806,-2.6401,-2.5566,-2.5825,-2.5652,-2.4994,-2.503,-2.5113,-2.524,-2.5072,-2.5005,-2.5005,-2.5005,-2.5005,-2.5005,-2.5084,-2.5103,-2.5139,-2.5336,-2.5413,-2.5432,-2.564,-2.5899,-2.6168,-2.6059,-2.6096,-2.6202,0.0,0.0,0.0,0.0,0.0,0.0,0.0,0.0,0.0,0.0,0.0,0.0,0.0,0.0,0.0,0.0,0.0,0.0,-1.8473,-1.8513,-1.8513,-1.8513,-1.8513,-1.8595,-1.8806,-1.8201,-1.8201,-1.8806,-1.8201,-1.8106,-1.8513,-1.8725,-1.9125,-1.9714,-2.0071,-2.0681,-2.1385,-2.1196,-2.1223,-2.1399,-2.1399,-2.1399,0.0,0.0,0.0,0.0,0.0,0.0,0.0,0.0,-2.1399,-2.1399,-2.1399,-2.1399,-2.1455,-2.1703,-2.1937,-2.2189,-2.2372,-2.263,-2.2947,-2.3275,0.0,0.0,-2.3659,-2.4598,-2.541,-2.5305,-2.6127,0.0,-2.714,0.0,0.0,0.0,-3.1533,-3.2426,-3.2216,-3.123,-3.0432,-3.016,-2.9446,-2.8964,-2.8874,-2.8278,-2.7882,-2.7778,-2.7146,-2.6525,-2.5999,-2.6057,-2.5612,-2.4539,-2.4911,-2.4879,-2.438,-2.438,-2.4441,-2.4584,-2.467,-2.4791,-2.4926,-2.4966,-2.4966,-2.4926,-2.4966,-2.5005,-2.5005,-2.5158,-2.5236,-2.5314,-2.5451,-2.5715,-2.5989,-2.586,-2.5934,-2.6096,0.0,0.0,0.0,0.0,0.0,0.0,0.0,0.0,0.0,0.0,0.0,0.0,0.0,0.0,0.0,0.0,0.0,0.0,-1.7902,-1.7902,-1.7902,-1.7902,-1.7902,-1.8174,-1.8793,-1.8201,-1.8201,-1.8793,-1.8187,-1.7902,-1.7916,-1.8513,-1.9125,-1.9714,-1.97,-2.0338,-2.1345,-2.0762,-2.0843,-2.1385,-2.1385,-2.1385,-2.1399,0.0,0.0,0.0,0.0,0.0,0.0,0.0,-2.1399,-2.1399,-2.1399,-2.1399,-2.1339,-2.1015,-2.1435,-2.1927,-2.153,-2.2089,-2.2809,0.0,0.0,0.0,-2.3891,-2.4408,-2.5333,-2.688,-2.6983,-2.6942,-2.7504,-2.7927,0.0,-2.855,-3.005,-3.0947,-3.0283,-3.0291,-2.9998,-2.899,-2.8528,-2.8177,-2.7915,-2.7406,-2.7099,-2.7099,-2.6419,-2.5967,-2.59,-2.5199,-2.4645,-2.4302,-2.4302,-2.424,-2.4099,-2.4099,-2.4099,-2.4099,-2.4099,-2.4328,-2.4802,-2.4926,-2.4922,-2.4802,-2.4926,-2.5005,-2.5005,-2.5005,-2.5103,-2.5294,-2.5294,-2.5413,-2.5605,-2.5605,-2.5733,-2.5881,0.0,0.0,0.0,0.0,0.0,0.0,0.0,0.0,0.0,0.0,0.0,0.0,0.0,0.0,0.0,0.0,0.0,0.0,-1.7902,-1.7902,-1.7902,-1.7902,-1.7902,-1.7984,-1.816,-1.8405,-1.8405,-1.8174,-1.7997,-1.8119,-1.8527,-1.8725,-1.9328,-2.0247,-1.9876,-2.0107,-2.0735,-2.0166,-2.0261,-2.0775,-2.0775,-2.1019,-2.1399,0.0,0.0,0.0,0.0,0.0,0.0,0.0,0.0,0.0,-2.1399,-2.1399,-2.1455,-2.1741,-2.1974,-2.2189,-2.2409,-2.2637,0.0,-2.2978,0.0,0.0,0.0,-2.4726,0.0,0.0,-2.646,-2.6255,-2.7273,-2.7801,0.0,-2.874,-2.9218,-2.9446,-2.9257,-2.8402,-2.7733,-2.7513,-2.7221,-2.7029,-2.7045,-2.6528,-2.6162,-2.6114,-2.5616,-2.5242,-2.5136,-2.4912,-2.4701,-2.4457,-2.4359,-2.4198,-2.403,-2.3946,-2.3946,-2.403,-2.3946,-2.4094,-2.4462,-2.4487,-2.4605,-2.4802,-2.4842,-2.4906,-2.5005,-2.5005,-2.5103,-2.5294,-2.5143,-2.5298,-2.5586,-2.5451,-2.5602,-2.5881,0.0,0.0,0.0,0.0,0.0,0.0,0.0,0.0,0.0,0.0,0.0,0.0,0.0,0.0,0.0,0.0,0.0,0.0,0.0,-1.7902,-1.7902,-1.7902,-1.8133,-1.8364,-1.8622,-1.8731,-1.8608,-1.8255,-1.8255,-1.831,-1.8432,-1.8432,-1.8948,-1.9822,-1.9483,-1.9659,-2.0179,-2.017,-2.0366,-2.0671,-2.0926,-2.124,-2.1544,0.0,0.0,0.0,0.0,0.0,0.0,0.0,0.0,0.0,-2.1399,-2.1399,-2.1471,-2.1793,-2.1973,-2.2114,-2.2394,-2.2546,0.0,-2.2783,-2.2902,-2.3191,-2.4138,0.0,0.0,0.0,-2.586,-2.5719,-2.6681,-2.6937,0.0,-2.7674,-2.7643,-2.7565,-2.7565,-2.6956,-2.6519,-2.6607,-2.6358,-2.6203,-2.6283,-2.568,-2.5274,-2.5228,-2.492,-2.4686,-2.4605,-2.4666,-2.45,-2.4034,-2.4019,-2.3759,-2.3213,-2.3353,-2.3426,-2.3399,-2.3548,-2.3732,-2.3988,-2.4198,-2.4364,-2.4544,-2.4722,-2.4882,-2.5005,-2.5005,-2.5064,-2.5162,-2.506,-2.5143,-2.5339,-2.522,-2.5375,-2.5707,0.0,0.0,0.0,0.0,0.0,0.0,0.0,0.0,0.0,0.0,0.0,0.0,0.0,0.0,0.0,0.0,0.0,0.0,0.0,0.0,-1.7916,-1.7984,-1.85,-1.9057,-1.9605,-1.9084,-1.8806,-1.8806,-1.8806,-1.8513,-1.7984,-1.7929,-1.8242,-1.8867,-1.88,-1.9078,-1.969,-2.0387,-2.0739,-2.0877,-2.143,-2.172,-2.1769,-2.1544,0.0,0.0,0.0,0.0,0.0,0.0,0.0,0.0,-2.1399,-2.1399,-2.1399,-2.1423,-2.1616,-2.1793,-2.1841,0.0,0.0,-2.2394,-2.289,0.0,-2.4316,-2.4568,-2.4752,-2.5173,0.0,-2.5331,-2.5855,-2.5694,-2.5586,-2.5925,-2.5764,-2.5595,-2.5548,-2.5773,-2.5939,-2.5962,-2.5704,-2.5524,-2.5545,-2.4896,-2.4457,-2.4457,-2.4359,-2.4281,-2.4281,-2.4467,-2.4208,-2.3389,-2.3491,-2.3072,-2.2065,-2.2556,-2.2695,-2.25,-2.2972,-2.3274,-2.3398,-2.3958,-2.4177,-2.4105,-2.4542,-2.4819,-2.4966,-2.4985,-2.5005,-2.5005,-2.5005,-2.5005,-2.5005,-2.5005,-2.5139,-2.5374,0.0,0.0,0.0,0.0,0.0,0.0,0.0,0.0,0.0,0.0,0.0,0.0,0.0,0.0,0.0,0.0,0.0,0.0,0.0,0.0,-1.8106,-1.8581,-1.8738,-1.8853,-1.8989,-1.8874,-1.8806,-1.8806,-1.8806,-1.8738,-1.8595,-1.8119,-1.8473,-1.9478,-1.868,-1.8666,-1.9216,-1.9078,-1.9558,-2.0447,-2.0566,-2.1096,-2.1793,-2.1722,-2.1592,0.0,0.0,0.0,0.0,0.0,0.0,0.0,-2.1399,-2.1399,-2.1447,-2.1664,-2.1746,-2.1864,-2.2184,-2.2254,0.0,0.0,-2.2516,-2.2681,-2.287,-2.3068,-2.3542,-2.4694,-2.4883,-2.5053,-2.5591,-2.5027,-2.4756,-2.5571,-2.5204,-2.4745,-2.4484,-2.4178,-2.4036,-2.416,-2.4105,-2.4122,-2.4344,-2.4269,-2.4156,-2.4109,-2.4234,-2.4261,-2.4141,-2.4281,-2.4199,-2.3853,-2.3376,-2.294,-2.254,-2.2164,-2.2138,-2.2485,-2.2513,-2.2502,-2.2503,-2.3206,-2.3739,-2.409,-2.4029,-2.432,-2.4862,-2.4962,-2.5005,-2.5005,-2.5005,-2.5005,-2.5005,-2.5005,-2.5139,-2.531,0.0,0.0,0.0,0.0,0.0,0.0,0.0,0.0,0.0,0.0,0.0,0.0,0.0,0.0,0.0,0.0,0.0,0.0,0.0,0.0,-1.8296,-1.9193,-1.8676,-1.8758,-1.9591,-1.9084,-1.8806,-1.8806,-1.8806,-1.8636,-1.835,-1.8052,-1.8283,-1.8966,-1.8735,-1.8705,-1.8848,-1.9337,-1.9749,-2.0104,-2.0699,-2.1248,-2.1708,-2.1791,-2.1712,-2.1568,-2.1447,0.0,0.0,0.0,0.0,0.0,0.0,0.0,-2.1423,-2.1568,-2.1664,-2.1746,-2.1973,0.0,0.0,-2.2278,0.0,-2.2739,-2.2824,-2.2942,-2.3273,-2.4024,-2.4138,-2.4153,-2.4346,-2.4133,-2.4037,-2.4439,-2.4148,-2.3791,-2.3524,-2.328,-2.3201,-2.3268,-2.3392,-2.3545,-2.3797,-2.3818,-2.3839,-2.3903,-2.3946,-2.3931,-2.3852,-2.3747,-2.3468,-2.3061,-2.2487,-2.1892,-2.1265,-2.1663,-2.1899,-2.1984,-2.2522,-2.259,-2.2247,-2.2346,-2.3047,-2.4173,-2.3739,-2.4026,-2.4802,-2.4946,-2.4946,-2.4906,-2.4966,-2.4946,-2.4886,-2.4886,-2.4982,-2.5108,0.0,0.0,0.0,0.0,0.0,0.0,0.0,0.0,0.0,0.0,0.0,0.0,0.0,0.0,0.0,0.0,0.0,0.0,0.0,0.0,0.0,-1.9347,-1.8666,-1.8816,-2.003,-1.9189,-1.8706,-1.8636,-1.8636,-1.8432,0.0,-1.7983,-1.8043,-1.8216,-1.8795,-1.8861,-1.8632,-1.9886,-2.0259,-2.0093,-2.1083,-2.162,-2.1774,-2.1848,-2.1841,-2.1746,-2.1496,-2.1399,-2.1399,-2.1399,0.0,0.0,0.0,0.0,-2.1399,-2.1399,-2.1496,-2.1568,0.0,0.0,-2.2044,-2.2137,-2.2564,0.0,-2.3087,-2.3135,-2.3159,-2.3255,-2.3299,-2.3296,-2.3098,-2.329,-2.3436,-2.3319,-2.3172,-2.3008,-2.2803,-2.2783,-2.2822,-2.2859,-2.3038,-2.3282,-2.3508,-2.3494,-2.3538,-2.3739,-2.3674,-2.3595,-2.3595,-2.32,-2.2697,-2.2152,-2.1496,-2.0737,-1.9887,-2.0956,-2.1434,-2.1297,-2.2357,-2.2655,-2.2266,-2.1556,-2.2224,-2.3984,-2.3359,-2.3708,-2.4722,-2.4902,-2.4902,-2.4802,-2.4922,-2.4866,-2.4782,-2.4782,-2.4782,-2.486,0.0,0.0,0.0,0.0,0.0,0.0,0.0,0.0,0.0,0.0,0.0,0.0,0.0,0.0,0.0,0.0,0.0,0.0,-1.9095,0.0,0.0,-1.8181,-1.9154,-1.925,-1.8255,-1.8442,-1.8365,-1.8024,-1.8024,0.0,0.0,0.0,0.0,-1.8222,-1.8652,-1.8812,-1.8779,-1.9157,-1.9904,-2.0845,-2.1019,-2.165,-2.2441,-2.2226,-2.1996,-2.1746,-2.1496,-2.1399,-2.1399,-2.1399,-2.1399,0.0,0.0,0.0,-2.1399,-2.1399,-2.1423,-2.1447,0.0,0.0,-2.1996,0.0,-2.217,-2.232,0.0,0.0,-2.2498,0.0,-2.2946,-2.3362,-2.2991,-2.2957,-2.3046,-2.3275,-2.3083,-2.2867,-2.2731,-2.2563,-2.2509,-2.2623,-2.2669,-2.2851,-2.3297,-2.3341,-2.3414,-2.3595,-2.3595,-2.3595,-2.3595,-2.3053,-2.2699,-2.2609,-2.1257,-2.0548,-2.0554,-1.9836,-1.994,-2.0804,-2.0963,-2.1465,-2.2175,-2.1059,-2.1372,-2.2795,-2.2487,-2.3113,-2.44,-2.4686,-2.4822,-2.4802,-2.4822,-2.4746,-2.463,-2.4762,-2.4726,-2.4645,0.0,0.0,0.0,0.0,0.0,0.0,0.0,0.0,0.0,0.0,0.0,0.0,0.0,0.0,0.0,-2.0494,-1.9854,-1.9347,-1.9161,-1.8983,-1.8945,-1.9075,-1.9143,-1.9128,-1.9089,-1.8717,-1.8417,-1.8234,0.0,0.0,0.0,-1.8721,-1.8761,0.0,0.0,0.0,-1.8969,-1.9064,-1.942,-1.9972,-2.0349,-2.0928,-2.1592,-2.1629,-2.1736,-2.1864,-2.152,-2.1399,-2.1399,-2.1399,-2.1399,-2.1399,-2.1399,0.0,0.0,0.0,-2.1399,0.0,-2.1568,-2.1959,-2.2273,0.0,-2.2247,-2.251,-2.2161,0.0,-2.2278,-2.2208,-2.2489,-2.2743,-2.2644,-2.2777,-2.2889,-2.2918,-2.2836,-2.2731,-2.2563,-2.2532,-2.2532,-2.2592,-2.2692,-2.2904,-2.3275,-2.3297,-2.337,-2.3573,-2.3595,-2.3595,-2.3595,-2.2667,-2.2149,-2.2149,-2.075,-2.0009,-1.9968,-1.9986,-2.0379,-2.1129,-2.0621,-2.0932,-2.1941,-2.0769,-2.1073,-2.256,-2.2746,-2.3394,-2.4343,-2.4866,-2.4942,-2.4706,-2.4782,-2.4701,-2.4544,-2.462,-2.4584,-2.4585,0.0,0.0,0.0,0.0,0.0,0.0,0.0,0.0,0.0,0.0,0.0,0.0,0.0,0.0,0.0,0.0,-2.0067,-1.957,-1.9143,-1.894,-1.9104,-1.9744,-1.9142,-1.9056,-1.9622,-1.8876,-1.8456,-1.8338,0.0,0.0,-1.903,-1.9229,-1.944,0.0,-1.9711,-1.9501,0.0,0.0,0.0,0.0,-2.0098,-2.0657,-2.1097,-2.1435,-2.1754,-2.1996,-2.1616,-2.1447,-2.1447,-2.1423,-2.1399,-2.1399,-2.1399,-2.1399,0.0,0.0,0.0,0.0,0.0,0.0,-2.2254,-2.1846,-2.2187,-2.2505,0.0,0.0,-2.2161,0.0,-2.2208,-2.2231,-2.2324,-2.254,-2.27,-2.2601,-2.2586,-2.2526,-2.2463,-2.2532,-2.2615,-2.2615,-2.2791,-2.3016,-2.3275,-2.3297,-2.337,-2.3573,-2.3595,-2.3595,-2.3595,-2.2383,-2.1695,-2.1695,-2.0374,-1.9599,-1.9487,-2.0124,-2.0706,-2.1208,-2.043,-2.0595,-2.1512,-2.0666,-2.0985,-2.2268,-2.2889,-2.3534,-2.4219,-2.4846,-2.4886,-2.4569,-2.4666,-2.462,-2.4457,-2.4498,-2.4477,-2.4498,0.0,0.0,0.0,0.0,0.0,0.0,0.0,0.0,0.0,0.0,0.0,0.0,-2.0494,-2.0441,-2.0492,-2.0761,-2.0227,-1.9687,-1.9225,-1.9536,-1.9566,-1.9163,-1.9468,0.0,-1.8595,-1.8528,-1.8299,0.0,0.0,0.0,-1.9646,-1.9861,-2.0065,-2.0259,-2.0514,-2.0056,-1.9145,0.0,0.0,0.0,0.0,0.0,-2.1808,-2.2329,-2.2388,-2.2137,-2.1722,-2.1592,-2.1568,-2.1447,-2.1399,-2.1399,-2.1399,-2.1399,-2.1399,0.0,0.0,0.0,0.0,-2.1533,0.0,-2.1616,-2.1725,0.0,0.0,0.0,-2.2067,-2.2184,-2.2208,-2.2208,-2.2208,-2.2217,-2.2324,-2.2555,-2.2394,-2.2324,-2.2555,-2.2615,-2.2615,-2.2615,-2.2791,-2.3016,-2.3275,-2.3297,-2.337,-2.3573,-2.3595,-2.3595,-2.3595,-2.2383,-2.1695,-2.1695,-2.0284,-1.9566,-1.969,-1.972,-1.9987,-2.0435,-2.0152,-2.031,-2.0854,-2.0787,-2.1051,-2.1609,-2.2398,-2.3146,-2.3861,-2.4338,-2.4518,-2.4498,-2.4518,-2.4421,-2.4338,-2.4457,-2.4421,-2.4338,0.0,0.0,0.0,0.0,0.0,0.0,0.0,0.0,0.0,0.0,0.0,0.0,0.0,-2.0627,-2.0644,-2.0794,-2.0479,-2.0189,-1.9977,-1.9818,-1.9657,-1.9475,-1.938,-1.9195,-1.8879,-1.863,-1.8436,0.0,0.0,-1.8323,-1.9125,-1.9197,-1.9488,-2.0002,-2.0491,-2.0085,-1.9116,-1.9362,0.0,0.0,0.0,0.0,0.0,0.0,-2.2167,-2.2067,-2.1926,0.0,-2.1592,-2.1447,-2.1399,-2.1399,-2.1399,-2.1399,-2.1399,-2.1399,-2.1399,0.0,0.0,0.0,0.0,-2.1471,-2.1568,-2.1688,-2.1722,-2.1793,-2.1902,-2.1926,-2.202,-2.2067,-2.2067,-2.2137,-2.2231,-2.2324,-2.2254,-2.2231,-2.2324,-2.2586,-2.2791,-2.2791,-2.3113,-2.3377,-2.348,-2.3501,-2.3508,-2.3595,-2.3595,-2.3595,-2.3595,-2.2383,-2.1695,-2.1695,-2.0378,-1.9726,-1.9762,-1.9639,-1.9722,-2.0012,-1.9776,-2.0198,-2.1106,-2.0903,-2.1205,-2.1922,-2.2607,-2.3319,-2.4036,-2.4553,-2.4731,-2.4681,-2.4559,-2.4421,-2.4302,-2.4359,-2.4338,-2.4364,0.0,0.0,0.0,0.0,0.0,0.0,0.0,0.0,0.0,-2.0458,0.0,0.0,0.0,0.0,-2.0661,-2.0695,-2.0578,-2.046,-2.0405,-2.0113,-1.9869,-1.9708,-1.9325,-1.9045,-1.8898,-1.8706,-1.8488,0.0,0.0,0.0,0.0,-1.9003,-1.9273,-1.9579,-2.0142,-1.9944,0.0,0.0,0.0,-2.0151,0.0,0.0,-2.1721,0.0,0.0,0.0,0.0,0.0,-2.164,-2.1471,-2.1399,-2.1399,-2.1399,-2.1399,-2.1399,-2.1399,-2.1399,-2.1399,-2.1399,0.0,0.0,0.0,0.0,-2.1544,-2.1592,-2.1688,-2.1769,-2.1926,-2.1926,-2.1973,-2.2067,-2.2067,-2.2114,-2.2184,-2.2208,-2.2208,-2.2208,-2.2595,-2.2889,-2.2889,-2.3312,-2.3595,-2.3595,-2.3595,-2.3595,-2.3595,-2.3595,-2.3595,-2.3595,-2.2383,-2.1524,-2.1132,-2.0264,-1.9833,-1.9904,-1.9764,-1.9764,-1.9904,-1.9818,-2.0238,-2.102,-2.0752,-2.1044,-2.1824,-2.2193,-2.2777,-2.3504,-2.4122,-2.4245,-2.4065,-2.4084,-2.404,-2.3994,-2.4225,-2.4302,-2.441,0.0,0.0,0.0,0.0,0.0,0.0,0.0,0.0,-2.0421,-2.0405,0.0,0.0,0.0,0.0,0.0,-2.051,-2.051,-2.046,-2.0405,-2.0405,-2.0183,-1.9726,-1.9325,-1.8931,-1.8542,-1.8707,-1.8528,0.0,0.0,0.0,0.0,0.0,-1.9435,-1.9114,-1.9559,-1.9662,-1.9549,0.0,-2.0625,-2.0253,0.0,-2.2089,-2.1924,0.0,0.0,0.0,-2.2114,-2.1926,0.0,-2.1496,0.0,0.0,0.0,-2.1399,-2.1399,-2.1399,-2.1399,-2.1399,0.0,0.0,0.0,0.0,0.0,0.0,-2.1568,0.0,-2.1712,-2.2114,-2.1973,-2.1864,-2.2137,-2.1973,-2.1902,-2.2161,-2.2184,-2.2184,-2.2184,-2.2586,-2.2889,-2.2889,-2.329,-2.3573,-2.361,-2.361,-2.3595,-2.3595,-2.3595,-2.3595,-2.3595,-2.2383,-2.1192,-2.0048,-1.9884,-1.9904,-2.01,-2.01,-2.0115,-2.0146,-2.0335,-2.0488,-2.0573,-2.0419,-2.0685,-2.1246,-2.1176,-2.1544,-2.2263,-2.2959,-2.3018,-2.2639,-2.3103,-2.3286,-2.3399,-2.4025,-2.4302,-2.4425,0.0,0.0,0.0,0.0,0.0,0.0,-2.1011,-2.1082,-2.0967,0.0,0.0,0.0,-2.0805,-2.0712,-2.0712,-2.0712,-2.0578,-2.0494,-2.046,-2.039,-2.0148,-1.9726,-1.9584,-1.9399,-1.9164,-1.9061,-1.8863,-1.8541,-1.8683,-1.8544,-1.8147,-1.8316,-1.8524,0.0,-1.8815,-1.9013,-1.9291,-1.9521,0.0,-2.0791,-2.1401,-2.2022,0.0,0.0,0.0,0.0,0.0,-2.1996,-2.1746,0.0,-2.1399,-2.1399,0.0,0.0,0.0,-2.1399,-2.1399,-2.1399,-2.1399,0.0,0.0,0.0,0.0,0.0,-2.1447,0.0,-2.1496,-2.1616,-2.164,-2.1688,-2.1746,-2.1769,-2.1817,-2.1902,-2.1926,-2.1926,-2.1926,-2.2194,-2.2486,-2.2669,-2.2926,-2.3201,-2.3494,-2.3538,-2.356,-2.361,-2.3595,-2.3595,-2.3595,-2.2383,-2.1403,-2.0749,-2.0212,-1.9975,-2.01,-2.0202,-2.0498,-2.0975,-2.1171,-2.1577,-2.2167,-2.2131,-2.2204,-2.2358,-2.225,-2.2152,-2.2079,-2.2437,-2.2604,-2.2599,-2.2578,-2.2968,-2.3514,-2.3562,-2.4313,-2.5315,0.0,0.0,0.0,0.0,0.0,-2.1665,-2.1381,-2.1292,-2.1178,0.0,0.0,0.0,-2.123,-2.0834,-2.0611,-2.0595,-2.0477,-2.0424,-2.0424,-2.034,-2.0115,-1.9726,-1.9545,-1.9317,-1.9023,-1.8984,-1.8785,-1.8418,-1.8724,-1.8544,-1.7902,-1.8069,-1.8214,-1.8313,0.0,0.0,0.0,0.0,0.0,0.0,-2.1632,0.0,0.0,-2.3062,-2.2971,0.0,0.0,0.0,-2.1746,-2.1496,-2.1399,0.0,0.0,0.0,-2.1399,-2.1399,-2.1399,-2.1399,0.0,0.0,0.0,0.0,0.0,0.0,-2.1399,-2.1399,-2.1423,0.0,-2.1544,-2.1544,-2.1664,-2.1664,-2.164,-2.164,-2.164,-2.1688,-2.1769,-2.2044,-2.2301,-2.2555,-2.2791,-2.3038,-2.3385,-2.3422,-2.3451,-2.3545,-2.3545,-2.3447,-2.3236,-2.2248,-2.1458,-2.0933,-2.0318,-2.0061,-2.0185,-2.0321,-2.0748,-2.1466,-2.1328,-2.1827,-2.2841,-2.2467,-2.2462,-2.2697,-2.2308,-2.2003,-2.1799,-2.1717,-2.1746,-2.1898,-2.2257,-2.2742,-2.3238,-2.3597,-2.457,-2.5664,0.0,0.0,-2.4188,-2.3235,-2.2748,-2.227,-2.1597,-2.1294,-2.1241,0.0,-2.1672,-2.172,-2.161,-2.0895,-2.0388,-2.0321,-2.0321,-2.0304,-2.0304,-2.0304,-2.0148,-1.978,-1.938,-1.9017,-1.8657,-1.8851,-1.8631,-1.7997,-1.894,-1.8899,-1.7902,-1.8274,-1.8254,-1.7922,0.0,0.0,0.0,0.0,0.0,-2.0323,-2.1967,-2.2527,0.0,0.0,-2.2957,-2.2663,-2.2217,-2.1949,-2.1746,-2.1496,-2.1399,0.0,0.0,-2.1399,-2.1399,-2.1399,-2.1399,0.0,0.0,0.0,0.0,-2.1399,-2.1399,0.0,-2.1399,-2.1399,-2.1471,0.0,-2.1568,-2.1471,-2.1712,-2.1568,-2.1399,-2.1399,-2.1399,-2.1496,-2.1722,-2.1973,-2.2208,-2.2486,-2.27,-2.2926,-2.3194,-2.3253,-2.3319,-2.3466,-2.3487,-2.3299,-2.2838,-2.2179,-2.1544,-2.0945,-2.0406,-2.0187,-2.0304,-2.0441,-2.0935,-2.1821,-2.1281,-2.1775,-2.3104,-2.2243,-2.2233,-2.283,-2.2012,-2.1697,-2.1713,-2.1203,-2.0921,-2.0981,-2.2097,-2.2605,-2.2855,-2.3869,-2.4901,-2.5794,0.0,0.0,-2.4264,-2.4059,-2.3545,-2.2894,-2.2219,-2.2075,-2.1732,-2.0838,-2.0848,-2.11,-2.1559,-2.093,-2.0477,-2.046,-2.0407,-2.0388,-2.0388,-2.0321,-2.027,-2.02,-1.9797,-1.9616,-1.9704,-1.9749,-1.9387,-1.8608,-1.9148,-1.8899,-1.7902,-1.7983,-1.7983,-1.7922,0.0,0.0,0.0,0.0,0.0,-2.0657,-2.1386,-2.2295,-2.3259,-2.3253,-2.3083,-2.2799,-2.2449,-2.2114,-2.1746,-2.1496,-2.1399,-2.1399,0.0,-2.1399,-2.1399,-2.1399,-2.1399,0.0,0.0,0.0,0.0,-2.1399,-2.1399,0.0,-2.1399,-2.1399,-2.1423,-2.1471,-2.1447,-2.1423,-2.1471,-2.1447,-2.1399,-2.1399,-2.1399,-2.1423,-2.1471,-2.152,-2.1664,-2.1926,-2.217,-2.2472,-2.2799,-2.3008,-2.3179,-2.3319,-2.3444,-2.3471,-2.343,-2.2853,-2.2274,-2.1773,-2.1125,-2.0678,-2.0371,-2.046,-2.1186,-2.258,-2.2512,-2.323,-2.4559,-2.3806,-2.385,-2.4472,-2.3249,-2.2975,-2.3361,-2.2395,-2.175,-2.142,-2.186,-2.2704,-2.3661,-2.3713,-2.5003,-2.6696,0.0,-2.5198,-2.5063,-2.4659,-2.4194,-2.3579,-2.272,-2.2329,-2.1914,-2.1361,-2.1212,-2.1235,-2.1455,-2.0862,-2.0441,-2.0392,-2.0373,-2.0354,-2.0354,-2.0321,-2.0304,-2.0304,-1.9904,-1.9748,-1.9851,-1.9469,-1.9157,-1.8953,-1.8953,-1.8685,-1.8195,-1.8195,-1.8149,-1.8049,-1.8397,0.0,0.0,0.0,-2.0117,-2.0991,-2.1554,0.0,-2.3005,-2.3223,-2.3216,-2.3038,-2.2578,-2.2114,-2.1688,-2.1471,-2.1399,0.0,-2.1399,-2.1399,-2.1399,-2.1399,-2.1399,-2.1399,-2.1399,-2.1399,-2.1399,-2.1399,-2.1399,0.0,0.0,-2.1399,-2.1399,-2.1399,-2.1399,-2.1375,-2.1302,-2.1302,-2.1277,-2.1204,-2.1375,-2.1496,-2.1496,-2.1568,-2.1746,-2.2161,-2.2324,-2.2509,-2.2768,-2.291,-2.306,-2.3179,-2.34,-2.3494,-2.356,-2.3005,-2.262,-2.2415,-2.1846,-2.1513,-2.1445,-2.1572,-2.2214,-2.3327,-2.3035,-2.3641,-2.4954,-2.3819,-2.3894,-2.4823,-2.3459,-2.3204,-2.3721,-2.253,-2.2248,-2.254,-2.2395,-2.2787,-2.3449,-2.3811,-2.5248,-2.6834,-2.607,0.0,-2.5781,-2.5137,-2.466,-2.408,-2.3142,-2.2423,-2.198,-2.1969,-2.1793,-2.1612,-2.1508,-2.0936,-2.0601,-2.069,-2.0582,-2.0551,-2.069,-2.0549,-2.0533,-2.0619,-1.9969,-1.9608,-1.9705,-1.8955,-1.866,-1.8874,-1.866,-1.8489,-1.8378,-1.8378,-1.8293,-1.8143,-1.8413,0.0,0.0,0.0,0.0,-2.1269,0.0,-2.243,-2.2717,-2.3171,-2.3319,-2.3187,-2.2578,-2.2044,-2.1592,-2.1447,-2.1399,-2.1399,-2.1399,-2.1399,-2.1399,-2.1399,-2.1399,-2.1399,-2.1399,-2.1399,-2.1399,-2.1399,-2.1399,-2.1399,0.0,0.0,0.0,-2.135,-2.135,-2.1302,-2.118,-2.1155,-2.1131,-2.1008,-2.1277,-2.1496,-2.1544,-2.1664,-2.1926,-2.2463,-2.2555,-2.2661,-2.282,-2.2865,-2.297,-2.3082,-2.3312,-2.3466,-2.3509,-2.3088,-2.287,-2.2863,-2.2493,-2.2371,-2.2562,-2.271,-2.3169,-2.3888,-2.3354,-2.3768,-2.4938,-2.3563,-2.3598,-2.4739,-2.3469,-2.3277,-2.3772,-2.2647,-2.2731,-2.3499,-2.3004,-2.2986,-2.3327,-2.4183,-2.5486,-2.6663,-2.5726,-2.5577,0.0,-2.5446,-2.4846,-2.4152,-2.3442,-2.2715,-2.207,-2.155,-2.1711,-2.1857,-2.184,-2.1461,-2.1427,0.0,-2.1535,-2.1442,-2.2043,-2.1519,-2.1366,-2.1793,-2.0112,-1.9343,-1.9697,-1.91,-1.8522,-1.8043,-1.8522,-1.8488,-1.7983,-1.7983,-1.7963,-1.799,-1.9185,0.0,0.0,0.0,-2.1441,0.0,-2.2211,-2.281,0.0,-2.3414,-2.3319,-2.3038,-2.2426,-2.1949,-2.1592,-2.1447,-2.1399,-2.1399,-2.1399,-2.1399,-2.1399,-2.1399,-2.1399,-2.1399,-2.1399,-2.1399,-2.1399,-2.1399,-2.1399,-2.1399,-2.1399,0.0,-2.1229,-2.1229,0.0,-2.1033,-2.1033,0.0,0.0,-2.0997,-2.1033,-2.1155,-2.1399,-2.1447,-2.164,-2.2184,-2.2463,-2.2615,-2.2638,-2.2797,-2.297,-2.3082,-2.3246,-2.3363,-2.3487,-2.3507,-2.3369,-2.3082,-2.3015,-2.2925,-2.2781,-2.2784,-2.3169,-2.3904,-2.3825,-2.4207,-2.4954,-2.4141,-2.4146,-2.4755,-2.4067,-2.4014,-2.4373,-2.3868,-2.3518,-2.3304,-2.3001,-2.351,-2.4454,-2.4929,-2.5641,-2.6325,-2.5962,-2.5854,0.0,-2.554,-2.5241,-2.4731,-2.3816,-2.3096,-2.249,-2.2037,-2.2256,-2.2494,-2.2494,0.0,0.0,0.0,0.0,-2.2012,-2.227,-2.1673,-2.1559,-2.2156,-2.0752,-2.0076,-2.0284,-1.9539,-1.898,-1.8586,-1.8623,-1.8504,-1.8254,-1.8254,-1.8189,-1.811,-1.902,0.0,-1.9541,0.0,-2.1469,0.0,0.0,-2.2585,0.0,-2.3297,-2.3142,-2.276,-2.2263,-2.1864,-2.1592,-2.1447,-2.1399,-2.1399,-2.1399,-2.1399,-2.1399,-2.1399,-2.1399,-2.1399,-2.1399,-2.1399,-2.1399,-2.1399,-2.1399,-2.1375,-2.1302,-2.1229,-2.118,-2.1106,0.0,0.0,0.0,0.0,0.0,0.0,-2.0997,-2.1155,-2.1277,-2.1496,-2.1722,-2.2067,-2.2184,-2.2347,-2.2578,-2.2775,-2.2925,-2.2992,-2.3179,-2.3319,-2.3385,-2.3668,-2.3851,-2.3856,-2.3932,-2.4013,-2.4135,-2.4112,-2.4235,-2.4523,-2.4523,-2.4701,-2.497,-2.4197,-2.4182,-2.4771,-2.3971,-2.3966,-2.4451,-2.3818,-2.3692,-2.383,-2.3328,-2.3499,-2.4075,-2.4518,-2.5127,-2.5667,-2.6315,0.0,0.0,0.0,-2.5653,-2.5201,-2.4215,-2.3646,-2.3152,-2.2621,-2.2985,-2.3199,-2.29,-2.2689,0.0,0.0,-2.2671,-2.2544,-2.2486,-2.2026,-2.1923,-2.228,-2.1334,-2.0871,-2.105,-1.9993,-1.9353,-1.9214,-1.872,-1.85,-1.85,-1.85,-1.8417,-1.8315,0.0,-1.9409,-1.9969,0.0,-2.1469,-2.2211,-2.2243,-2.2504,-2.2925,-2.3157,-2.2941,-2.2509,-2.2208,-2.1864,-2.1544,-2.1423,-2.1399,-2.1399,-2.1399,-2.1399,-2.1399,-2.1399,-2.1399,-2.1399,-2.1399,-2.1399,-2.1399,-2.1399,-2.1375,-2.1326,-2.1229,-2.1169,-2.1095,-2.0997,-2.0947,0.0,0.0,0.0,-2.08,-2.0712,0.0,-2.1057,-2.1057,-2.1302,-2.1616,-2.1926,-2.1996,-2.2114,-2.2417,-2.2684,-2.282,-2.282,-2.309,-2.3297,-2.3429,-2.3818,-2.4183,-2.4578,-2.4655,-2.4835,-2.5146,-2.5064,-2.5005,-2.5005,-2.5005,-2.5005,-2.497,-2.4363,-2.4331,-2.471,-2.4,-2.3982,-2.439,-2.3799,-2.3871,-2.4256,-2.3763,-2.3643,-2.3856,-2.4291,-2.4759,-2.5166,-2.6674,-2.6674,0.0,0.0,-2.6083,-2.534,-2.4611,-2.4458,-2.4064,-2.3018,-2.3748,0.0,0.0,0.0,0.0,0.0,0.0,-2.3191,-2.2991,-2.2955,-2.2736,-2.2315,-2.1645,-2.1483,-2.1959,-2.0341,-1.9496,-1.9482,-1.8815,-1.85,-1.85,-1.85,-1.85,-1.8523,-1.8925,-1.9251,-1.9616,-2.1069,-2.1794,-2.2069,-2.2635,-2.2873,-2.2925,-2.306,-2.282,-2.2394,-2.2394,-2.1973,-2.1423,-2.1399,-2.1399,-2.1399,-2.1399,-2.1399,-2.1399,-2.1399,-2.1399,-2.1399,-2.1399,-2.1399,-2.1399,-2.1399,-2.1302,-2.1204,-2.1204,-2.1035,-2.0926,-2.0888,-2.08,-2.0699,-2.0712,-2.0712,-2.0712,-2.0699,-2.0699,0.0,0.0,-2.0724,-2.0997,-2.1722,-2.1926,-2.202,-2.202,-2.237,-2.2615,-2.2615,-2.2925,-2.329,-2.3775,-2.3973,-2.4395,-2.5068,-2.4958,-2.5017,-2.5294,-2.51,-2.5005,-2.5005,-2.5005,-2.5005,-2.4985,-2.4831,-2.471,-2.4609,-2.4508,-2.4405,-2.4302,-2.4287,-2.4287,-2.4302,-2.4287,-2.4271,-2.4343,-2.4724,-2.4887,-2.488,0.0,0.0,0.0,0.0,0.0,0.0,-2.5338,-2.4994,-2.4863,-2.4943,-2.5204,-2.5255,0.0,-2.4715,-2.4548,-2.4333,-2.3978,-2.3716,-2.3669,-2.3085,-2.2858,-2.3144,-2.2217,-2.1877,-2.226,-2.1362,-2.0562,-1.9906,-1.967,-1.9198,-1.85,-1.8765,-1.8765,-1.8528,-1.9471,-2.0287,0.0,0.0,0.0,0.0,0.0,-2.282,-2.2706,-2.2752,-2.2684,-2.2486,-2.2137,-2.1864,-2.164,-2.1471,-2.1399,-2.1399,-2.1399,-2.1399,-2.1399,-2.1399,-2.1399,-2.1399,-2.1399,-2.1399,-2.1375,-2.1302,-2.1229,-2.1169,-2.1035,-2.0962,-2.0863,-2.08,-2.0737,-2.0699,-2.0699,-2.0699,-2.0699,-2.0699,-2.0699,-2.0699,0.0,-2.0699,-2.0799,-2.1033,-2.1399,-2.164,-2.1722,-2.1796,-2.2022,-2.2549,-2.2533,-2.2891,-2.3745,-2.4126,-2.4603,-2.5282,-2.5343,-2.5416,-2.5508,-2.5298,-2.5123,-2.5005,-2.4906,-2.4862,-2.4862,-2.4681,-2.458,-2.4539,-2.4421,-2.4338,-2.4302,-2.4302,-2.4302,-2.4302,-2.4302,-2.4302,-2.4312,-2.4459,-2.4423,-2.4373,-2.6691,0.0,0.0,0.0,0.0,0.0,-2.5663,-2.5339,-2.5209,-2.5243,-2.5623,-2.5653,-2.5044,-2.5159,-2.4998,-2.4259,-2.4067,-2.3834,-2.3423,-2.3044,-2.2886,-2.303,-2.2622,-2.2512,-2.272,-2.1982,-2.1391,-2.0909,-2.0197,-1.9586,-1.9073,-1.8941,-1.8745,-1.8528,-1.9387,-2.0398,-2.1515,-2.1896,-2.2656,0.0,0.0,-2.2775,0.0,-2.2615,-2.2486,-2.2249,-2.1792,-2.1637,-2.1599,-2.1227,-2.1223,-2.1399,-2.1399,-2.1399,-2.1399,-2.1399,-2.1399,-2.1399,-2.1399,-2.1399,-2.1375,-2.1229,-2.1155,-2.1095,-2.0938,-2.0863,-2.0878,-2.1025,-2.0868,-2.0789,-2.1062,-2.0893,-2.0712,-2.0762,-2.0737,-2.0699,0.0,-2.0699,-2.0699,-2.0699,-2.0997,-2.1315,-2.152,-2.1495,-2.1817,-2.2626,-2.2541,-2.2912,-2.3915,-2.4359,-2.4863,-2.5454,-2.5605,-2.5715,-2.5715,-2.5394,-2.5162,-2.5029,-2.4882,-2.4782,-2.4726,-2.4584,-2.4523,-2.4498,-2.4359,-2.4302,-2.4302,-2.4302,-2.4302,-2.4302,-2.4302,-2.4302,-2.4333,-2.4579,-2.4466,-2.4264,-2.6691,-2.6691,0.0,0.0,-2.635,0.0,0.0,-2.5516,-2.5156,-2.4189,-2.5151,-2.5299,-2.3619,-2.4543,-2.4955,-2.4085,-2.4003,-2.3519,-2.2433,-2.2936,-2.2922,-2.2077,-2.282,-2.3275,-2.3297,-2.2228,-2.1932,-2.2422,-2.0489,-1.9746,-2.0127,-1.9068,-1.859,-1.8607,-1.8776,0.0,-2.1193,-2.1499,-2.2382,-2.3566,-2.3098,-2.2797,-2.2615,-2.2615,-2.2249,-2.173,-2.1442,-2.1356,-2.1328,-2.0748,-2.0938,-2.1399,-2.1399,-2.1399,-2.1399,-2.1399,-2.1399,-2.1399,-2.1399,-2.1399,-2.1375,-2.1229,-2.1082,-2.0972,-2.0913,-2.08,-2.0881,-2.1535,-2.1181,-2.0984,-2.1714,-2.1244,-2.0776,-2.0863,-2.0775,-2.0699,-2.0699,-2.0699,-2.0699,-2.0699,-2.0799,-2.0997,-2.135,-2.1465,-2.1889,-2.2785,-2.286,-2.3304,-2.4261,-2.469,-2.5127,-2.5567,-2.5789,-2.5879,-2.5862,-2.5378,-2.5127,-2.5072,-2.4886,-2.4726,-2.4589,-2.4589,-2.4564,-2.4477,-2.4359,-2.4302,-2.4302,-2.4302,-2.4302,-2.4302,-2.4302,-2.4297,-2.442,-2.5019,-2.4967,-2.456,-2.6691,-2.6691,-2.6607,0.0,-2.6175,-2.5962,-2.5559,-2.5666,-2.5905,-2.6182,-2.6227,-2.6096,-2.5648,-2.5426,-2.4998,-2.428,-2.3888,-2.3578,-2.3284,-2.3098,-2.2905,-2.2678,-2.2733,-2.2941,-2.3297,-2.2819,-2.2666,-2.2838,-2.1928,-2.1247,-2.0762,-1.9984,-1.9701,-1.9831,0.0,-2.0532,-2.1917,-2.2015,-2.2555,-2.3385,-2.3253,-2.2963,-2.2615,-2.2775,-2.2201,-2.1379,-2.1602,-2.1693,-2.1636,-2.1295,-2.1263,-2.1399,-2.1399,-2.1399,-2.1399,-2.1399,-2.1399,-2.1399,-2.1399,-2.1399,-2.135,-2.1106,-2.1033,-2.0947,-2.0787,-2.0712,-2.0776,-2.1047,-2.1285,-2.1377,-2.1202,-2.131,-2.1299,-2.0828,-2.0712,-2.0699,-2.0699,-2.0699,-2.0699,-2.0699,-2.0479,-2.0497,-2.0983,-2.0613,-2.094,-2.2349,-2.2498,-2.3037,-2.4245,-2.4953,-2.5375,-2.5451,-2.5586,-2.5602,-2.5467,-2.5467,-2.522,-2.4731,-2.4886,-2.4786,-2.4539,-2.4539,-2.4462,-2.4359,-2.4302,-2.4302,-2.4302,-2.4302,-2.4302,-2.4302,-2.4302,-2.4505,-2.4789,-2.4454,-2.4435,-2.4567,-2.6691,-2.6691,0.0,-2.6175,-2.6208,-2.6143,-2.5741,-2.5404,-2.5446,-2.6164,-2.6335,-2.6187,-2.5549,-2.5619,-2.5277,-2.4106,-2.376,-2.3508,-2.3319,-2.3045,-2.2888,-2.2888,-2.2706,-2.276,-2.3135,-2.2768,-2.2715,-2.295,-2.2062,-2.132,-2.0718,-1.9863,-1.9537,-1.9626,0.0,-2.0207,-2.1455,-2.1908,-2.262,-2.3414,-2.3209,-2.2918,0.0,-2.2729,-2.2295,-2.1661,-2.1754,-2.1641,-2.1374,-2.1219,-2.1278,-2.1399,-2.1399,-2.1399,-2.1399,-2.1399,-2.1399,-2.1399,-2.1399,-2.135,-2.1253,-2.1033,-2.0972,-2.0911,-2.0737,-2.0699,-2.0828,-2.1242,-2.1348,-2.1374,-2.1484,-2.1673,-2.1652,-2.1208,-2.0894,-2.0699,-2.0699,-2.0737,-2.0775,-2.0712,-2.0547,-2.0543,-2.0799,-2.0338,-2.0756,-2.2517,-2.2819,-2.3342,-2.4245,-2.5144,-2.5482,-2.5143,-2.5323,-2.5362,-2.5262,-2.5243,-2.5107,-2.4831,-2.4786,-2.4686,-2.4544,-2.4518,-2.4421,-2.4302,-2.4302,-2.4302,-2.4302,-2.4302,-2.4302,-2.4302,-2.4302,-2.4422,-2.4498,-2.3997,-2.4109,-2.4401,-2.6691,-2.6776,0.0,0.0,0.0,-2.6406,-2.6077,-2.5285,-2.4918,-2.5496,-2.6041,-2.5918,-2.4718,-2.5428,-2.536,-2.3786,-2.361,-2.3392,-2.2978,-2.2925,-2.2888,-2.2888,-2.2684,-2.2661,-2.2888,-2.244,-2.2426,-2.2889,-2.1682,-2.0938,-2.0612,-1.9539,-1.9057,0.0,0.0,0.0,0.0,-2.1779,-2.2773,-2.3551,-2.3164,-2.2865,-2.2638,-2.2615,-2.2397,-2.2095,-2.1921,-2.1476,-2.1015,-2.0988,-2.1154,-2.1399,-2.1399,-2.1399,-2.1399,-2.1399,-2.1399,-2.1399,-2.1399,-2.1302,-2.118,-2.1033,-2.0949,-2.0863,-2.0737,-2.0699,-2.0893,-2.1622,-2.1385,-2.1276,-2.199,-2.1944,-2.1767,-2.1719,-2.1233,-2.0841,-2.0737,-2.0916,-2.0967,-2.0762,-2.0858,0.0,-2.0823,-2.0507,-2.1109,-2.3023,-2.3533,-2.3967,-2.442,-2.5347,-2.5514,-2.4806,-2.4997,-2.5114,-2.5114,-2.4934,-2.4875,-2.4993,-2.4686,-2.4544,-2.4549,-2.4523,-2.4421,-2.4302,-2.4302,-2.4302,-2.4302,-2.4302,-2.4302,-2.4302,-2.4261,-2.4114,-2.3903,-2.3653,-2.3792,-2.3996,-2.6691,0.0,0.0,0.0,0.0,-2.6567,-2.6772,-2.6841,-2.6903,-2.7026,-2.6603,-2.6234,-2.6041,-2.5059,-2.4283,-2.3955,-2.3581,-2.3319,-2.3231,-2.3023,-2.2888,-2.2888,-2.2486,-2.2463,-2.2888,-2.244,-2.2426,-2.2889,-2.2266,-2.1936,-2.187,-2.0731,-2.0464,0.0,0.0,0.0,-2.1794,-2.3097,0.0,-2.3595,-2.3523,-2.3216,-2.282,-2.2661,-2.2241,-2.1743,-2.2025,-2.1927,-2.1608,-2.138,-2.1352,-2.1399,-2.1399,-2.1399,-2.1399,-2.1399,-2.1399,-2.1399,-2.1399,-2.1302,-2.118,-2.1033,-2.0949,-2.0863,-2.0737,-2.0699,-2.0763,-2.1007,-2.1425,-2.162,-2.1284,-2.1193,-2.1302,-2.1781,-2.1781,-2.1516,-2.1014,-2.1409,-2.1542,-2.1,-2.1013,-2.1162,-2.1417,-2.1084,-2.1566,-2.3301,-2.42,-2.4809,-2.5112,-2.5823,-2.5731,-2.4677,-2.469,-2.471,-2.471,-2.4886,-2.4791,-2.4446,-2.4645,-2.4605,-2.4359,-2.4441,-2.4421,-2.4302,-2.4302,-2.4302,-2.4302,-2.4302,-2.4302,-2.4281,-2.413,-2.3903,-2.3653,-2.3436,-2.323,-2.3031,-2.7199,0.0,0.0,0.0,-2.6921,-2.7194,-2.7571,-2.7508,-2.7272,-2.6919,-2.6565,-2.6087,-2.5379,-2.4832,-2.4303,-2.3848,-2.3494,-2.3231,-2.3112,-2.2978,-2.2888,-2.2888,-2.244,-2.2417,-2.2888,-2.244,-2.2278,-2.2434,-2.2278,-2.1992,-2.1624,-2.1148,-2.1084,-2.1333,0.0,-2.1196,0.0,0.0,-2.3417,-2.3797,-2.3674,-2.3392,-2.3112,-2.3008,-2.2685,-2.2246,-2.1971,-2.1798,-2.168,-2.1625,-2.152,-2.1399,-2.1399,-2.1399,-2.1399,-2.1399,-2.135,-2.1302,-2.1302,-2.1169,-2.1035,-2.0974,-2.0875,-2.0775,-2.0699,-2.0699,-2.0737,-2.0863,-2.1186,-2.1484,-2.1622,-2.1611,-2.168,-2.1961,-2.1963,-2.1673,-2.1063,-2.1297,-2.1427,-2.1146,-2.0918,-2.1015,-2.1643,-2.148,-2.1888,-2.3252,-2.4148,-2.4692,-2.4768,-2.5742,-2.5725,-2.4472,-2.4446,-2.4446,-2.4446,-2.4569,-2.4569,-2.4467,-2.4523,-2.4523,-2.4446,-2.4421,-2.4359,-2.4302,-2.4302,-2.4302,-2.4302,-2.4302,-2.4302,-2.4281,-2.4177,-2.3888,-2.3486,-2.3377,-2.3031,-2.2606,-2.7674,-2.7424,0.0,0.0,-2.749,-2.7758,-2.7984,-2.779,-2.7365,-2.6688,-2.6349,-2.5733,-2.4641,-2.4637,-2.4398,-2.3661,-2.3348,-2.3135,-2.291,-2.2888,-2.2865,-2.2843,-2.2417,-2.237,-2.2752,-2.2394,-2.2067,-2.1825,-2.2161,-2.193,-2.1212,-2.1473,-2.1541,-2.1472,-2.1674,-2.2142,-2.2699,-2.2766,-2.3266,-2.3982,-2.3717,-2.348,-2.3297,-2.3187,-2.3008,-2.2711,-2.1833,-2.1516,-2.1506,-2.1435,-2.1303,-2.1189,-2.124,-2.1257,-2.126,-2.131,-2.1229,-2.1155,-2.1155,-2.1035,-2.0901,-2.0901,-2.08,-2.0699,-2.0699,-2.0699,-2.0737,-2.0838,-2.0936,-2.1269,-2.2096,-2.2096,-2.198,-2.2115,-2.2052,-2.1775,-2.1162,-2.1287,-2.1347,-2.1067,-2.0968,-2.1079,-2.1463,-2.1724,-2.2214,-2.298,-2.3985,-2.4595,-2.4743,-2.5865,-2.5973,-2.4779,-2.4748,-2.4748,-2.4733,-2.4441,-2.4385,-2.4528,-2.4364,-2.4385,-2.4528,-2.4364,-2.4302,-2.4302,-2.4302,-2.4302,-2.4302,-2.4302,-2.4302,-2.4281,-2.4219,-2.3873,-2.3384,-2.3319,-2.2912,-2.2417,0.0,0.0,0.0,-2.719,-2.7553,-2.7843,-2.7504,-2.7966,-2.8073,-2.7396,-2.6211,-2.5342,-2.5219,-2.4319,-2.3691,-2.361,-2.3187,-2.2925,-2.2888,-2.2888,-2.282,-2.2638,-2.2347,-2.2231,-2.2254,-2.2231,-2.1917,-2.1274,-2.2209,-2.228,-2.1574,-2.2251,-2.2342,-2.1975,-2.2957,-2.3133,-2.275,-2.3722,-2.4053,-2.3982,-2.3717,-2.348,-2.3253,-2.2828,-2.2646,-2.2506,-2.1572,-2.1249,-2.112,-2.0396,-2.0273,-2.0436,-2.0699,-2.0785,-2.0788,-2.0984,-2.1033,-2.1008,-2.1008,-2.0974,-2.0901,-2.0901,-2.08,-2.0699,-2.0699,-2.0699,-2.0699,-2.0712,-2.0873,-2.1244,-2.197,-2.1772,-2.1656,-2.2185,-2.228,-2.2051,-2.1456,-2.1835,-2.1792,-2.0698,-2.1602,-2.1832,-2.0646,-2.1878,-2.2717,-2.2574,-2.4046,-2.5316,-2.6164,-2.6903,-2.6965,-2.6248,-2.6195,-2.6164,-2.6111,-2.4896,-2.4302,-2.4323,-2.4302,-2.4302,-2.4323,-2.4302,-2.4302,-2.4302,-2.4302,-2.4302,-2.4302,-2.4302,-2.4302,-2.4261,-2.3967,-2.3659,-2.3363,-2.3068,-2.2709,-2.2394,-2.8188,-2.8128,-2.7975,-2.7751,-2.7867,-2.8018,-2.8108,-2.7566,-2.7034,-2.6757,-2.6287,-2.5641,-2.4773,-2.404,-2.3595,-2.3595,-2.3164,-2.2888,-2.2888,-2.2888,-2.2865,-2.2775,-2.2555,-2.244,-2.244,-2.244,-2.2004,-2.1077,-2.2167,-2.2377,-2.1816,-2.2703,-2.3207,-2.3405,-2.3518,-2.3631,-2.3691,-2.4132,-2.4177,-2.3982,-2.3882,-2.3625,-2.3231,-2.2637,-2.233,-2.2083,-2.0954,-2.047,-2.0245,-1.9512,-1.9649,-2.0105,-2.0021,-1.9976,-2.0052,-2.0411,-2.0465,-2.0486,-2.0843,-2.085,-2.08,-2.0888,-2.0863,-2.0825,-2.0873,-2.0837,-2.0825,-2.0825,-2.0911,-2.1137,-2.1612,-2.1821,-2.1912,-2.1765,-2.2074,-2.2101,-2.148,-2.1602,-2.1561,-2.1006,-2.1078,-2.1118,-2.0957,-2.1943,-2.2794,-2.3248,-2.447,-2.5334,-2.5654,-2.6388,-2.6857,-2.6995,-2.578,-2.5518,-2.6296,-2.4958,-2.4302,-2.4302,-2.4302,-2.4302,-2.4302,-2.4302,-2.4302,-2.4302,-2.4302,-2.4302,-2.4302,-2.4302,-2.4302,-2.4281,-2.4109,-2.3754,-2.3326,-2.3105,-2.27,-2.2278,-2.8348,-2.8128,-2.7926,-2.821,-2.8191,-2.8147,-2.8232,-2.7304,-2.6465,-2.6065,-2.6057,-2.5626,-2.4441,-2.3888,-2.3595,-2.3595,-2.3164,-2.2888,-2.2888,-2.2888,-2.2865,-2.2797,-2.2684,-2.2532,-2.237,-2.2509,-2.1988,-2.0737,-2.2141,-2.2446,-2.1783,-2.3041,-2.3867,-2.4297,-2.3952,-2.3994,-2.4297,-2.424,-2.413,-2.3967,-2.3643,-2.3298,-2.2943,-2.2195,-2.1833,-2.1554,-2.0494,-1.9969,-1.9689,-1.8954,-1.9045,-1.9458,-1.9298,-1.9265,-1.9382,-1.9917,-2.0014,-2.0075,-2.0667,-2.0837,-2.0861,-2.0888,-2.0987,-2.1073,-2.112,-2.1084,-2.1073,-2.1146,-2.1169,-2.1253,-2.1544,-2.1836,-2.1936,-2.1574,-2.1825,-2.1898,-2.1453,-2.1399,-2.1336,-2.1192,-2.1032,-2.1005,-2.117,-2.1975,-2.2742,-2.3338,-2.4485,-2.5175,-2.5205,-2.615,-2.6811,-2.7088,-2.5672,-2.5327,-2.6296,-2.4958,-2.4302,-2.4302,-2.4302,-2.4302,-2.4302,-2.4302,-2.4302,-2.4302,-2.4302,-2.4302,-2.4302,-2.4302,-2.4297,-2.4255,-2.4024,-2.3661,-2.3194,-2.2926,-2.2563,-2.2208,-2.8005,-2.821,-2.8381,-2.8396,-2.8396,-2.8165,-2.7503,-2.7396,-2.6888,-2.5481,-2.5312,-2.505,-2.4379,-2.3888,-2.3595,-2.3595,-2.3164,-2.2888,-2.2888,-2.2888,-2.2797,-2.2615,-2.2615,-2.2347,-2.1817,-2.2324,-2.1784,-2.012,-2.2111,-2.2512,-2.1449,-2.3313,-2.4229,-2.4302,-2.4281,-2.4281,-2.4297,-2.4088,-2.4003,-2.39,-2.2774,-2.2317,-2.2222,-2.1353,-2.1003,-2.093,-2.032,-1.9969,-1.9669,-1.8807,-1.8394,-1.8287,-1.8623,-1.8702,-1.886,-1.9601,-1.9799,-1.993,-2.0555,-2.0947,-2.1144,-2.0962,-2.1158,-2.1399,-2.1399,-2.1399,-2.1471,-2.1722,-2.1688,-2.1688,-2.1949,-2.1664,-2.1496,-2.1746,-2.1592,-2.1399,-2.1399,-2.1399,-2.1325,-2.1138,-2.19,-2.2042,-2.1,-2.1996,-2.2605,-2.2437,-2.3901,-2.4925,-2.5197,-2.6596,-2.7088,-2.6426,-2.6311,-2.628,-2.6296,-2.4958,-2.4302,-2.4302,-2.4302,-2.4302,-2.4302,-2.4302,-2.4302,-2.4302,-2.4302,-2.4302,-2.4302,-2.4302,-2.4255,-2.4145,-2.3538,-2.3231,-2.3038,-2.2426,-2.2208,-2.2208,-2.7358,-2.7905,-2.8411,-2.8411,-2.8411,-2.8181,-2.7503,-2.7011,-2.638,-2.5419,-2.4896,-2.4548,-2.4333,-2.3888,-2.3595,-2.3595,-2.279,-2.2294,-2.2294,-2.1873,-2.157,-2.1506,-2.1327,-2.1066,-2.0712,-2.1178,-2.1019,-2.0172,-2.1949,-2.29,-2.3053,-2.3643,-2.4003,-2.4094,-2.3636,-2.3402,-2.3371,-2.2717,-2.2395,-2.2258,-2.1748,-2.1495,-2.1339,-2.0666,-2.0298,-2.0091,-1.9444,-1.8995,-1.8665,-1.8391,-1.8163,-1.803,-1.816,-1.8072,-1.8005,-1.8667,-1.8781,-1.8841,-1.9446,-2.014,-2.0732,-2.0685,-2.1267,-2.1817,-2.1926,-2.1864,-2.1817,-2.1926,-2.1902,-2.1926,-2.2114,-2.2044,-2.1973,-2.2067,-2.1841,-2.1688,-2.1688,-2.1688,-2.1572,-2.1341,-2.1769,-2.1895,-2.1357,-2.2527,-2.3289,-2.321,-2.5468,-2.6309,-2.5126,-2.6038,-2.6742,-2.7072,-2.5687,-2.541,-2.6364,-2.4995,-2.4302,-2.4302,-2.4302,-2.4302,-2.4302,-2.4302,-2.4302,-2.4302,-2.4302,-2.4302,-2.4302,-2.4302,-2.4135,-2.3903,-2.361,-2.3224,-2.2799,-2.2563,-2.237,-2.2208,-2.688,-2.7607,-2.829,-2.8372,-2.8196,-2.7796,-2.7103,-2.6426,-2.5733,-2.5004,-2.4543,-2.4302,-2.4302,-2.3846,-2.3551,-2.3595,-2.2621,-2.1989,-2.1989,-2.1365,-2.1003,-2.1003,-2.0768,-2.0606,-2.0586,-2.0846,-2.0815,-2.0462,-2.1798,-2.2834,-2.361,-2.3754,-2.3861,-2.3973,-2.3305,-2.296,-2.2833,-2.1954,-2.1525,-2.135,-2.0883,-2.066,-2.0506,-1.9859,-1.953,-1.9316,-1.8858,-1.8484,-1.8202,-1.8202,-1.8063,-1.7922,-1.8036,-1.7855,-1.7691,-1.8334,-1.8409,-1.8411,-1.9006,-1.9691,-2.0288,-2.0477,-2.1153,-2.1843,-2.2244,-2.2347,-2.2347,-2.2347,-2.2278,-2.2278,-2.2417,-2.2324,-2.2231,-2.2324,-2.2137,-2.1949,-2.1949,-2.1949,-2.1937,-2.1967,-2.2155,-2.2279,-2.2298,-2.2879,-2.3355,-2.358,-2.546,-2.6109,-2.4993,-2.5955,-2.6421,-2.6227,-2.4958,-2.4718,-2.5595,-2.4733,-2.4302,-2.4302,-2.4302,-2.4302,-2.4302,-2.4302,-2.4302,-2.4302,-2.4302,-2.4297,-2.4255,-2.4255,-2.4073,-2.3782,-2.361,-2.3246,-2.2754,-2.2646,-2.2417,-2.2208,-2.6553,-2.7363,-2.8079,-2.8348,-2.7857,-2.7149,-2.6419,-2.5727,-2.505,-2.4394,-2.4297,-2.4297,-2.4281,-2.3745,-2.3465,-2.3573,-2.2621,-2.1989,-2.2011,-2.1365,-2.1003,-2.0988,-2.0788,-2.0819,-2.1142,-2.1086,-2.1037,-2.0987,-2.1735,-2.2498,-2.3319,-2.3631,-2.3861,-2.3952,-2.3284,-2.2848,-2.2559,-2.1673,-2.1215,-2.0956,-2.0139,-1.9794,-1.9737,-1.9051,-1.8736,-1.8634,-1.8517,-1.8361,-1.8202,-1.8202,-1.8083,-1.7983,-1.8183,-1.8023,-1.7889,-1.8485,-1.8513,-1.8467,-1.9035,-1.9471,-1.9855,-2.0259,-2.0877,-2.1617,-2.2426,-2.2775,-2.2888,-2.2888,-2.2752,-2.2684,-2.2865,-2.2532,-2.2324,-2.2578,-2.2394,-2.2231,-2.2231,-2.2231,-2.2379,-2.2822,-2.2912,-2.3091,-2.3545,-2.3071,-2.3017,-2.3625,-2.4291,-2.4724,-2.4852,-2.6266,-2.6207,-2.4325,-2.4317,-2.4343,-2.4302,-2.4302,-2.4302,-2.4302,-2.4302,-2.4302,-2.4302,-2.4302,-2.4302,-2.4302,-2.4302,-2.4255,-2.4202,-2.4202,-2.4024,-2.3775,-2.3538,-2.3231,-2.2844,-2.2646,-2.2417,-2.2208,-2.6692,-2.7363,-2.8079,-2.8348,-2.7857,-2.7165,-2.6472,-2.5764,-2.505,-2.4394,-2.4271,-2.4187,-2.4088,-2.3711,-2.3494,-2.3516,-2.2592,-2.2033,-2.2068,-2.1393,-2.0947,-2.0843,-2.0514,-2.0393,-2.059,-2.0661,-2.1107,-2.189,-2.2515,-2.3003,-2.3319,-2.3545,-2.3674,-2.3666,-2.3056,-2.2383,-2.1643,-2.0773,-2.0074,-1.9469,-1.902,-1.8826,-1.8812,-1.8638,-1.8392,-1.8161,-1.8248,-1.8242,-1.8202,-1.8202,-1.8282,-1.84,-1.8586,-1.8503,-1.8309,-1.8328,-1.8106,-1.79,-1.8034,-1.8657,-1.9397,-1.9891,-2.1159,-2.2383,-2.2746,-2.2865,-2.2888,-2.2888,-2.2865,-2.2843,-2.2888,-2.2797,-2.2752,-2.282,-2.2661,-2.2509,-2.2509,-2.2509,-2.2555,-2.2669,-2.2994,-2.3238,-2.3363,-2.3389,-2.3655,-2.4306,-2.4978,-2.5375,-2.5398,-2.6335,-2.6266,-2.4924,-2.4906,-2.4704,-2.4302,-2.4302,-2.4302,-2.4302,-2.4302,-2.4302,-2.4302,-2.4302,-2.4302,-2.4302,-2.4302,-2.4255,-2.4202,-2.4202,-2.3955,-2.3553,-2.3282,-2.2971,-2.2646,-2.2394,-2.2254,-2.2208,-2.6637,-2.7249,-2.7849,-2.7924,-2.738,-2.6703,-2.601,-2.5275,-2.4685,-2.4301,-2.4166,-2.4061,-2.3903,-2.3661,-2.3553,-2.3625,-2.2679,-2.2054,-2.1975,-2.1288,-2.0816,-2.0585,-2.0279,-2.0267,-2.0625,-2.0553,-2.0934,-2.1817,-2.2549,-2.2949,-2.2971,-2.3117,-2.3133,-2.2967,-2.2148,-2.1376,-2.0633,-1.9865,-1.9209,-1.8644,-1.847,-1.854,-1.8703,-1.8458,-1.8394,-1.8419,-1.8265,-1.8262,-1.8341,-1.8341,-1.842,-1.8537,-1.8741,-1.8664,-1.8498,-1.8484,-1.8288,-1.8043,-1.7942,-1.8363,-1.9064,-2.0013,-2.136,-2.2486,-2.282,-2.2888,-2.2888,-2.2888,-2.2888,-2.2888,-2.2888,-2.2888,-2.2888,-2.2888,-2.2797,-2.2752,-2.2752,-2.2752,-2.2775,-2.2918,-2.3142,-2.3341,-2.3436,-2.3545,-2.3759,-2.4133,-2.5061,-2.5615,-2.5615,-2.66,-2.663,-2.547,-2.5187,-2.4939,-2.4679,-2.4414,-2.4302,-2.4302,-2.4302,-2.4302,-2.4302,-2.4302,-2.4302,-2.4302,-2.4276,-2.4208,-2.4103,-2.4024,-2.3818,-2.3523,-2.3392,-2.3083,-2.2723,-2.2563,-2.2379,-2.2208,-2.6389,-2.6926,-2.7308,-2.7241,-2.6688,-2.6026,-2.5367,-2.4679,-2.4202,-2.4166,-2.4046,-2.3903,-2.3775,-2.3603,-2.3575,-2.3711,-2.2896,-2.2243,-2.1989,-2.1413,-2.0919,-2.0581,-2.0384,-2.0523,-2.1038,-2.0788,-2.0925,-2.152,-2.2296,-2.2678,-2.2655,-2.2736,-2.2655,-2.2405,-2.1386,-2.0578,-1.9895,-1.929,-1.8791,-1.8418,-1.8399,-1.8679,-1.9037,-1.8597,-1.8666,-1.8988,-1.8507,-1.846,-1.8624,-1.8565,-1.8576,-1.862,-1.8798,-1.8721,-1.862,-1.8798,-1.8721,-1.8537,-1.8321,-1.8506,-1.9077,-2.0364,-2.1486,-2.237,-2.2797,-2.2888,-2.2888,-2.2888,-2.2888,-2.2888,-2.2888,-2.2888,-2.2931,-2.3018,-2.2983,-2.2931,-2.3055,-2.2946,-2.2978,-2.3231,-2.3297,-2.3385,-2.3566,-2.3595,-2.3595,-2.3595,-2.4762,-2.5495,-2.5576,-2.6791,-2.7035,-2.6101,-2.5546,-2.5271,-2.5282,-2.4839,-2.4625,-2.4625,-2.461,-2.461,-2.461,-2.4502,-2.4456,-2.4435,-2.4275,-2.4124,-2.3982,-2.3861,-2.3717,-2.3595,-2.3573,-2.3312,-2.2957,-2.2867,-2.2609,-2.2254,-2.5764,-2.5839,-2.6049,-2.6481,-2.5949,-2.5398,-2.5256,-2.4652,-2.4145,-2.4046,-2.3903,-2.3754,-2.3575,-2.3509,-2.3466,-2.3385,-2.3231,-2.3018,-2.2759,-2.2546,-2.2195,-2.175,-2.1587,-2.1619,-2.1834,-2.1669,-2.1734,-2.2091,-2.244,-2.27,-2.2867,-2.3106,-2.3171,-2.3105,-2.2389,-2.1512,-2.0511,-1.991,-1.9412,-1.8969,-1.8845,-1.9053,-1.9444,-1.9464,-1.939,-1.923,-1.9022,-1.9086,-1.9206,-1.8867,-1.8874,-1.9007,-1.9045,-1.9026,-1.9007,-1.9045,-1.9026,-1.8931,-1.8542,-1.9207,-2.014,-2.0578,-2.1641,-2.2615,-2.2843,-2.2888,-2.2888,-2.2888,-2.2888,-2.2888,-2.2888,-2.2888,-2.3099,-2.3659,-2.3273,-2.3113,-2.3673,-2.3258,-2.297,-2.3105,-2.3246,-2.3363,-2.3494,-2.3566,-2.3595,-2.3595,-2.4321,-2.4993,-2.5561,-2.6333,-2.6926,-2.731,-2.6802,-2.6364,-2.6038,-2.6058,-2.6057,-2.6057,-2.6026,-2.6026,-2.6041,-2.5441,-2.5142,-2.5112,-2.4474,-2.4124,-2.3982,-2.3861,-2.3717,-2.3573,-2.3414,-2.3297,-2.3187,-2.2783,-2.2601,-2.2509,-2.6087,-2.5948,-2.5773,-2.5806,-2.5533,-2.5173,-2.4777,-2.4428,-2.4145,-2.4024,-2.3882,-2.3732,-2.3531,-2.3538,-2.3516,-2.3422,-2.3451,-2.3326,-2.3038,-2.2709,-2.2356,-2.1926,-2.1688,-2.1664,-2.1769,-2.1664,-2.1688,-2.1864,-2.1916,-2.1951,-2.1967,-2.1827,-2.1686,-2.1553,-2.0989,-2.0327,-1.9646,-1.9296,-1.8945,-1.8596,-1.8351,-1.8704,-1.9351,-1.9101,-1.919,-1.9423,-1.9237,-1.9125,-1.9066,-1.8994,-1.9026,-1.9101,-1.9101,-1.9101,-1.9101,-1.9101,-1.9026,-1.8931,-1.8836,-1.931,-1.9971,-2.0702,-2.1456,-2.2222,-2.277,-2.2888,-2.2888,-2.2888,-2.2888,-2.2888,-2.2888,-2.2888,-2.2989,-2.3302,-2.3113,-2.3004,-2.3316,-2.3113,-2.2947,-2.3082,-2.3135,-2.3268,-2.3487,-2.3538,-2.3545,-2.361,-2.4567,-2.5262,-2.5576,-2.6572,-2.7285,-2.7585,-2.7142,-2.666,-2.61,-2.6312,-2.6402,-2.638,-2.598,-2.5995,-2.6371,-2.5272,-2.4937,-2.5194,-2.4435,-2.4024,-2.3882,-2.3739,-2.3674,-2.3595,-2.3501,-2.3304,-2.3038,-2.2678,-2.2379,-2.2161,-2.5841,-2.5665,-2.5355,-2.5093,-2.5044,-2.4854,-2.4275,-2.413,-2.4061,-2.3903,-2.3818,-2.3689,-2.3531,-2.356,-2.3545,-2.3451,-2.3473,-2.337,-2.312,-2.2646,-2.2208,-2.1864,-2.1568,-2.1471,-2.1616,-2.1335,-2.1302,-2.1539,-2.1274,-2.1157,-2.1187,-2.0741,-2.047,-2.0331,-1.9792,-1.9371,-1.8998,-1.8701,-1.8515,-1.8389,-1.8045,-1.8548,-1.9461,-1.8986,-1.9204,-1.9692,-1.9443,-1.9132,-1.8887,-1.8993,-1.9026,-1.9045,-1.9082,-1.9217,-1.9304,-1.9145,-1.8988,-1.8898,-1.9064,-1.9328,-1.9776,-2.0761,-2.1348,-2.1908,-2.2735,-2.2888,-2.2888,-2.2888,-2.2888,-2.2888,-2.2888,-2.2888,-2.2946,-2.3113,-2.2989,-2.2946,-2.3113,-2.2989,-2.2947,-2.3082,-2.3105,-2.3194,-2.3422,-2.3466,-2.3494,-2.3566,-2.4806,-2.5553,-2.5615,-2.6881,-2.76,-2.76,-2.7357,-2.6988,-2.648,-2.6727,-2.678,-2.6633,-2.6226,-2.6142,-2.6327,-2.5229,-2.4888,-2.5107,-2.4292,-2.3903,-2.3797,-2.361,-2.353,-2.3508,-2.3465,-2.3224,-2.2867,-2.2618,-2.2249,-2.1864,-2.3848,-2.3999,-2.4161,-2.4258,-2.4284,-2.417,-2.3882,-2.3824,-2.3782,-2.3653,-2.3616,-2.3588,-2.3509,-2.3509,-2.3466,-2.3319,-2.3201,-2.3127,-2.3105,-2.2532,-2.2161,-2.1996,-2.1616,-2.1471,-2.1616,-2.0928,-2.085,-2.1395,-2.0724,-2.0663,-2.1201,-2.1029,-2.1006,-2.1082,-2.038,-1.9917,-1.9675,-1.8855,-1.8701,-1.901,-1.8667,-1.9172,-2.0124,-2.007,-2.0097,-2.0127,-1.984,-1.9457,-1.9037,-1.8867,-1.8822,-1.8841,-1.9045,-1.9522,-1.9899,-1.9275,-1.9082,-1.9082,-1.9101,-1.9556,-2.0208,-2.0843,-2.1496,-2.2142,-2.2757,-2.2888,-2.2888,-2.2888,-2.2888,-2.2888,-2.2888,-2.2888,-2.3113,-2.3731,-2.3302,-2.3128,-2.3731,-2.3287,-2.2947,-2.3082,-2.3105,-2.3171,-2.3297,-2.3319,-2.3363,-2.3509,-2.4692,-2.5482,-2.5591,-2.6881,-2.76,-2.76,-2.7795,-2.7889,-2.7843,-2.8112,-2.7934,-2.7334,-2.7904,-2.7487,-2.6206,-2.6099,-2.5688,-2.496,-2.4169,-2.3818,-2.3775,-2.3436,-2.3319,-2.3297,-2.3046,-2.2934,-2.2867,-2.2669,-2.2417,-2.2137,-2.439,-2.4298,-2.4213,-2.4255,-2.4255,-2.4213,-2.4067,-2.4046,-2.3982,-2.3739,-2.3653,-2.3566,-2.3509,-2.3444,-2.3363,-2.3297,-2.3253,-2.3209,-2.3209,-2.2737,-2.2208,-2.1664,-2.1496,-2.1471,-2.1616,-2.1041,-2.09,-2.1209,-2.0359,-2.0051,-2.0255,-1.9956,-1.9846,-1.988,-1.9464,-1.9325,-1.933,-1.8602,-1.8466,-1.8717,-1.8636,-1.8797,-1.9145,-1.9831,-1.9823,-1.9538,-1.9651,-1.9374,-1.8941,-1.8694,-1.8702,-1.8893,-1.9387,-1.9787,-2.0117,-2.0233,-2.0016,-1.9725,-1.9725,-1.9914,-2.0248,-2.0843,-2.1496,-2.2164,-2.2765,-2.2888,-2.2888,-2.2888,-2.2888,-2.2888,-2.2888,-2.2888,-2.2975,-2.3244,-2.307,-2.2975,-2.3244,-2.307,-2.2925,-2.297,-2.2992,-2.3037,-2.3157,-2.3253,-2.3363,-2.3487,-2.4775,-2.535,-2.4993,-2.5869,-2.6363,-2.6363,-2.654,-2.7067,-2.8005,-2.7765,-2.7571,-2.7396,-2.6727,-2.6344,-2.6176,-2.5246,-2.4854,-2.4835,-2.4105,-2.3674,-2.3494,-2.348,-2.3326,-2.3061,-2.3127,-2.2971,-2.2678,-2.244,-2.2091,-2.1688,-2.4854,-2.4594,-2.4281,-2.4276,-2.4276,-2.4213,-2.4088,-2.4082,-2.3982,-2.376,-2.3631,-2.3545,-2.3538,-2.3378,-2.3253,-2.3297,-2.3209,-2.3187,-2.3246,-2.2851,-2.2287,-2.1496,-2.1423,-2.1471,-2.1616,-2.1134,-2.0908,-2.0915,-2.0118,-1.9689,-1.9573,-1.9262,-1.9082,-1.9059,-1.895,-1.8936,-1.8969,-1.8503,-1.838,-1.8487,-1.8371,-1.8454,-1.8751,-1.9456,-1.9605,-1.9489,-1.9704,-1.9385,-1.8843,-1.8732,-1.8711,-1.8792,-1.9312,-1.9771,-2.0219,-2.0814,-2.0567,-2.0103,-2.0103,-2.0103,-2.0248,-2.0843,-2.1336,-2.1902,-2.27,-2.2888,-2.2888,-2.2888,-2.2888,-2.2888,-2.2888,-2.2888,-2.2888,-2.2888,-2.2888,-2.2888,-2.2888,-2.2888,-2.2888,-2.2888,-2.2888,-2.2947,-2.3037,-2.3112,-2.3319,-2.3718,-2.4655,-2.5103,-2.4933,-2.5337,-2.5615,-2.5615,-2.5693,-2.6247,-2.7303,-2.6983,-2.6765,-2.6642,-2.5832,-2.5452,-2.5422,-2.462,-2.4314,-2.4401,-2.3934,-2.361,-2.3392,-2.348,-2.3326,-2.3038,-2.3075,-2.2873,-2.2555,-2.2208,-2.1793,-2.1399,-2.4898,-2.4631,-2.4276,-2.4208,-2.4202,-2.4103,-2.3839,-2.3797,-2.3739,-2.3616,-2.3538,-2.3516,-2.3588,-2.3312,-2.3171,-2.3297,-2.3068,-2.297,-2.3082,-2.2836,-2.2365,-2.164,-2.1496,-2.1471,-2.1616,-2.113,-2.0785,-2.0507,-2.0028,-1.9623,-1.9302,-1.9157,-1.9059,-1.9012,-1.9078,-1.8988,-1.8784,-1.8581,-1.8498,-1.8459,-1.7936,-1.8347,-1.9278,-1.9156,-1.9559,-2.019,-2.019,-1.9602,-1.8841,-1.9038,-1.8822,-1.8537,-1.8741,-1.9411,-2.0219,-2.0814,-2.0567,-2.0103,-2.0103,-2.0103,-2.0233,-2.0843,-2.1003,-2.1336,-2.2598,-2.2888,-2.2888,-2.2888,-2.2888,-2.2888,-2.2888,-2.2888,-2.2888,-2.2888,-2.2888,-2.2888,-2.2888,-2.2888,-2.2888,-2.2888,-2.2888,-2.2888,-2.2888,-2.2888,-2.3277,-2.421,-2.43,-2.4674,-2.5546,-2.56,-2.5576,-2.5576,-2.5576,-2.5655,-2.5779,-2.5909,-2.5659,-2.5006,-2.5674,-2.5213,-2.3812,-2.4497,-2.4371,-2.3595,-2.3595,-2.3595,-2.3573,-2.337,-2.3297,-2.3253,-2.2783,-2.2615,-2.2532,-2.1996,-2.164,-2.135,-2.448,-2.4399,-2.4276,-2.4208,-2.4202,-2.4145,-2.3982,-2.394,-2.3861,-2.3616,-2.3573,-2.3523,-2.3392,-2.3297,-2.3268,-2.3297,-2.3231,-2.312,-2.2971,-2.2867,-2.2595,-2.203,-2.1996,-2.202,-2.2161,-2.1248,-2.0734,-2.0635,-1.9751,-1.9252,-1.9157,-1.912,-1.9082,-1.9059,-1.895,-1.8917,-1.8988,-1.8484,-1.8631,-1.9131,-1.9109,-1.9251,-1.9517,-2.0278,-2.0428,-2.0214,-2.0311,-1.9884,-1.9255,-1.8977,-1.8618,-1.843,-1.9242,-2.0059,-2.077,-2.0944,-2.0567,-2.0103,-2.0103,-1.9754,-1.9653,-2.0727,-2.1351,-2.1917,-2.2722,-2.2888,-2.2888,-2.2888,-2.2888,-2.2888,-2.2888,-2.2888,-2.2888,-2.2888,-2.2888,-2.2888,-2.2888,-2.2888,-2.2888,-2.2888,-2.2888,-2.2888,-2.2888,-2.2992,-2.317,-2.3427,-2.354,-2.391,-2.4644,-2.4335,-2.4134,-2.4134,-2.4164,-2.4215,-2.4259,-2.4867,-2.5092,-2.5006,-2.463,-2.4217,-2.3797,-2.3913,-2.3833,-2.3595,-2.3595,-2.3523,-2.3392,-2.348,-2.3238,-2.2806,-2.2814,-2.2609,-2.2301,-2.2137,-2.1793,-2.1399,-2.4656,-2.4466,-2.4297,-2.425,-2.425,-2.4187,-2.4024,-2.4003,-2.3903,-2.3653,-2.3588,-2.3523,-2.3436,-2.3363,-2.3319,-2.3363,-2.3385,-2.3297,-2.3083,-2.3016,-2.2859,-2.2563,-2.2495,-2.2289,-2.1934,-2.1411,-2.0911,-2.0415,-1.9817,-1.9405,-1.9176,-1.9176,-1.9101,-1.8988,-1.8936,-1.8936,-1.8936,-1.8503,-1.8589,-1.9061,-1.9248,-1.9412,-1.9598,-2.0543,-2.063,-2.0288,-2.0372,-1.9889,-1.9187,-1.8907,-1.8597,-1.845,-1.9177,-1.9958,-2.064,-2.064,-2.0378,-2.0103,-2.0103,-1.9609,-1.9348,-2.0378,-2.0944,-2.1409,-2.2011,-2.2345,-2.2533,-2.2533,-2.2736,-2.2888,-2.2888,-2.2888,-2.2888,-2.2888,-2.2888,-2.2888,-2.2888,-2.2888,-2.2888,-2.2888,-2.2888,-2.2888,-2.2888,-2.297,-2.3037,-2.3105,-2.3473,-2.3755,-2.3902,-2.36,-2.3466,-2.3509,-2.3538,-2.3566,-2.3595,-2.4079,-2.4356,-2.4428,-2.3956,-2.3717,-2.3717,-2.3653,-2.3566,-2.348,-2.348,-2.3414,-2.3282,-2.3201,-2.2979,-2.27,-2.2655,-2.2449,-2.2184,-2.1973,-2.1688,-2.1375,-2.5081,-2.4712,-2.4281,-2.4261,-2.4261,-2.4177,-2.4003,-2.3982,-2.3882,-2.3616,-2.356,-2.3538,-2.3588,-2.3436,-2.3385,-2.3509,-2.3509,-2.3451,-2.3341,-2.3194,-2.3105,-2.3083,-2.2935,-2.2312,-2.1164,-2.1541,-2.1167,-2.0005,-2.0079,-1.9816,-1.9284,-1.9302,-1.9139,-1.886,-1.9045,-1.9026,-1.8822,-1.86,-1.8526,-1.8585,-1.8734,-1.9114,-1.9638,-2.0203,-2.0419,-2.0419,-2.0419,-1.9705,-1.8793,-1.8773,-1.8638,-1.8537,-1.8741,-1.9353,-2.0016,-2.0016,-2.0016,-2.0016,-2.0016,-1.9566,-1.9246,-1.9856,-2.0016,-2.0175,-2.0843,-2.1467,-2.1902,-2.1902,-2.2345,-2.2743,-2.2801,-2.2815,-2.283,-2.2888,-2.2888,-2.2888,-2.2888,-2.2888,-2.2888,-2.2888,-2.2888,-2.2888,-2.2888,-2.2888,-2.2947,-2.306,-2.3751,-2.3901,-2.3305,-2.3275,-2.3341,-2.3487,-2.3487,-2.3538,-2.3595,-2.3573,-2.3573,-2.3595,-2.3573,-2.3573,-2.3595,-2.3551,-2.3458,-2.3297,-2.3275,-2.3275,-2.3231,-2.274,-2.2672,-2.2867,-2.2402,-2.2254,-2.2184,-2.164,-2.1423,-2.1326,-2.4413,-2.4315,-2.4166,-2.3946,-2.3925,-2.3903,-2.3861,-2.3839,-2.3782,-2.3616,-2.3674,-2.3689,-2.3553,-2.3523,-2.3545,-2.3588,-2.3588,-2.3566,-2.3545,-2.3348,-2.315,-2.2957,-2.2622,-2.1916,-2.0827,-2.1103,-2.0872,-2.0068,-1.9585,-1.9269,-1.9139,-1.9302,-1.9339,-1.9265,-1.9265,-1.9228,-1.9157,-1.8697,-1.8779,-1.9187,-1.8899,-1.9402,-2.0296,-2.0431,-2.0471,-2.0471,-2.0471,-1.9759,-1.8759,-1.844,-1.8413,-1.8537,-1.8741,-1.9037,-1.9319,-1.9319,-1.9319,-1.9319,-1.9319,-1.9217,-1.913,-1.9275,-1.9319,-1.9609,-2.0741,-2.1104,-2.122,-2.122,-2.1322,-2.1569,-2.2106,-2.2207,-2.2345,-2.2815,-2.2888,-2.2888,-2.2888,-2.2888,-2.2888,-2.2888,-2.2888,-2.2888,-2.2888,-2.2888,-2.2925,-2.2947,-2.3086,-2.3138,-2.2978,-2.3105,-2.3201,-2.3341,-2.3466,-2.3538,-2.3595,-2.3334,-2.3334,-2.3595,-2.3436,-2.3458,-2.3595,-2.3224,-2.3135,-2.3297,-2.3083,-2.2979,-2.2979,-2.2867,-2.2844,-2.2867,-2.2623,-2.2509,-2.244,-2.1926,-2.1592,-2.1326,-2.4255,-2.4234,-2.4193,-2.4051,-2.4051,-2.4009,-2.3903,-2.3961,-2.3903,-2.3616,-2.3717,-2.3732,-2.3581,-2.3588,-2.3595,-2.3595,-2.3595,-2.3595,-2.3595,-2.329,-2.3061,-2.2912,-2.2607,-2.1903,-2.0726,-2.0824,-2.0501,-1.9624,-1.9332,-1.9195,-1.9195,-1.9395,-1.9465,-1.9395,-1.9358,-1.9358,-1.9321,-1.8946,-1.8882,-1.9015,-1.9003,-1.9267,-1.9727,-2.0003,-1.9944,-1.9686,-1.9686,-1.9117,-1.8351,-1.8239,-1.8341,-1.8537,-1.8741,-1.8936,-1.9101,-1.9101,-1.9101,-1.9101,-1.9101,-1.9333,-1.958,-1.958,-1.9783,-2.0016,-2.0074,-2.0335,-2.0567,-2.0567,-2.1046,-2.1583,-2.1931,-2.2251,-2.2533,-2.2844,-2.2888,-2.2888,-2.2888,-2.2888,-2.2888,-2.2888,-2.2888,-2.2888,-2.2888,-2.2797,-2.2797,-2.2888,-2.2797,-2.2752,-2.2752,-2.282,-2.291,-2.3016,-2.3083,-2.3172,-2.3268,-2.3091,-2.3024,-2.3076,-2.3024,-2.3091,-2.3268,-2.3001,-2.2912,-2.2963,-2.2814,-2.2746,-2.2746,-2.2495,-2.2434,-2.254,-2.217,-2.2114,-2.2161,-2.1616,-2.1277,-2.1033,-2.4297,-2.4281,-2.4276,-2.424,-2.4255,-2.4177,-2.4024,-2.4082,-2.4003,-2.3674,-2.3717,-2.3717,-2.3595,-2.3595,-2.3595,-2.3595,-2.3595,-2.3595,-2.3595,-2.3201,-2.2957,-2.2957,-2.2566,-2.1821,-2.0712,-2.0484,-1.9936,-1.9045,-1.9157,-1.9228,-1.9265,-1.9483,-1.952,-1.945,-1.9446,-1.9431,-1.9413,-1.9195,-1.8898,-1.8634,-1.8943,-1.8955,-1.8839,-1.9369,-1.9233,-1.8806,-1.8806,-1.8405,-1.7942,-1.8163,-1.8361,-1.8537,-1.8779,-1.8969,-1.9101,-1.9101,-1.9101,-1.913,-1.9246,-1.9682,-2.0117,-2.0233,-2.0553,-2.0596,-1.9638,-1.9769,-2.0132,-2.0233,-2.1017,-2.1743,-2.196,-2.2403,-2.2772,-2.2873,-2.2888,-2.2888,-2.2888,-2.2888,-2.2888,-2.2888,-2.2888,-2.2888,-2.2888,-2.2729,-2.2684,-2.2865,-2.2706,-2.2615,-2.2661,-2.2661,-2.2669,-2.2694,-2.2694,-2.274,-2.2822,-2.2777,-2.264,-2.2443,-2.2512,-2.2663,-2.2867,-2.2799,-2.2723,-2.2615,-2.2555,-2.2532,-2.2486,-2.2067,-2.2044,-2.2231,-2.1722,-2.1688,-2.1793,-2.1204,-2.0873,-2.0699,-2.4229,-2.4208,-2.4187,-2.4067,-2.4046,-2.4024,-2.4003,-2.3903,-2.3839,-2.3782,-2.3696,-2.3616,-2.3595,-2.3595,-2.3595,-2.3595,-2.3595,-2.3595,-2.3595,-2.337,-2.3253,-2.3253,-2.193,-2.1051,-2.0698,-1.9612,-1.8994,-1.8841,-1.886,-1.8969,-1.912,-1.9339,-1.9505,-1.9654,-1.9611,-1.9574,-1.9556,-1.9228,-1.8898,-1.8592,-1.8481,-1.8562,-1.882,-1.888,-1.8867,-1.8806,-1.8806,-1.8405,-1.7963,-1.8341,-1.8478,-1.8576,-1.8931,-1.9082,-1.9101,-1.9101,-1.9101,-1.9232,-1.9812,-2.003,-2.0233,-2.0741,-2.0553,-2.0306,-2.0654,-2.0407,-2.0248,-2.077,-2.0596,-2.0683,-2.1801,-2.2062,-2.2294,-2.2815,-2.2888,-2.2888,-2.2888,-2.2888,-2.2888,-2.2888,-2.2888,-2.2888,-2.2888,-2.2729,-2.2684,-2.2865,-2.2706,-2.2684,-2.2843,-2.2865,-2.2806,-2.2694,-2.2694,-2.2649,-2.2558,-2.2273,-2.217,-2.224,-2.203,-2.2203,-2.2717,-2.2426,-2.2417,-2.2592,-2.2347,-2.2254,-2.2254,-2.2184,-2.2301,-2.2509,-2.2208,-2.2114,-2.2067,-2.1277,-2.0873,-2.0699,-2.4255,-2.4271,-2.4234,-2.4172,-2.4172,-2.4151,-2.4124,-2.4061,-2.3982,-2.3818,-2.3739,-2.3674,-2.3595,-2.3595,-2.3595,-2.3595,-2.3595,-2.3595,-2.3595,-2.3414,-2.3091,-2.2593,-2.1787,-2.0897,-1.9998,-1.9412,-1.8979,-1.8625,-1.8855,-1.9007,-1.9101,-1.9417,-1.9617,-1.9708,-1.9672,-1.965,-1.965,-1.949,-1.9254,-1.8921,-1.8712,-1.8565,-1.8447,-1.8337,-1.82,-1.8083,-1.8158,-1.8058,-1.7963,-1.8361,-1.8498,-1.8576,-1.8969,-1.9101,-1.912,-1.9228,-1.9265,-1.9324,-1.9631,-1.9986,-2.0304,-2.0462,-2.0828,-2.122,-2.1496,-2.1351,-2.1133,-2.1017,-2.109,-2.1322,-2.1902,-2.2294,-2.2591,-2.2859,-2.2888,-2.2888,-2.2888,-2.2888,-2.2888,-2.2888,-2.2888,-2.2888,-2.2888,-2.2729,-2.2638,-2.2729,-2.2509,-2.2347,-2.2301,-2.2301,-2.2263,-2.2203,-2.2203,-2.2156,-2.2109,-2.1959,-2.1841,-2.1746,-2.1769,-2.1983,-2.231,-2.224,-2.2254,-2.237,-2.2254,-2.2208,-2.2208,-2.2208,-2.2184,-2.2137,-2.1864,-2.1592,-2.1326,-2.1082,-2.0873,-2.0699]},{"header":{"parameterUnit":"m.s-1","parameterCategory":1,"la1":30.6,"la2":28.766,"lo1":-90.7593,"lo2":-88.6598,"dy":0.0162,"dx":0.0183,"nx":116,"ny":114,"refTime":"2023-06-08T12:00:00:Z","depth":0,"parameterNumber":3,"parameterNumberName":"V-component_of_WINDS"},"data":[0.0,0.0,0.0,0.0,0.0,0.0,0.0,0.0,0.0,0.0,0.0,0.0,0.0,0.0,0.0,0.0,0.0,0.0,0.0,0.0,0.0,0.0,0.0,0.0,0.0,0.0,0.0,0.0,0.0,0.0,0.0,0.0,0.0,0.0,0.0,0.0,0.0,0.0,0.0,0.0,0.0,0.0,0.0,0.0,0.0,0.0,0.0,0.0,0.0,0.0,0.0,0.0,0.0,0.0,0.0,0.0,0.0,0.0,0.0,0.0,0.0,0.0,0.0,0.0,0.0,0.0,0.0,0.0,0.0,0.0,0.0,0.0,0.0,0.0,0.0,0.0,0.0,0.0,0.0,0.0,0.0,0.0,0.0,0.0,0.0,0.0,0.0,0.0,0.0,0.0,0.0,0.0,0.0,0.0,0.0,0.0,0.0,0.0,0.0,0.0,0.0,0.0,0.0,0.0,0.0,0.0,0.0,0.0,0.0,0.0,0.0,0.0,0.0,0.0,0.0,0.0,0.0,0.0,0.0,0.0,0.0,0.0,0.0,0.0,0.0,0.0,0.0,0.0,0.0,0.0,0.0,0.0,0.0,0.0,0.0,0.0,0.0,0.0,0.0,0.0,0.0,0.0,0.0,0.0,0.0,0.0,0.0,0.0,0.0,0.0,0.0,0.0,0.0,0.0,0.0,0.0,0.0,0.0,0.0,0.0,0.0,0.0,0.0,0.0,0.0,0.0,0.0,0.0,0.0,0.0,0.0,0.0,0.0,0.0,0.0,0.0,0.0,0.0,0.0,0.0,0.0,0.0,0.0,0.0,0.0,0.0,0.0,0.0,0.0,0.0,0.0,0.0,0.0,0.0,0.0,0.0,0.0,0.0,0.0,0.0,0.0,0.0,0.0,0.0,0.0,0.0,0.0,0.0,0.0,0.0,0.0,0.0,0.0,0.0,0.0,0.0,0.0,0.0,0.0,0.0,0.0,0.0,0.0,0.0,0.0,0.0,0.0,0.0,0.0,0.0,0.0,0.0,0.0,0.0,0.0,0.0,0.0,0.0,0.0,0.0,0.0,0.0,0.0,0.0,0.0,0.0,0.0,0.0,0.0,0.0,0.0,0.0,0.0,0.0,0.0,0.0,0.0,0.0,0.0,0.0,0.0,0.0,0.0,0.0,0.0,0.0,0.0,0.0,0.0,0.0,0.0,0.0,0.0,0.0,0.0,0.0,0.0,0.0,0.0,0.0,0.0,0.0,0.0,0.0,0.0,0.0,0.0,0.0,0.0,0.0,0.0,0.0,0.0,0.0,0.0,0.0,0.0,0.0,0.0,0.0,0.0,0.0,0.0,0.0,0.0,0.0,0.0,0.0,0.0,0.0,0.0,0.0,0.0,0.0,0.0,0.0,0.0,0.0,0.0,0.0,0.0,0.0,0.0,0.0,0.0,0.0,0.0,0.0,0.0,0.0,0.0,0.0,0.0,0.0,0.0,0.0,0.0,0.0,0.0,0.0,0.0,0.0,0.0,0.0,0.0,0.0,0.0,0.0,0.0,0.0,0.0,0.0,0.0,0.0,0.0,0.0,0.0,0.0,0.0,0.0,0.0,0.0,0.0,0.0,0.0,0.0,0.0,0.0,0.0,0.0,0.0,0.0,0.0,0.0,0.0,0.0,0.0,0.0,0.0,0.0,0.0,0.0,0.0,0.0,0.0,0.0,0.0,0.0,0.0,0.0,0.0,0.0,0.0,0.0,0.0,0.0,0.0,0.0,0.0,0.0,0.0,0.0,0.0,0.0,0.0,0.0,0.0,0.0,0.0,0.0,0.0,0.0,0.0,0.0,0.0,0.0,0.0,0.0,0.0,0.0,0.0,0.0,0.0,0.0,0.0,0.0,0.0,0.0,0.0,0.0,0.0,0.0,0.0,0.0,0.0,0.0,0.0,0.0,0.0,0.0,0.0,0.0,0.0,0.0,0.0,0.0,0.0,0.0,0.0,0.0,0.0,0.0,0.0,0.0,0.0,0.0,0.0,0.0,0.0,0.0,0.0,0.0,0.0,0.0,0.0,0.0,0.0,0.0,0.0,0.0,0.0,0.0,0.0,0.0,0.0,0.0,0.0,0.0,0.0,0.0,0.0,0.0,0.0,0.0,0.0,0.0,0.0,0.0,0.0,0.0,0.0,0.0,0.0,0.0,0.0,0.0,0.0,0.0,0.0,0.0,0.0,0.0,0.0,0.0,0.0,0.0,0.0,0.0,0.0,0.0,0.0,0.0,0.0,0.0,0.0,0.0,0.0,0.0,0.0,0.0,0.0,0.0,0.0,0.0,0.0,0.0,0.0,0.0,0.0,0.0,0.0,0.0,0.0,0.0,0.0,0.0,0.0,0.0,0.0,0.0,0.0,0.0,0.0,0.0,0.0,0.0,0.0,0.0,0.0,0.0,0.0,0.0,0.0,0.0,0.0,0.0,0.0,0.0,0.0,0.0,0.0,0.0,0.0,0.0,0.0,0.0,0.0,0.0,0.0,0.0,0.0,0.0,0.0,0.0,0.0,0.0,0.0,0.0,0.0,0.0,0.0,0.0,0.0,0.0,0.0,0.0,0.0,0.0,0.0,0.0,0.0,0.0,0.0,0.0,0.0,0.0,0.0,0.0,0.0,0.0,0.0,0.0,0.0,0.0,0.0,0.0,0.0,0.0,0.0,0.0,0.0,0.0,0.0,0.0,0.0,0.0,0.0,0.0,0.0,0.0,0.0,0.0,0.0,0.0,0.0,0.0,0.0,0.0,0.0,0.0,0.0,0.0,0.0,0.0,0.0,0.0,0.0,0.0,0.0,0.0,0.0,0.0,0.0,0.0,0.0,0.0,0.0,0.0,0.0,0.0,0.0,0.0,0.0,0.0,0.0,0.0,0.0,0.0,0.0,0.0,0.0,0.0,0.0,0.0,0.0,0.0,0.0,0.0,0.0,0.0,0.0,0.0,0.0,0.0,0.0,0.0,0.0,0.0,0.0,0.0,0.0,0.0,0.0,0.0,0.0,0.0,0.0,0.0,0.0,0.0,0.0,0.0,0.0,0.0,0.0,0.0,0.0,0.0,0.0,0.0,0.0,0.0,0.0,0.0,0.0,0.0,0.0,0.0,0.0,0.0,0.0,0.0,0.0,0.0,0.0,0.0,0.0,0.0,0.0,0.0,0.0,0.0,0.0,0.0,0.0,0.0,0.0,0.0,0.0,0.0,0.0,0.0,0.0,0.0,0.0,0.0,0.0,0.0,0.0,0.0,0.0,0.0,0.0,0.0,0.0,0.0,0.0,0.0,0.0,0.0,0.0,0.0,0.0,0.0,0.0,0.0,0.0,0.0,0.0,0.0,0.0,0.0,0.0,0.0,0.0,0.0,0.0,0.0,0.0,0.0,0.0,0.0,0.0,0.0,0.0,0.0,0.0,0.0,0.0,0.0,0.0,0.0,0.0,0.0,0.0,0.0,0.0,0.0,0.0,0.0,0.0,0.0,0.0,0.0,0.0,0.0,0.0,0.0,0.0,0.0,0.0,0.0,0.0,0.0,0.0,0.0,0.0,0.0,0.0,0.0,0.0,0.0,0.0,0.0,0.0,0.0,0.0,0.0,0.0,0.0,0.0,0.0,0.0,0.0,0.0,0.0,0.0,0.0,0.0,0.0,0.0,0.0,0.0,0.0,0.0,0.0,0.0,0.0,0.0,0.0,0.0,0.0,0.0,0.0,0.0,0.0,0.0,0.0,0.0,0.0,0.0,0.0,0.0,0.0,0.0,0.0,0.0,0.0,0.0,0.0,0.0,0.0,0.0,0.0,0.0,0.0,0.0,0.0,0.0,0.0,0.0,0.0,0.0,0.0,0.0,0.0,0.0,0.0,0.0,0.0,0.0,0.0,0.0,0.0,0.0,0.0,0.0,0.0,0.0,0.0,0.0,0.0,0.0,0.0,0.0,0.0,0.0,0.0,0.0,0.0,0.0,0.0,0.0,0.0,0.0,0.0,0.0,0.0,0.0,0.0,0.0,0.0,0.0,0.0,0.0,0.0,0.0,0.0,0.0,0.0,0.0,0.0,0.0,0.0,0.0,0.0,0.0,0.0,0.0,0.0,0.0,0.0,0.0,0.0,0.0,0.0,0.0,0.0,0.0,0.0,0.0,0.0,0.0,0.0,0.0,0.0,0.0,0.0,0.0,0.0,0.0,0.0,0.0,0.0,0.0,0.0,0.0,0.0,0.0,0.0,0.0,0.0,0.0,0.0,0.0,0.0,0.0,0.0,0.0,0.0,0.0,0.0,0.0,0.0,0.0,0.0,0.0,0.0,0.0,0.0,0.0,0.0,0.0,0.0,0.0,0.0,0.0,0.0,0.0,0.0,0.0,0.0,0.0,0.0,0.0,0.0,0.0,0.0,0.0,0.0,0.0,0.0,0.0,0.0,0.0,0.0,0.0,0.0,0.0,0.0,0.0,0.0,0.0,0.0,0.0,0.0,0.0,0.0,0.0,0.0,0.0,0.0,0.0,0.0,0.0,0.0,0.0,0.0,0.0,0.0,0.0,0.0,0.0,0.0,0.0,0.0,0.0,0.0,0.0,0.0,0.0,0.0,0.0,0.0,0.0,0.0,0.0,0.0,0.0,0.0,0.0,0.0,0.0,0.0,0.0,0.0,0.0,0.0,0.0,0.0,0.0,0.0,0.0,0.0,0.0,0.0,0.0,0.0,0.0,0.0,0.0,0.0,0.0,0.0,0.0,0.0,0.0,0.0,0.0,0.0,0.0,0.0,0.0,0.0,0.0,0.0,0.0,0.0,0.0,0.0,0.0,0.0,0.0,0.0,0.0,0.0,0.0,0.0,0.0,0.0,0.0,0.0,0.0,0.0,0.0,0.0,0.0,0.0,0.0,0.0,0.0,0.0,0.0,0.0,0.0,0.0,0.0,0.0,0.0,0.0,0.0,0.0,0.0,0.0,0.0,0.0,0.0,0.0,0.0,0.0,0.0,0.0,0.0,0.0,0.0,0.0,0.0,0.0,0.0,0.0,0.0,0.0,0.0,0.0,0.0,0.0,0.0,0.0,0.0,0.0,0.0,0.0,0.0,0.0,0.0,0.0,0.0,0.0,0.0,0.0,0.0,0.0,0.0,0.0,0.0,0.0,0.0,0.0,0.0,0.0,0.0,0.0,0.0,0.0,0.0,0.0,0.0,0.0,0.0,0.0,0.0,0.0,0.0,0.0,0.0,0.0,0.0,0.0,0.0,0.0,0.0,0.0,0.0,0.0,0.0,0.0,0.0,0.0,0.0,0.0,0.0,0.0,0.0,0.0,0.0,0.0,0.0,0.0,0.0,0.0,0.0,0.0,0.0,0.0,0.0,0.0,0.0,0.0,0.0,0.0,0.0,0.0,0.0,0.0,0.0,0.0,0.0,0.0,0.0,0.0,0.0,0.0,0.0,0.0,0.0,0.0,0.0,0.0,0.0,0.0,0.0,0.0,0.0,0.0,0.0,0.0,0.0,0.0,0.0,0.0,0.0,0.0,0.0,0.0,0.0,0.0,0.0,0.0,0.0,0.0,0.0,0.0,0.0,0.0,0.0,0.0,0.0,0.0,0.0,0.0,0.0,0.0,0.0,0.0,0.0,0.0,0.0,0.0,0.0,0.0,0.0,0.0,0.0,0.0,0.0,0.0,0.0,0.0,0.0,0.0,0.0,0.0,0.0,0.0,0.0,0.0,0.0,0.0,0.0,0.0,0.0,0.0,0.0,0.0,0.0,0.0,0.0,0.0,0.0,0.0,0.0,0.0,0.0,0.0,0.0,0.0,0.0,0.0,0.0,0.0,0.0,0.0,0.0,0.0,0.0,0.0,0.0,0.0,0.0,0.0,0.0,0.0,0.0,0.0,0.0,0.0,0.0,0.0,0.0,0.0,0.0,0.0,0.0,0.0,0.0,0.0,0.0,0.0,0.0,0.0,0.0,0.0,0.0,0.0,0.0,0.0,0.0,0.0,0.0,0.0,0.0,0.0,0.0,0.0,0.0,0.0,0.0,0.0,0.0,0.0,0.0,0.0,0.0,0.0,0.0,0.0,0.0,0.0,0.0,0.0,-0.2938,-0.4243,0.0,0.0,0.0,0.0,0.0,0.0,0.0,0.0,0.0,0.0,0.0,0.0,0.0,0.0,0.0,0.0,0.0,0.0,0.0,0.0,0.0,0.0,0.0,0.0,0.0,0.0,0.0,0.0,0.0,0.0,0.0,0.0,0.0,0.0,0.0,0.0,0.0,0.0,-1.5764,-1.4983,-1.393,-1.422,-1.5161,-1.6616,0.0,0.0,0.0,0.0,0.0,0.0,0.0,0.0,0.0,0.0,0.0,0.0,0.0,0.0,0.0,0.0,0.0,0.0,0.0,0.0,0.0,0.0,0.0,0.0,0.0,0.0,0.0,0.0,0.0,0.0,0.0,0.0,0.0,0.0,0.0,0.0,0.0,0.0,0.0,0.0,0.0,0.0,0.0,0.0,0.0,0.0,0.0,0.0,0.0,0.0,0.0,0.0,0.0,0.0,0.0,0.0,0.0,0.0,0.0,0.0,0.0,0.0,0.0,0.0,0.0,0.0,0.0,0.0,0.0,0.0,-0.2608,-0.3376,0.0,0.0,0.0,0.0,0.0,0.0,0.0,0.0,0.0,0.0,0.0,0.0,0.0,0.0,0.0,0.0,0.0,0.0,0.0,0.0,0.0,0.0,0.0,0.0,-1.7541,-1.7674,-1.8059,-1.8188,0.0,0.0,0.0,0.0,0.0,0.0,0.0,0.0,0.0,0.0,-1.4562,-1.3336,-1.1984,-1.2493,-1.3902,-1.6005,-1.625,0.0,0.0,0.0,0.0,0.0,0.0,0.0,0.0,0.0,0.0,0.0,0.0,0.0,0.0,0.0,0.0,0.0,0.0,0.0,0.0,0.0,0.0,0.0,0.0,0.0,0.0,0.0,0.0,0.0,0.0,0.0,0.0,0.0,0.0,0.0,0.0,0.0,0.0,0.0,0.0,0.0,0.0,0.0,0.0,0.0,0.0,0.0,0.0,0.0,0.0,0.0,0.0,0.0,0.0,0.0,0.0,0.0,0.0,0.0,0.0,0.0,0.0,0.0,-0.2646,-0.2641,-0.2629,-0.1717,-0.1309,-0.1371,-0.2422,-0.2528,-0.2026,-0.3823,0.0,0.0,0.0,0.0,0.0,0.0,0.0,0.0,0.0,0.0,0.0,0.0,0.0,0.0,0.0,0.0,0.0,0.0,0.0,0.0,0.0,-1.7519,-1.8083,-1.8719,-1.917,-1.8945,0.0,0.0,0.0,0.0,0.0,0.0,0.0,-1.6559,-1.608,-1.5015,-1.3377,-1.2454,-1.2261,-1.2315,-1.2938,-1.3991,-1.4435,-1.5705,-1.7484,0.0,0.0,0.0,0.0,0.0,0.0,0.0,0.0,0.0,0.0,0.0,0.0,0.0,0.0,0.0,0.0,0.0,0.0,0.0,0.0,0.0,0.0,0.0,0.0,0.0,0.0,0.0,0.0,0.0,0.0,0.0,0.0,0.0,0.0,0.0,0.0,0.0,0.0,0.0,0.0,0.0,-0.3472,-0.2701,0.0,0.0,0.0,0.0,0.0,0.0,0.0,0.0,0.0,0.0,0.0,0.0,0.0,-0.2613,-0.2565,-0.1833,-0.1505,-0.151,-0.0756,-0.0433,-0.0434,-0.0289,-0.0217,-0.0217,-0.0387,0.0,-0.1944,-0.2337,0.0,0.0,0.0,0.0,0.0,0.0,0.0,0.0,0.0,0.0,0.0,0.0,0.0,0.0,0.0,0.0,0.0,0.0,0.0,0.0,0.0,-1.7298,-1.7418,-1.7885,-1.7541,-1.7268,-1.7192,-1.6763,0.0,0.0,0.0,0.0,-1.6034,-1.6118,-1.5199,-1.3208,-1.1972,-1.0923,-1.0105,-1.0342,-1.0764,-1.138,-1.184,-1.3674,-1.6407,-1.6102,0.0,0.0,0.0,0.0,0.0,0.0,0.0,0.0,0.0,0.0,0.0,0.0,0.0,0.0,0.0,0.0,0.0,0.0,0.0,0.0,0.0,0.0,0.0,0.0,0.0,0.0,0.0,0.0,0.0,0.0,0.0,0.0,0.0,0.0,0.0,0.0,0.0,0.0,0.0,-0.487,-0.3513,-0.3134,-0.3391,-0.3877,0.0,0.0,0.0,0.0,0.0,0.0,0.0,0.0,0.0,-0.1512,-0.145,-0.1198,-0.0642,-0.0362,-0.0293,-0.0409,-0.0147,0.011,0.0335,0.033,0.0404,0.0483,0.0145,-0.0397,-0.1057,-0.1712,-0.2402,-0.309,0.0,0.0,0.0,0.0,-0.5491,-0.5761,0.0,0.0,0.0,0.0,0.0,0.0,0.0,0.0,0.0,0.0,0.0,0.0,-1.7457,-1.6773,-1.6454,-1.6793,-1.6045,-1.5758,-1.6271,-1.5855,0.0,0.0,0.0,-1.5562,-1.5624,-1.5087,-1.38,-1.1724,-1.0772,-0.974,-0.8659,-0.8949,-0.9342,-0.9784,-1.0155,-1.2109,-1.5118,-1.484,-1.5737,-1.7388,0.0,0.0,0.0,0.0,0.0,0.0,0.0,0.0,0.0,0.0,0.0,0.0,0.0,0.0,0.0,0.0,0.0,0.0,0.0,0.0,0.0,0.0,0.0,0.0,0.0,0.0,0.0,0.0,0.0,0.0,0.0,0.0,0.0,0.0,0.0,0.0,0.0,-0.4261,-0.2847,-0.2811,-0.2731,-0.3014,0.0,0.0,0.0,0.0,0.0,0.0,-0.1865,-0.1614,-0.1103,-0.0247,-0.0181,0.0257,0.1104,0.0963,0.0788,0.0611,0.0412,0.0488,0.0764,0.0787,0.0826,0.0878,0.0484,0.0074,-0.0377,-0.1323,-0.1896,-0.2264,-0.3361,-0.3965,-0.4239,-0.4751,-0.5093,-0.5201,0.0,0.0,0.0,0.0,0.0,0.0,0.0,0.0,0.0,0.0,0.0,-1.6125,-1.6602,-1.5826,-1.5499,-1.6001,-1.5829,-1.5532,-1.52,-1.5322,-1.5507,-1.5744,-1.5174,-1.5112,-1.568,-1.3334,-1.1813,-1.1248,-1.0049,-0.9432,-0.9361,-0.9361,-0.9673,-1.0172,-1.0318,-1.1708,-1.3885,-1.3943,-1.4939,-1.6558,-1.7479,0.0,0.0,0.0,0.0,0.0,0.0,0.0,0.0,0.0,0.0,0.0,0.0,0.0,0.0,0.0,0.0,0.0,0.0,0.0,0.0,0.0,0.0,0.0,0.0,0.0,0.0,0.0,0.0,0.0,0.0,0.0,0.0,0.0,0.0,0.0,0.0,0.0,0.0,-0.0602,-0.02,0.0,0.0,0.0,0.0,-0.2168,-0.1143,-0.0486,-0.0486,0.0464,0.1126,0.1382,0.138,0.1512,0.1739,0.1625,0.1528,0.1529,0.1332,0.1254,0.1255,0.1254,0.1135,0.0901,0.1069,0.0605,-0.0339,-0.0895,-0.1173,-0.1307,-0.1701,-0.1889,-0.2041,-0.284,-0.318,-0.3283,0.0,0.0,0.0,0.0,0.0,0.0,0.0,0.0,-1.6518,-1.7357,-1.6884,-1.6631,-1.714,-1.5537,-1.4504,-1.4693,-1.3811,-1.3407,-1.3732,-1.4092,-1.4519,-1.4983,-1.4863,-1.4627,-1.4303,-1.2223,-1.1104,-1.1073,-0.985,-0.9256,-0.929,-0.9706,-1.0069,-1.0352,-1.088,-1.1654,-1.2572,-1.2597,-1.3685,-1.5422,-1.5905,-1.6745,0.0,0.0,0.0,0.0,0.0,0.0,0.0,0.0,0.0,0.0,0.0,0.0,0.0,0.0,0.0,0.0,0.0,0.0,0.0,0.0,0.0,0.0,0.0,0.0,0.0,0.0,0.0,0.0,0.0,0.0,0.0,0.0,0.0,0.0,0.0,0.0,0.0,-0.1516,-0.0645,0.0,-0.136,-0.1135,-0.0967,-0.1017,0.014,0.0826,0.0826,0.1326,0.1607,0.1682,0.1723,0.1785,0.1862,0.1682,0.1611,0.1611,0.1415,0.1453,0.1687,0.1571,0.1493,0.1492,0.0895,0.0349,-0.0193,-0.1159,-0.1557,-0.1645,-0.2334,-0.262,-0.2716,-0.3286,-0.3536,-0.3561,0.0,0.0,0.0,0.0,0.0,0.0,0.0,0.0,-1.6293,-1.7408,-1.6659,-1.6137,-1.6409,-1.4764,-1.358,-1.3452,-1.2529,-1.2256,-1.2917,-1.3346,-1.3965,-1.477,-1.461,-1.3874,-1.2552,-1.1287,-1.0635,-1.0543,-0.9891,-0.9532,-0.9472,-1.012,-1.0506,-1.0659,-1.1368,-1.1803,-1.1977,-1.22,-1.2964,-1.4112,-1.4925,-1.6075,-1.7376,0.0,0.0,0.0,0.0,0.0,0.0,0.0,0.0,0.0,0.0,0.0,0.0,0.0,0.0,0.0,0.0,0.0,0.0,0.0,0.0,0.0,0.0,0.0,0.0,0.0,0.0,0.0,0.0,0.0,0.0,0.0,0.0,0.0,0.0,0.0,-0.0513,-0.1631,-0.0446,0.0074,-0.0817,-0.0256,0.0148,0.0144,0.0936,0.1453,0.1554,0.1655,0.1787,0.1979,0.1995,0.2043,0.2121,0.1963,0.1885,0.1885,0.1649,0.1648,0.1882,0.1531,0.1415,0.1414,0.0662,0.0116,-0.0271,-0.1322,-0.1831,-0.2061,-0.2804,-0.3119,-0.3141,-0.3645,-0.3802,-0.3802,0.0,0.0,0.0,0.0,0.0,0.0,0.0,-1.5477,-1.5548,-1.6236,-1.5255,-1.4485,-1.4451,-1.3532,-1.2735,-1.2348,-1.2175,-1.2319,-1.2868,-1.3211,-1.393,-1.5079,-1.4312,-1.2838,-1.0651,-1.0581,-1.0254,-0.9614,-1.0076,-1.0187,-1.0025,-1.0616,-1.0972,-1.115,-1.1803,-1.2101,-1.215,-1.2817,-1.2891,-1.2709,-1.4731,-1.5784,-1.6248,0.0,0.0,0.0,0.0,0.0,0.0,0.0,0.0,0.0,0.0,0.0,0.0,0.0,0.0,0.0,0.0,0.0,0.0,0.0,0.0,0.0,0.0,0.0,0.0,0.0,0.0,0.0,0.0,0.0,0.0,0.0,0.0,0.0,-0.3232,-0.1459,-0.0187,-0.0585,0.0635,0.1429,0.1209,0.1262,0.1285,0.1217,0.1257,0.1419,0.1673,0.1629,0.1831,0.2275,0.2224,0.2275,0.247,0.247,0.247,0.247,0.2078,0.1882,0.1843,0.1178,0.0786,0.0588,0.0421,0.0,-0.0643,-0.1399,-0.1967,-0.2376,-0.2884,-0.3109,-0.3176,-0.3641,-0.38,-0.3802,0.0,0.0,0.0,0.0,0.0,0.0,0.0,-1.5343,-1.5701,-1.6812,-1.5523,-1.4736,-1.534,-1.3901,-1.2735,-1.2348,-1.2175,-1.2311,-1.2788,-1.3195,-1.3549,-1.3888,-1.311,-1.206,-1.077,-1.0169,-0.9834,-0.974,-0.9973,-1.0136,-1.0239,-1.0794,-1.1124,-1.1276,-1.1753,-1.2175,-1.2573,-1.3043,-1.3219,-1.323,-1.4136,-1.5053,-1.5937,0.0,0.0,0.0,0.0,0.0,0.0,0.0,0.0,0.0,0.0,0.0,0.0,0.0,0.0,0.0,0.0,0.0,0.0,0.0,0.0,0.0,0.0,0.0,0.0,0.0,0.0,0.0,0.0,0.0,0.0,0.0,-0.4424,-0.2491,-0.2413,-0.0498,0.0858,0.0749,0.1113,0.1345,0.1274,0.1307,0.1286,0.1278,0.1485,0.1636,0.1709,0.1764,0.195,0.2234,0.2224,0.2235,0.2275,0.2156,0.2,0.1846,0.157,0.1374,0.1178,0.0825,0.0589,0.0353,-0.0117,-0.0428,-0.0699,-0.1777,-0.2306,-0.2492,-0.3129,-0.3403,-0.3474,-0.3625,-0.3705,-0.3793,0.0,0.0,0.0,0.0,0.0,0.0,0.0,-1.5418,-1.557,-1.631,-1.5364,-1.471,-1.4981,-1.3864,-1.2997,-1.2706,-1.2471,-1.2616,-1.3249,-1.3601,-1.3584,-1.3128,-1.2489,-1.1705,-1.0728,-1.0234,-0.994,-0.9877,-1.0205,-1.0411,-1.047,-1.1023,-1.1438,-1.1721,-1.207,-1.2669,-1.3443,-1.3636,-1.4082,-1.4646,-1.4592,-1.5055,-1.5822,-1.61,-1.6869,-1.7798,-1.7946,-1.8128,-1.8398,-1.8957,0.0,0.0,0.0,0.0,0.0,0.0,0.0,0.0,0.0,0.0,0.0,0.0,0.0,0.0,0.0,0.0,0.0,0.0,0.0,0.0,0.0,0.0,0.0,0.0,-0.3311,-0.1735,-0.1503,-0.0041,0.1099,0.1278,0.128,0.1315,0.1297,0.1322,0.1335,0.1322,0.1305,0.1363,0.1406,0.1489,0.1633,0.1812,0.1996,0.208,0.208,0.1884,0.1688,0.1454,0.1061,0.0746,0.051,0.0157,-0.0079,-0.0235,-0.0807,-0.1066,-0.1139,-0.2123,-0.2561,-0.2694,0.0,0.0,0.0,0.0,-0.377,-0.3821,0.0,0.0,0.0,0.0,0.0,0.0,0.0,-1.5536,-1.5333,-1.5388,-1.5044,-1.4612,-1.4131,-1.3724,-1.3409,-1.3314,-1.2996,-1.3134,-1.3962,-1.42,-1.3845,-1.2782,-1.2363,-1.1672,-1.0719,-1.059,-1.0385,-1.0102,-1.0641,-1.0871,-1.0769,-1.1319,-1.1858,-1.2386,-1.2701,-1.343,-1.4476,-1.445,-1.5188,-1.6336,-1.571,-1.5614,-1.5909,-1.6261,-1.7098,-1.8103,-1.8091,-1.8141,-1.8204,-1.818,0.0,0.0,0.0,0.0,0.0,0.0,0.0,0.0,0.0,0.0,0.0,0.0,0.0,0.0,0.0,0.0,0.0,0.0,0.0,0.0,0.0,0.0,0.0,0.0,-0.2047,-0.0691,-0.0691,-0.0043,0.0636,0.1184,0.1269,0.1309,0.1306,0.1331,0.1292,0.1223,0.0904,0.0783,0.0909,0.0,0.0,0.0,0.0,0.1729,0.1729,0.1493,0.1257,0.1061,0.0393,-0.0039,-0.0275,-0.0785,-0.106,-0.1097,-0.1575,-0.1802,-0.1831,-0.2471,-0.2799,-0.2944,-0.3415,-0.3675,-0.3828,-0.3837,-0.3861,-0.3944,0.0,0.0,0.0,0.0,0.0,0.0,0.0,-1.5418,-1.5552,-1.5983,-1.5296,-1.4931,-1.5227,-1.4448,-1.3873,-1.386,-1.3596,-1.3585,-1.3982,-1.4243,-1.3972,-1.307,-1.2521,-1.1964,-1.1334,-1.0896,-1.0667,-1.0718,-1.0947,-1.1099,-1.1209,-1.1834,-1.2383,-1.282,-1.3366,-1.4106,-1.4976,-1.5174,-1.5668,-1.6353,-1.6788,-1.6651,-1.6175,-1.5876,-1.6177,-1.677,-1.6837,-1.7134,-1.7618,-1.846,-1.8238,-1.7679,-1.813,-1.7557,0.0,0.0,0.0,0.0,0.0,0.0,0.0,0.0,0.0,0.0,0.0,0.0,0.0,0.0,0.0,0.0,0.0,0.0,0.0,-0.5129,-0.289,-0.112,-0.0754,-0.0533,-0.0132,0.0735,0.1166,0.1373,0.1308,0.103,0.0818,0.0801,0.0393,0.0176,0.0255,0.021,0.0291,0.0574,0.0598,0.0628,0.0628,0.0236,-0.0118,-0.0471,-0.098,0.0,-0.1764,-0.1883,-0.204,-0.2196,-0.2291,-0.236,-0.2393,-0.2773,-0.3154,-0.3465,-0.3574,-0.3714,-0.3893,-0.401,-0.4094,-0.4162,0.0,0.0,0.0,0.0,0.0,0.0,0.0,-1.5433,-1.5502,-1.5758,-1.562,-1.5408,-1.5225,-1.4972,-1.4681,-1.4328,-1.4209,-1.4146,-1.4105,-1.4133,-1.3905,-1.338,-1.2809,-1.2311,-1.1918,-1.1502,-1.1217,-1.1099,-1.1499,-1.1696,-1.1705,-1.2334,-1.2941,-1.3568,-1.4083,-1.4944,-1.6057,-1.6412,-1.698,-1.7678,-1.8019,-1.7982,-1.7691,-1.7081,-1.6935,-1.7059,-1.7021,-1.7005,-1.7109,-1.7485,-1.7096,-1.648,-1.6621,-1.6159,-1.5611,0.0,0.0,0.0,0.0,0.0,0.0,0.0,0.0,0.0,0.0,0.0,0.0,0.0,0.0,-0.9786,0.0,0.0,-0.5286,-0.3806,-0.2473,-0.1488,-0.1118,-0.0852,-0.0357,0.0574,0.0927,0.1143,0.135,0.0965,0.0703,0.0696,0.0044,-0.0351,-0.0304,-0.0341,-0.0293,-0.0166,0.004,0.0119,0.0,-0.0314,-0.0707,-0.1256,-0.1608,-0.196,-0.2353,-0.2353,-0.247,-0.2666,-0.2825,-0.2964,-0.3114,-0.372,-0.4187,-0.453,-0.4358,-0.4191,-0.4049,-0.4407,-0.4511,-0.4466,0.0,0.0,0.0,0.0,0.0,0.0,0.0,-1.5507,-1.5433,-1.5414,-1.5775,-1.5771,-1.4993,-1.5298,-1.5327,-1.4797,-1.4801,-1.4683,-1.4297,-1.4094,-1.3872,-1.3613,-1.3183,-1.2778,-1.2446,-1.2224,-1.195,-1.1519,-1.2129,-1.2429,-1.2429,-1.3086,-1.3867,-1.4729,-1.5225,-1.6171,-1.7407,-1.7825,-1.8513,-1.9317,-1.9321,-1.9399,-1.9436,-1.8806,-1.8294,-1.7815,-1.7643,-1.7281,-1.6813,-1.6448,-1.5933,-1.5352,-1.4914,-1.4747,-1.4742,-1.4966,-1.4723,0.0,0.0,0.0,0.0,0.0,0.0,0.0,0.0,0.0,-1.0495,-1.009,-0.9778,-0.9011,-0.7101,-0.6125,-0.4859,-0.2672,-0.2222,-0.2022,-0.1744,-0.1345,-0.0762,0.0179,0.0403,0.0628,0.0942,0.0538,0.0179,0.0178,-0.066,-0.114,-0.1107,-0.1119,-0.1097,-0.1088,-0.0698,-0.0603,-0.0785,-0.0981,-0.1412,-0.2037,-0.2234,-0.2508,-0.2862,-0.2862,-0.3018,-0.3249,-0.3605,-0.3838,-0.4067,-0.482,-0.5309,-0.5507,-0.5464,-0.5082,-0.4618,-0.4929,-0.5032,-0.498,0.0,0.0,0.0,0.0,0.0,0.0,0.0,0.0,-1.5563,-1.5497,-1.548,-1.5451,-1.5346,-1.5341,-1.5328,-1.5324,-1.532,-1.5108,-1.4587,-1.4432,-1.4127,-1.3613,-1.3709,-1.3492,-1.292,-1.2956,-1.2764,-1.2382,-1.2684,-1.3102,-1.3629,-1.47,-1.5685,-1.6545,-1.7364,-1.8093,-1.8717,-1.9307,-1.9888,-2.0434,-2.0658,-2.0721,-2.0597,-2.0396,-1.9541,-1.8359,-1.7926,-1.7505,-1.7074,-1.6556,-1.6034,-1.5517,-1.517,-1.4728,-1.4518,-1.5277,-1.5389,-1.5619,-1.7371,-1.7015,-1.5581,-1.3332,-1.2888,-1.2054,0.0,0.0,-0.9781,-0.816,-0.7641,-0.727,-0.6642,-0.5767,-0.4951,-0.429,-0.3745,-0.3258,-0.2777,-0.2688,-0.2285,-0.13,-0.0628,-0.0314,-0.0448,-0.1121,-0.1601,-0.1787,-0.2343,-0.2639,-0.2547,-0.2575,-0.2506,-0.2411,-0.2319,-0.2372,-0.2512,-0.2704,-0.3056,-0.3565,-0.3765,-0.3958,-0.4187,-0.4187,-0.4382,-0.4768,-0.5181,-0.5369,-0.5408,-0.587,-0.587,-0.5678,-0.6577,-0.6661,-0.616,-0.5509,-0.5555,-0.5999,0.0,0.0,0.0,0.0,0.0,0.0,0.0,0.0,0.0,0.0,-1.5853,-1.5894,-1.5509,-1.5432,-1.5438,-1.5471,-1.5396,-1.5278,-1.5119,-1.4837,-1.4693,-1.4707,-1.4294,-1.3955,-1.3645,-1.3318,-1.3259,-1.3491,-1.3915,-1.4531,-1.5326,-1.6208,-1.6874,-1.7427,-1.8304,-1.8903,-1.936,-2.0244,-2.0733,-2.0993,-2.142,-2.1492,-2.1331,-2.0969,-2.0235,-1.9271,-1.8363,-1.7472,0.0,-1.6033,-1.5405,-1.485,-1.4647,-1.4542,-1.462,-1.5389,-1.5491,-1.5298,-1.5071,-1.4703,-1.3803,-1.1424,-1.0621,-0.9927,-0.7922,-0.8383,-0.8965,-0.8192,-0.7575,-0.7084,-0.689,-0.5878,-0.4902,0.0,-0.4049,-0.3655,-0.3262,-0.3024,-0.2796,-0.2468,-0.1943,-0.1391,-0.0762,-0.1345,-0.1832,-0.1903,-0.2541,-0.2875,-0.2749,-0.2724,-0.2682,-0.2605,-0.2757,-0.2889,-0.2979,-0.3343,-0.3784,-0.4311,-0.4488,-0.4875,-0.5428,-0.5198,-0.5389,-0.589,-0.6465,-0.685,-0.7084,-0.7238,-0.7353,-0.7429,-0.7774,-0.7923,-0.7846,-0.7049,-0.6889,-0.7101,0.0,0.0,0.0,0.0,0.0,0.0,0.0,0.0,0.0,0.0,-1.6009,-1.6074,-1.5588,-1.554,-1.553,-1.5522,-1.5428,-1.5397,-1.5486,-1.5224,-1.5176,-1.5425,-1.4962,-1.4609,-1.4429,-1.4247,-1.4338,-1.4714,-1.5361,-1.611,-1.7002,-1.7634,-1.817,-1.8667,-1.9336,-1.9851,-2.0244,-2.1077,-2.1527,-2.1704,-2.2086,-2.2194,-2.203,-2.1391,-2.0652,-1.9795,-1.8638,-1.7509,-1.6481,-1.5772,-1.512,-1.4598,-1.4404,-1.4406,-1.465,-1.5475,-1.5776,-1.5568,-1.4328,-1.3555,-1.2683,-1.0904,-0.968,-0.8898,-0.864,-0.8783,-0.8928,-0.8921,-0.831,-0.7746,-0.7636,-0.648,-0.545,-0.5098,-0.4634,-0.42,-0.3793,-0.3531,-0.3394,-0.3372,-0.3114,-0.2562,-0.1731,-0.2055,-0.2377,-0.2601,-0.3135,-0.3513,-0.3507,-0.3486,-0.3468,-0.3438,-0.3508,-0.3663,-0.3872,-0.4132,-0.4565,-0.5124,-0.5176,-0.5563,-0.6202,-0.6163,-0.6468,-0.7153,-0.7617,-0.8118,-0.8609,-0.8651,-0.8841,-0.9112,-0.914,-0.9334,-0.9528,-0.8993,-0.8533,-0.8223,0.0,0.0,0.0,0.0,0.0,0.0,0.0,0.0,0.0,0.0,0.0,0.0,0.0,-1.5595,-1.5595,-1.5595,-1.5522,-1.551,-1.5504,-1.5488,-1.5438,-1.5311,-1.5707,-1.5742,-1.5278,-1.6062,-1.6364,-1.6045,-1.6898,-1.7716,-1.846,-1.8999,-1.9774,-2.0721,-2.0871,-2.1253,-2.1746,-2.1926,-2.231,-2.2844,-2.2867,-2.2867,-2.2772,-2.1915,-2.0833,-1.9681,-1.8658,-1.7766,-1.6967,-1.6155,-1.557,-1.5119,-1.4788,-1.4474,-1.4453,-1.5645,-1.6587,-1.7198,-1.7025,-1.5372,-1.3569,-1.3164,-1.1708,-1.039,-1.0569,-1.0255,-1.0025,-1.0197,-0.9724,-0.9165,-0.8911,-0.7805,-0.6922,-0.6922,-0.6045,-0.5212,-0.4708,-0.4669,-0.4459,-0.395,-0.3872,-0.3906,0.0,-0.3719,-0.3855,-0.4572,-0.4832,-0.5142,-0.5581,-0.548,-0.5462,-0.5497,-0.5128,-0.5221,-0.5824,-0.5554,-0.5689,-0.6163,-0.6029,-0.6036,-0.624,-0.7057,-0.7893,-0.8642,-0.8656,-0.9112,-0.9857,-1.0062,-1.0132,-1.019,-1.0807,-1.1037,-1.1074,-1.1223,-1.0426,-0.9334,0.0,0.0,0.0,0.0,0.0,0.0,0.0,0.0,0.0,0.0,0.0,0.0,0.0,0.0,0.0,0.0,-1.5713,-1.5742,-1.5834,-1.5879,-1.6068,-1.6396,-1.6276,-1.6237,-1.628,-1.6178,-1.6672,-1.7758,-1.8049,-1.9046,-2.062,-2.0906,-2.1304,-2.1819,-2.2128,-2.2365,-2.2549,-2.3001,-2.357,-2.4082,-2.3238,-2.3106,-2.3213,-2.1282,-2.0066,-1.9305,0.0,-1.7645,-1.6903,-1.6044,-1.5568,-1.5237,-1.474,-1.4949,-1.5545,-1.6371,-1.6807,-1.6795,-1.5729,-1.4737,-1.3909,-1.3331,-1.2504,-1.1862,-1.2176,-1.1756,-1.1364,-1.1397,-1.1084,-1.0748,-1.0624,-0.9457,-0.847,-0.847,-0.717,-0.6001,-0.5502,-0.5299,-0.5102,-0.4681,-0.436,0.0,0.0,0.0,0.0,-0.4868,-0.5168,-0.5399,-0.5491,-0.545,-0.5355,-0.5195,-0.5427,-0.5589,-0.5695,-0.6163,-0.6508,-0.6668,-0.7415,-0.7947,-0.8266,-0.9107,-0.949,-0.9528,-1.0056,-1.0357,-1.0507,-1.085,-1.1068,-1.1217,-1.1558,-1.1706,-1.1706,-1.1929,-1.1706,-1.1285,0.0,0.0,0.0,0.0,0.0,0.0,0.0,0.0,0.0,0.0,0.0,0.0,0.0,0.0,0.0,0.0,0.0,-1.5861,-1.5995,-1.6132,-1.6397,-1.6867,-1.6692,-1.6718,-1.6959,-1.6886,-1.7429,-1.8672,-1.9008,-1.989,-2.1258,-2.1431,-2.177,-2.2283,-2.2571,-2.2915,-2.3231,-2.334,-2.3574,-2.3755,-2.2869,-2.2666,-2.2706,-2.1058,-2.0198,0.0,-1.8748,-1.8019,-1.7369,-1.6308,-1.5818,-1.5515,-1.4772,-1.4938,-1.5546,-1.6093,-1.6109,-1.5769,-1.48,-1.4255,-1.3867,-1.3441,-1.3142,-1.3047,-1.343,-1.2964,-1.251,-1.2728,-1.2348,-1.2051,-1.2051,-1.0578,-0.9354,-0.9279,-0.7731,-0.6484,-0.6238,-0.6222,-0.615,-0.5913,-0.5616,-0.543,0.0,0.0,0.0,-0.515,-0.5437,-0.5729,-0.5942,-0.5847,-0.584,-0.5882,-0.6033,-0.6225,-0.6439,-0.7015,-0.7406,-0.7643,-0.8656,-0.9293,-0.9665,-1.0536,-1.0881,-1.0775,-1.1366,-1.1737,-1.1879,-1.2137,-1.2395,-1.2659,-1.2842,-1.2915,-1.2959,-1.3069,-1.3105,-1.3032,0.0,0.0,0.0,0.0,0.0,0.0,0.0,0.0,0.0,0.0,0.0,0.0,0.0,0.0,0.0,0.0,0.0,0.0,-1.5984,-1.625,-1.6496,-1.6715,-1.698,-1.7197,-1.7333,-1.8083,-1.8579,-1.8809,-1.9713,-2.0288,-2.0526,-2.0726,-2.1313,-2.2185,-2.231,-2.287,-2.3652,-2.295,-2.2498,-2.2182,-2.193,-2.1712,-2.1502,-2.1279,-2.1131,-2.0876,-1.9549,-1.8849,-1.8325,-1.6886,-1.6246,-1.5914,-1.4948,-1.4564,-1.4563,-1.498,-1.4764,-1.4378,-1.4398,-1.4025,-1.3669,-1.3655,-1.3728,-1.3949,-1.4445,-1.3978,-1.3583,-1.4044,-1.3617,-1.3126,0.0,0.0,-0.9769,-0.9563,-0.7887,-0.6738,-0.6969,-0.7342,-0.7552,0.0,0.0,0.0,0.0,0.0,0.0,-0.5565,0.0,-0.6276,-0.6929,-0.6726,-0.6896,-0.753,-0.7078,-0.7234,-0.8105,-0.8132,-0.8494,-0.916,-0.9723,-1.0111,-1.037,-1.134,-1.1983,-1.2372,-1.2579,-1.3091,-1.3796,-1.3745,-1.397,-1.4346,-1.4525,-1.4605,-1.4605,-1.4605,-1.4605,-1.4461,0.0,0.0,0.0,0.0,0.0,0.0,0.0,0.0,0.0,0.0,0.0,0.0,0.0,0.0,0.0,0.0,0.0,0.0,-1.5847,-1.6232,-1.662,-1.6906,-1.7293,-1.7582,-1.7821,-1.7915,-1.8317,-1.9014,-1.931,-1.9963,-2.0943,-2.1044,-2.1389,-2.1891,-2.1939,-2.2085,-2.2312,-2.2274,-2.286,-2.3716,-2.262,-2.2605,-2.3113,-2.167,-2.0834,-2.029,-1.9187,-1.8989,-1.8947,-1.6993,-1.5988,-1.553,-1.5212,-1.5343,-1.5544,-1.525,-1.5359,-1.5365,-1.4541,-1.4437,-1.4539,-1.4364,-1.4775,-1.5178,-1.5166,-1.5248,-1.515,-1.4584,-1.4719,-1.4737,-1.4097,0.0,0.0,-1.1442,-0.9739,0.0,-0.8516,-0.8586,0.0,-0.8049,0.0,-0.8055,-0.7581,-0.7904,0.0,0.0,-0.7715,-0.7599,-0.7909,-0.8019,-0.818,-0.8445,-0.8618,-0.8962,-0.9468,-0.9876,-1.0458,-1.1167,-1.1222,-1.1575,-1.2228,-1.2485,-1.2732,-1.2981,-1.3353,-1.3564,-1.3745,-1.4042,-1.4302,-1.4525,-1.4569,-1.4605,-1.4605,-1.4605,-1.4605,-1.4569,0.0,0.0,0.0,0.0,0.0,0.0,0.0,0.0,0.0,0.0,0.0,0.0,0.0,0.0,0.0,0.0,0.0,0.0,0.0,-1.6156,-1.6469,-1.6674,-1.7124,-1.7482,-1.7694,-1.8179,-1.851,-1.8739,-1.9264,-1.9719,-2.0149,-2.0386,-2.0737,-2.119,-2.1395,-2.1619,-2.1835,-2.1684,-2.2136,0.0,0.0,-2.1996,-2.2532,-2.1714,-2.1218,-2.0831,-1.9944,0.0,0.0,0.0,0.0,-1.5437,-1.5676,-1.5516,-1.5257,-1.5248,-1.5275,-1.5147,-1.445,-1.4619,-1.4887,-1.4545,-1.4925,-1.5446,-1.567,-1.607,-1.6341,-1.611,-1.6435,-1.6449,-1.55,-1.4293,-1.3129,0.0,0.0,0.0,-1.0262,-1.0447,-1.0465,0.0,-0.9902,0.0,-0.893,-0.8995,-0.9298,0.0,-0.8984,-0.8653,-0.9203,-0.8969,-0.9094,-0.9729,-0.9503,-0.9715,-1.0483,-1.094,-1.1583,-1.2344,-1.2425,-1.2799,-1.3397,-1.376,-1.397,-1.4106,-1.4617,-1.4796,-1.4796,-1.5054,-1.5204,-1.524,-1.524,-1.5213,-1.5114,-1.5114,-1.5114,-1.5114,0.0,0.0,0.0,0.0,0.0,0.0,0.0,0.0,0.0,0.0,0.0,0.0,0.0,0.0,0.0,0.0,0.0,0.0,0.0,0.0,0.0,-1.634,-1.6921,-1.7297,-1.7432,-1.8591,-1.895,-1.8378,-1.9301,-1.9441,-1.8815,-1.9234,-1.9697,-2.0185,-2.0607,-2.1063,-2.1471,-2.0964,-2.0928,-2.114,-2.0869,-2.097,-2.1309,0.0,0.0,0.0,0.0,0.0,0.0,0.0,-1.6833,-1.566,-1.6091,-1.5477,-1.4643,-1.5232,-1.5058,-1.4641,-1.4437,-1.4843,-1.5145,-1.4519,-1.479,-1.5369,-1.5911,-1.6596,-1.7194,-1.7692,-1.8039,-1.7897,-1.6755,-1.5535,-1.4179,-1.2598,0.0,-1.1875,-1.1839,-1.2329,-1.2548,-1.228,-1.1905,-1.14,-1.0613,-1.0247,-1.0351,-1.0993,-1.0018,-0.9718,-1.0485,-0.9898,-1.0043,-1.115,-1.0243,-1.0321,-1.1534,-1.1868,-1.2409,-1.3222,-1.3571,-1.3897,-1.4186,-1.4947,-1.5275,-1.5346,-1.5885,-1.6096,-1.6132,-1.6237,-1.6237,-1.6132,-1.6132,-1.6,-1.5799,-1.5885,-1.5833,-1.5772,0.0,0.0,0.0,0.0,0.0,0.0,0.0,0.0,0.0,0.0,-1.6099,-1.5994,0.0,0.0,0.0,0.0,0.0,0.0,0.0,0.0,0.0,0.0,-1.7467,-1.7987,-1.8129,-1.8882,-1.9098,-1.8717,-1.8972,-1.881,-1.8323,-1.8454,-1.8652,-1.892,-1.9163,-1.933,-1.9408,-1.9479,-2.029,-2.149,-2.1159,-2.1686,-2.2638,0.0,0.0,0.0,0.0,0.0,0.0,0.0,-1.8139,-1.6425,-1.6072,-1.5886,-1.5812,-1.5925,-1.6054,-1.6029,-1.5488,-1.5801,-1.6015,-1.504,-1.5579,-1.6236,-1.592,-1.6938,0.0,-1.7341,-1.7923,-1.8041,-1.6477,-1.5685,-1.4747,-1.3199,-1.2685,-1.2489,-1.2533,-1.2485,-1.2439,0.0,-1.2243,-1.191,-1.1294,-1.1324,0.0,0.0,-1.1581,-1.1301,-1.115,-1.1541,-1.191,-1.2228,-1.2169,-1.2645,-1.3813,-1.3741,-1.4049,-1.4804,-1.4875,-1.4947,-1.5018,-1.548,-1.5806,-1.5956,-1.6061,-1.6167,-1.6272,-1.6307,-1.6272,-1.6272,-1.6272,-1.6034,-1.5787,-1.6278,-1.6069,-1.5617,0.0,0.0,0.0,0.0,0.0,0.0,0.0,-1.7041,-1.7219,-1.7219,-1.6966,-1.6907,-1.7189,-1.6966,-1.6757,0.0,0.0,0.0,0.0,0.0,0.0,0.0,0.0,0.0,-1.8538,-1.9561,-1.9742,-1.9051,0.0,-1.9449,-1.8529,-1.8689,-1.8812,-1.8899,-1.8782,-1.9161,-1.9824,-1.9529,-2.031,-2.1731,-2.1547,-2.1966,0.0,0.0,0.0,0.0,0.0,0.0,0.0,0.0,-1.8468,-1.7139,-1.6991,-1.6661,-1.6332,-1.6428,-1.6325,-1.6126,-1.5915,-1.6064,-1.6135,-1.5439,-1.5928,-1.6506,-1.6148,0.0,0.0,-1.8124,-1.8853,-1.9141,-1.7717,-1.7053,0.0,-1.4614,-1.4247,-1.4116,-1.391,-1.3801,-1.3701,-1.3572,-1.3308,-1.2954,-1.2545,-1.219,-1.2298,-1.2988,-1.2609,-1.2412,-1.2541,-1.3035,-1.3138,-1.2661,-1.3011,-1.3422,-1.3933,-1.4141,-1.4561,-1.5204,-1.5204,-1.5417,-1.5771,-1.5982,-1.6237,-1.6517,-1.6517,-1.6551,-1.6621,-1.6621,-1.6551,-1.6473,-1.6473,-1.6287,-1.6041,-1.6341,-1.6287,-1.6119,0.0,0.0,0.0,0.0,0.0,0.0,0.0,-1.7833,-1.7908,-1.7908,-1.8026,-1.8115,-1.8132,-1.7878,-1.7548,0.0,0.0,0.0,0.0,0.0,0.0,0.0,0.0,0.0,0.0,0.0,0.0,-1.9621,-2.0478,0.0,0.0,0.0,0.0,0.0,-1.8962,-1.9451,-2.0306,-1.993,-2.0576,0.0,0.0,-2.1957,0.0,0.0,0.0,0.0,0.0,0.0,0.0,0.0,-1.865,-1.7783,-1.7942,-1.733,-1.6616,-1.6894,-1.657,-1.6159,-1.6226,-1.6314,-1.6257,-1.5855,-1.6257,-1.668,-1.6469,-1.7747,0.0,-1.89,-1.9779,-2.0169,-1.9008,-1.8416,-1.7561,0.0,-1.5687,-1.5541,-1.4961,-1.4975,-1.4893,0.0,-1.4224,0.0,-1.3521,-1.2919,0.0,-1.3731,-1.3426,-1.3349,-1.3797,-1.3911,-1.3689,-1.316,-1.3509,-1.3807,-1.4101,-1.4561,-1.5089,-1.5683,-1.5586,-1.5877,-1.6421,-1.6421,-1.6586,-1.6908,-1.6908,-1.6908,-1.6908,-1.6908,-1.6749,-1.6555,-1.6555,-1.6406,-1.6206,-1.633,-1.6426,-1.6564,0.0,0.0,0.0,0.0,0.0,0.0,0.0,-1.8207,-1.8612,-1.8612,-1.9096,-1.945,-1.951,-1.8433,-1.7923,0.0,0.0,0.0,0.0,0.0,0.0,0.0,0.0,0.0,0.0,0.0,0.0,-2.0661,-2.0755,0.0,0.0,0.0,0.0,0.0,0.0,-1.9657,-1.9201,-1.9993,0.0,0.0,0.0,0.0,0.0,0.0,0.0,0.0,0.0,0.0,0.0,0.0,0.0,-1.8249,-1.8264,-1.7569,-1.6859,-1.7381,0.0,0.0,-1.6791,-1.6959,-1.7054,-1.6459,-1.679,-1.7142,-1.6821,0.0,-1.8985,-1.89,-1.9863,-2.0359,-1.9268,-1.8924,-1.8164,-1.6267,-1.6105,-1.5842,-1.4704,-1.4862,-1.4872,-1.4217,0.0,0.0,-1.3557,-1.3338,-1.3313,-1.3528,-1.4044,-1.4307,-1.4251,-1.3348,-1.3267,-1.4204,-1.4044,-1.4641,-1.6026,-1.6097,-1.6481,-1.7198,-1.689,-1.6769,-1.6839,-1.6839,-1.6874,-1.6908,-1.6908,-1.6908,-1.6908,-1.6908,-1.6663,-1.6334,-1.6334,-1.6105,-1.5812,-1.6387,-1.6468,-1.6422,0.0,0.0,0.0,0.0,0.0,0.0,-1.884,-1.8995,-1.9156,-1.9227,-1.9378,-1.952,-1.9629,-1.9099,-1.8693,-1.8629,0.0,0.0,0.0,0.0,0.0,0.0,0.0,0.0,0.0,0.0,-2.0668,-2.0368,-2.0872,0.0,0.0,0.0,0.0,0.0,0.0,-2.0241,-2.079,-2.0733,0.0,0.0,0.0,0.0,0.0,0.0,0.0,0.0,0.0,0.0,-2.0339,0.0,0.0,0.0,-1.8597,-1.8078,0.0,0.0,-1.7751,-1.7624,-1.7598,-1.7673,-1.7684,-1.7267,-1.7356,-1.7435,-1.7126,0.0,-1.8983,-1.8905,-1.9863,-2.0524,-1.9875,-1.915,-1.8344,-1.7409,-1.6601,-1.5861,-1.537,-1.5345,-1.5292,-1.4985,-1.4933,0.0,0.0,0.0,-1.3939,-1.3985,-1.4571,-1.4869,-1.4789,-1.4365,-1.4464,-1.5175,-1.4997,-1.5365,-1.6298,-1.642,-1.6793,-1.7404,-1.7242,-1.7339,-1.7564,-1.7564,-1.7564,-1.7564,-1.7564,-1.7461,-1.7254,-1.7254,-1.6884,-1.6288,-1.6288,-1.6056,-1.5767,-1.6256,-1.6522,-1.6711,0.0,0.0,0.0,0.0,0.0,-1.9593,-1.9556,-1.9465,-1.9431,-1.9538,-1.9446,-1.9413,-1.9538,-1.9446,-1.9218,-1.8847,-1.8876,0.0,0.0,0.0,0.0,0.0,0.0,0.0,0.0,0.0,-2.0429,-2.0206,-2.0811,-2.0893,0.0,0.0,-2.086,-2.0772,0.0,0.0,0.0,0.0,0.0,0.0,0.0,0.0,0.0,0.0,0.0,0.0,0.0,0.0,0.0,0.0,0.0,0.0,0.0,0.0,0.0,0.0,-1.797,-1.8,-1.784,-1.7888,-1.7947,-1.7755,-1.771,-1.7657,0.0,0.0,-1.9027,-1.8936,-1.9863,-2.0624,-2.0347,-1.9592,-1.8818,-1.8244,-1.7281,-1.6406,-1.5892,-1.5859,-1.5793,-1.5541,0.0,-1.539,-1.5312,-1.4961,-1.4705,-1.4669,-1.5098,-1.5364,-1.53,-1.5418,-1.5569,-1.5851,-1.5897,-1.6184,-1.6802,-1.7054,-1.7398,-1.7891,-1.7789,-1.7876,-1.8144,-1.8042,-1.8008,-1.8008,-1.8008,-1.7872,-1.7632,-1.7508,-1.7035,-1.6426,-1.6303,-1.6095,-1.5873,-1.6199,-1.6596,-1.7039,0.0,0.0,0.0,0.0,0.0,0.0,-1.9413,-1.9395,-1.9395,-1.9395,-1.9339,-1.9339,-1.9395,-1.9339,-1.9302,-1.9288,-1.9343,0.0,0.0,0.0,0.0,0.0,0.0,0.0,0.0,0.0,-2.0091,-2.0497,-2.0564,-2.0747,-2.1007,-2.1135,-2.0951,-2.0539,0.0,0.0,0.0,0.0,0.0,0.0,0.0,0.0,0.0,0.0,0.0,0.0,0.0,0.0,0.0,0.0,0.0,0.0,0.0,0.0,0.0,0.0,-1.7885,-1.7955,-1.7298,-1.7411,-1.77,-1.7705,-1.771,-1.7706,0.0,-1.8472,-1.9149,-1.8936,-1.9863,-2.0662,-2.0511,-2.0322,-1.9773,-1.8501,-1.8232,-1.7629,-1.6105,-1.6311,-1.6319,0.0,0.0,-1.5797,-1.562,-1.5696,-1.5691,-1.5505,-1.5691,-1.5805,-1.577,-1.6114,-1.6271,-1.6192,-1.6652,-1.7226,-1.7974,-1.8313,-1.8674,-1.9065,-1.8674,-1.8482,-1.8482,-1.8144,-1.8008,-1.8008,-1.8008,-1.8008,-1.7944,-1.7482,-1.7067,-1.6668,-1.6316,-1.6207,-1.619,-1.6265,-1.6696,-1.7201,0.0,0.0,0.0,0.0,0.0,0.0,0.0,-1.9246,-1.9228,-1.9321,-1.9228,-1.9195,-1.9321,-1.9228,-1.9157,-1.9157,-1.9321,0.0,0.0,0.0,0.0,0.0,0.0,0.0,0.0,0.0,-1.9603,-1.9693,-1.9967,-2.016,-2.0263,-2.0565,-2.0636,-2.0511,-2.0734,-2.0847,0.0,0.0,0.0,0.0,0.0,0.0,0.0,0.0,0.0,0.0,0.0,0.0,0.0,0.0,0.0,0.0,0.0,0.0,0.0,-1.8414,0.0,0.0,-1.8027,-1.797,-1.7943,-1.7868,-1.7703,-1.767,-1.8045,-1.8518,-1.9042,-1.9425,-2.0151,-2.0662,-2.0511,-1.9708,-1.8887,-1.8439,-1.7629,-1.6839,0.0,0.0,0.0,-1.6215,-1.6179,-1.6156,0.0,0.0,-1.6246,-1.6447,-1.6525,-1.656,-1.656,-1.6908,-1.6859,-1.6307,-1.6806,-1.727,-1.7588,-1.81,-1.8472,-1.8674,-1.8841,-1.8908,-1.8908,-1.8808,-1.8741,-1.8741,-1.8741,-1.8445,-1.7932,-1.776,-1.7293,-1.666,-1.6241,-1.6121,-1.6188,-1.621,-1.6487,-1.6827,0.0,0.0,0.0,0.0,0.0,0.0,0.0,-1.9139,-1.912,-1.9195,-1.9139,-1.912,-1.9213,-1.9139,-1.9101,-1.9101,-1.9195,0.0,0.0,0.0,0.0,0.0,0.0,0.0,0.0,-1.9213,-1.9265,-1.9213,-1.9533,-1.9734,-1.9826,-2.0122,-2.0433,-2.0767,-2.0656,-2.0788,0.0,0.0,0.0,0.0,0.0,0.0,-2.0714,0.0,0.0,0.0,0.0,0.0,0.0,0.0,0.0,0.0,0.0,0.0,0.0,0.0,-1.8736,-1.8769,0.0,-1.8281,-1.8002,-1.825,-1.7904,-1.7637,-1.8297,-1.8647,-1.9014,-1.9658,-2.0281,-2.0599,-2.0233,-1.9436,-1.8672,-1.8098,-1.737,-1.6768,-1.6476,0.0,0.0,-1.6751,0.0,0.0,0.0,-1.6482,-1.6621,-1.6874,-1.6908,-1.6908,-1.6908,-1.7314,-1.7214,-1.6396,-1.7185,-1.7716,-1.792,-1.8428,-1.8764,-1.8908,-1.9297,-1.9495,-1.9452,-1.933,-1.9274,-1.9264,-1.8988,-1.8553,0.0,-1.7907,-1.7536,-1.7025,-1.6612,-1.6613,-1.6805,-1.6469,-1.6573,-1.6845,0.0,0.0,0.0,0.0,0.0,0.0,0.0,-1.9101,-1.9101,-1.9101,-1.9101,-1.9101,-1.9101,-1.9101,-1.9101,-1.9101,0.0,0.0,0.0,0.0,0.0,0.0,0.0,0.0,-1.9174,-1.9116,-1.9116,-1.9174,-1.9242,-1.9398,-1.9654,-1.9714,-2.0207,-2.1017,-2.0791,-2.0819,-2.1038,0.0,0.0,0.0,0.0,0.0,0.0,0.0,0.0,0.0,0.0,0.0,0.0,0.0,0.0,0.0,0.0,0.0,0.0,0.0,0.0,0.0,0.0,-1.8435,-1.7919,-1.877,-1.8212,-1.767,-1.858,-1.8884,0.0,-1.9662,-2.0234,-2.041,-1.9696,-1.9411,-1.8871,-1.7673,-1.7484,-1.7267,0.0,-1.7048,0.0,0.0,-1.6917,0.0,-1.6598,-1.6793,-1.6934,-1.6932,-1.6994,-1.7012,-1.7012,-1.7476,-1.7422,-1.6698,-1.7783,-1.8452,-1.8657,-1.9067,-1.9386,-1.9572,-1.9944,-2.0085,-2.0052,-1.9716,-1.9541,-1.9455,-1.8688,-1.8319,-1.8289,-1.7823,-1.7657,-1.7626,-1.7276,-1.7433,-1.774,-1.689,-1.6879,-1.7158,0.0,0.0,0.0,0.0,0.0,0.0,0.0,0.0,0.0,0.0,-1.9101,-1.9101,-1.9101,-1.9101,-1.9101,0.0,0.0,0.0,0.0,0.0,0.0,0.0,0.0,0.0,-1.9856,-1.9362,-1.9348,-1.987,-1.9386,-1.9153,-1.9168,-1.9186,-1.9297,-1.9503,-1.945,-1.9597,-1.9902,-1.994,0.0,0.0,0.0,0.0,0.0,0.0,0.0,0.0,-1.9375,-1.948,0.0,0.0,0.0,0.0,0.0,0.0,0.0,0.0,-2.0124,-2.0097,-2.0258,0.0,-1.8145,-1.8768,-1.8439,-1.8215,0.0,-1.958,-1.9603,-1.9636,0.0,0.0,-1.9501,-1.8593,-1.7922,-1.8132,-1.7656,-1.7223,-1.706,-1.7206,0.0,-1.6975,-1.6895,-1.672,-1.6337,-1.6947,-1.7338,-1.7283,-1.7721,-1.7964,-1.7964,-1.8202,-1.8287,-1.8245,-1.8793,-1.8548,-1.7424,-1.8581,-1.9164,-1.9231,-1.9813,-1.991,-1.954,-1.9222,-1.8881,-1.8489,-1.8062,-1.7647,-1.7316,-1.7213,-1.7172,-1.7141,-1.6741,-1.692,-1.7301,-1.6726,-1.6619,-1.675,0.0,0.0,0.0,0.0,0.0,0.0,0.0,0.0,0.0,0.0,0.0,-1.9101,-1.9101,-1.9101,0.0,0.0,0.0,0.0,0.0,0.0,0.0,0.0,0.0,-1.9725,-2.0088,-1.9449,-1.9435,-2.0103,-1.9435,-1.9059,-1.8993,-1.8993,-1.9133,-1.9367,-1.9367,-1.941,-1.9457,-1.9701,-1.9992,-2.0327,-2.0637,0.0,0.0,0.0,0.0,0.0,-1.9946,-1.9964,0.0,-1.9936,-1.9705,-1.9424,0.0,0.0,0.0,0.0,-2.0398,-2.0729,-2.072,-1.9614,-1.861,-1.9172,-1.8885,-1.8702,-1.9603,0.0,0.0,0.0,0.0,0.0,0.0,0.0,-1.8059,-1.7556,-1.7551,0.0,0.0,0.0,-1.7212,-1.7372,-1.6932,-1.6742,0.0,-1.7402,-1.7639,-1.7819,-1.8174,-1.8371,-1.8371,-1.8549,-1.8583,-1.8469,-1.9116,-1.904,-1.819,-1.9259,-1.9791,-1.9781,-2.0081,-2.0091,-1.9845,-1.9271,-1.8785,-1.8394,-1.7847,-1.7364,-1.7017,-1.7017,-1.7017,-1.6986,-1.6748,-1.6989,-1.7338,-1.6717,-1.6598,-1.6726,0.0,0.0,0.0,0.0,0.0,0.0,0.0,0.0,0.0,0.0,0.0,0.0,0.0,0.0,0.0,0.0,0.0,0.0,0.0,0.0,0.0,0.0,0.0,-2.0049,-2.0068,-1.9397,-1.9382,-2.0068,-1.9382,-1.9021,-1.8955,-1.8955,-1.9204,-1.9627,-1.9727,-1.9652,-1.9449,-1.9697,-1.9866,-1.9994,-2.0549,0.0,0.0,0.0,0.0,0.0,0.0,0.0,0.0,-1.9986,-1.9775,-1.9621,-1.92,0.0,0.0,0.0,0.0,0.0,-2.0799,-1.993,-1.922,-1.9812,-1.9486,-1.9198,-1.9799,0.0,0.0,0.0,0.0,0.0,0.0,-1.8677,0.0,0.0,0.0,0.0,-1.8306,-1.779,-1.7606,-1.8043,-1.7263,0.0,-1.791,-1.7919,-1.8027,-1.8372,-1.86,-1.8684,-1.864,-1.8875,-1.879,-1.8344,-1.9262,-1.9737,-1.9662,-2.0202,-2.0491,-2.048,-2.0353,-2.0262,-2.0129,-1.9366,-1.8833,-1.8506,-1.7731,-1.7238,-1.6972,-1.6943,-1.6913,-1.6913,-1.6913,-1.7151,-1.7399,-1.6663,-1.6622,-1.6822,0.0,0.0,0.0,0.0,0.0,0.0,0.0,0.0,0.0,0.0,0.0,0.0,0.0,0.0,0.0,0.0,0.0,0.0,0.0,0.0,0.0,-2.0675,-2.0067,-1.9807,-1.994,-1.9229,-1.9214,-1.9926,-1.9214,-1.8817,-1.875,-1.875,-1.8787,-1.8882,-1.9407,-1.9612,-1.9595,-2.0083,-2.0591,-2.1056,-2.1177,0.0,0.0,0.0,0.0,0.0,0.0,0.0,0.0,-2.1645,-2.1434,-2.1082,-2.1504,0.0,0.0,0.0,0.0,0.0,-2.0724,-2.0369,-2.0089,-2.0467,-2.0111,-1.9812,-2.0412,0.0,0.0,0.0,0.0,0.0,0.0,-1.812,-1.776,0.0,0.0,-1.9338,0.0,0.0,-1.9233,-1.8682,0.0,-1.8135,-1.7647,-1.8215,-1.8668,-1.8807,-1.936,-1.9528,-1.921,-1.9639,-1.9748,-1.9367,-2.0085,-2.0242,-1.9852,-1.9977,-2.0008,-1.9997,-1.9871,-1.9562,-1.9126,-1.8758,-1.8328,-1.7812,-1.7173,-1.6867,-1.681,-1.6592,-1.6477,-1.6477,-1.6477,-1.6529,-1.657,-1.6454,-1.6454,-1.6438,0.0,0.0,0.0,0.0,0.0,0.0,0.0,0.0,0.0,0.0,0.0,0.0,0.0,0.0,0.0,0.0,0.0,0.0,0.0,0.0,0.0,-2.0635,-2.0245,-2.001,-1.9855,-1.9151,-1.9137,-1.9855,-1.948,-1.9102,-1.8692,-1.8634,-1.8779,-1.9083,-1.9365,-1.9689,-2.0056,-2.0632,-2.104,-2.1344,0.0,0.0,0.0,0.0,0.0,0.0,0.0,0.0,0.0,0.0,-2.1518,-2.1279,-2.1229,0.0,0.0,0.0,0.0,0.0,-2.0774,-2.0599,-2.0473,-2.0448,-2.0116,-1.9862,-2.0143,0.0,0.0,0.0,0.0,0.0,0.0,0.0,-1.8976,-1.9775,0.0,-2.0114,-2.0396,-1.9965,-1.9542,0.0,0.0,-1.8395,-1.8674,-1.8918,-1.9159,-1.9404,-1.9792,-1.9803,-1.9383,-1.9933,-1.9931,-1.9196,-1.9909,-2.009,-1.9572,-1.9433,-1.9515,-1.9799,-1.9446,-1.9137,-1.8885,-1.8469,-1.8064,-1.7684,-1.7407,-1.7172,-1.7004,-1.6733,-1.663,-1.6602,-1.6459,-1.6413,-1.6413,-1.6413,-1.6413,-1.6374,0.0,0.0,0.0,0.0,0.0,0.0,0.0,0.0,0.0,0.0,0.0,0.0,0.0,0.0,0.0,0.0,0.0,0.0,0.0,0.0,-2.0953,-2.0267,-2.0204,-2.0055,-1.9764,-1.9068,-1.9073,-1.9749,-1.9538,-1.9166,-1.8653,-1.8692,-1.8961,-1.9404,-1.9719,-2.0133,-2.0639,-2.1251,-2.1504,-2.1547,0.0,0.0,0.0,0.0,0.0,0.0,0.0,0.0,0.0,0.0,0.0,0.0,0.0,0.0,0.0,-2.0684,-2.0914,-2.1202,-2.0641,-2.0533,-2.0524,-2.0258,-2.0054,-1.985,-1.9721,0.0,0.0,0.0,0.0,0.0,0.0,-1.9485,0.0,-2.05,-2.0742,-2.0885,-2.0722,-2.0256,-1.9942,-1.9949,-1.9116,-1.8887,-1.9883,-1.9752,-1.977,-2.0161,-2.017,-1.9971,-1.9598,-2.0017,-1.9879,-1.8999,-1.972,-1.9825,-1.926,-1.9051,-1.9132,-1.9493,-1.8965,-1.8724,-1.8701,-1.8283,-1.7975,-1.7794,-1.7739,-1.7534,-1.7312,-1.7004,-1.6892,-1.6864,-1.6602,-1.6459,-1.6413,-1.6413,-1.6413,-1.6413,0.0,0.0,0.0,0.0,0.0,0.0,0.0,0.0,0.0,0.0,0.0,0.0,0.0,0.0,0.0,0.0,0.0,0.0,0.0,0.0,-2.0175,-1.9508,-1.948,-1.9528,-1.9594,-1.89,-1.8872,-1.9594,-1.8914,-1.8559,-1.8531,-1.9087,-1.9348,-1.9446,-2.0646,-2.1181,-2.1265,-2.1884,-2.2137,-2.2137,-2.218,0.0,0.0,0.0,0.0,0.0,0.0,0.0,0.0,0.0,0.0,0.0,0.0,0.0,-2.1604,-2.0807,-2.0795,-2.0853,-2.0081,-2.0047,-2.0233,-2.0207,-2.0182,0.0,-1.9527,-1.9305,0.0,-1.9436,0.0,0.0,0.0,-2.0347,-2.0643,-2.0389,-2.1196,-2.184,-2.162,0.0,-2.1332,-2.079,-2.0459,-2.0443,-2.0789,-2.0625,-2.0667,-2.1094,-2.0659,-2.0292,-2.0062,-1.9968,-1.9823,-1.9547,-1.9924,-1.9767,-1.9129,-1.9089,-1.9044,-1.8942,-1.8409,-1.8169,-1.8169,-1.8134,-1.8084,-1.8057,-1.7822,-1.7684,-1.7629,-1.7312,-1.7162,-1.7134,-1.6864,-1.663,-1.6413,-1.6413,-1.6413,-1.6413,0.0,0.0,0.0,0.0,0.0,0.0,0.0,0.0,0.0,0.0,0.0,0.0,0.0,0.0,0.0,0.0,0.0,0.0,0.0,-1.9775,-1.9663,-1.9404,-1.939,-1.941,-1.9471,-1.8826,-1.8812,-1.9471,-1.8812,-1.8694,-1.9073,-1.9277,-1.9621,-2.0063,-2.0928,-2.1504,-2.187,-2.2109,-2.2208,-2.2208,-2.2208,-2.2208,0.0,0.0,0.0,0.0,0.0,0.0,0.0,0.0,-2.2208,-2.2208,-2.2208,-2.2137,-2.1917,-2.1295,-2.1175,-2.1115,-2.0511,-2.0429,-2.041,-2.0042,-2.0067,0.0,0.0,-1.9441,-1.9214,-1.9098,-1.9399,0.0,0.0,0.0,-2.1364,-2.0631,-2.1444,-2.2158,-2.2085,-2.1754,-2.1368,-2.1051,-2.0842,-2.0772,-2.0882,-2.0568,-2.0449,-2.0687,-2.024,-1.9785,-1.9365,-1.979,-1.9714,-1.9004,-1.9505,-1.9506,-1.892,-1.8905,-1.8795,-1.8591,-1.8258,-1.8084,-1.8084,-1.8084,-1.8084,-1.8084,-1.7975,-1.7947,-1.7931,-1.7617,-1.7507,-1.7479,-1.7172,-1.6779,-1.6431,-1.6602,-1.6545,-1.6413,0.0,0.0,0.0,0.0,0.0,0.0,0.0,0.0,0.0,0.0,0.0,0.0,0.0,0.0,0.0,0.0,0.0,0.0,-1.9087,-1.9129,-1.9129,-1.9129,-1.9129,-1.9214,-1.939,-1.8807,-1.8807,-1.939,-1.8807,-1.8708,-1.9129,-1.9305,-1.9761,-2.0414,-2.0829,-2.1462,-2.2194,-2.1997,-2.2025,-2.2208,-2.2208,-2.2208,0.0,0.0,0.0,0.0,0.0,0.0,0.0,0.0,-2.2208,-2.2208,-2.2208,-2.2208,-2.2072,-2.1468,-2.137,-2.1334,-2.0771,-2.0692,-2.0662,-2.0233,0.0,0.0,-2.0386,-1.9963,-1.963,-1.9638,-2.0139,0.0,-2.0128,0.0,0.0,0.0,-2.1774,-2.2338,-2.2194,-2.1766,-2.1407,-2.1216,-2.0907,-2.0708,-2.0834,-2.0357,-2.0072,-2.0182,-1.9723,-1.9316,-1.8976,-1.9325,-1.93,-1.8744,-1.9158,-1.9263,-1.8919,-1.8919,-1.8839,-1.8652,-1.8506,-1.8344,-1.8193,-1.8139,-1.8139,-1.8193,-1.8139,-1.8084,-1.8084,-1.7904,-1.7794,-1.7684,-1.7451,-1.706,-1.6676,-1.6874,-1.6761,-1.6545,0.0,0.0,0.0,0.0,0.0,0.0,0.0,0.0,0.0,0.0,0.0,0.0,0.0,0.0,0.0,0.0,0.0,0.0,-1.8498,-1.8498,-1.8498,-1.8498,-1.8498,-1.8779,-1.9376,-1.8807,-1.8807,-1.9376,-1.8793,-1.8498,-1.8512,-1.9129,-1.9761,-2.0414,-2.04,-2.106,-2.2151,-2.1547,-2.1631,-2.2194,-2.2194,-2.2194,-2.2208,0.0,0.0,0.0,0.0,0.0,0.0,0.0,-2.2208,-2.2208,-2.2208,-2.2208,-2.2049,-2.1245,-2.1295,-2.1407,-2.061,-2.0644,-2.0901,0.0,0.0,0.0,-2.1511,-2.0893,-2.0514,-2.1238,-2.1704,-2.1817,-2.12,-2.177,0.0,-2.1858,-2.2236,-2.2433,-2.1951,-2.1706,-2.1546,-2.1403,-2.0679,-2.0331,-2.0656,-2.0095,-1.9688,-1.9688,-1.9195,-1.8953,-1.9078,-1.8646,-1.8572,-1.8987,-1.8987,-1.9066,-1.9212,-1.9212,-1.9212,-1.9212,-1.9212,-1.8922,-1.8394,-1.8193,-1.8232,-1.8394,-1.8193,-1.8084,-1.8084,-1.8084,-1.7947,-1.7711,-1.7711,-1.7507,-1.719,-1.719,-1.7032,-1.6807,0.0,0.0,0.0,0.0,0.0,0.0,0.0,0.0,0.0,0.0,0.0,0.0,0.0,0.0,0.0,0.0,0.0,0.0,-1.8498,-1.8498,-1.8498,-1.8498,-1.8498,-1.8582,-1.8764,-1.9017,-1.9017,-1.8779,-1.8596,-1.8722,-1.9143,-1.9305,-1.9971,-2.1012,-2.0583,-2.0821,-2.1518,-2.0928,-2.1026,-2.1561,-2.1561,-2.1814,-2.2208,0.0,0.0,0.0,0.0,0.0,0.0,0.0,0.0,0.0,-2.2208,-2.2208,-2.2072,-2.1458,-2.1359,-2.1334,-2.076,-2.0743,0.0,-2.0599,0.0,0.0,0.0,-2.1212,0.0,0.0,-2.1667,-2.1547,-2.1212,-2.1868,0.0,-2.1608,-2.1719,-2.1838,-2.1699,-2.1016,-2.0475,-2.0312,-2.0281,-2.0276,-2.0288,-1.9674,-1.9315,-1.9412,-1.8739,-1.8423,-1.86,-1.8476,-1.853,-1.8851,-1.8946,-1.9119,-1.933,-1.9434,-1.9434,-1.933,-1.9434,-1.9251,-1.8813,-1.8747,-1.8625,-1.8394,-1.834,-1.822,-1.8084,-1.8084,-1.7947,-1.7711,-1.7893,-1.7673,-1.7217,-1.7451,-1.7228,-1.6807,0.0,0.0,0.0,0.0,0.0,0.0,0.0,0.0,0.0,0.0,0.0,0.0,0.0,0.0,0.0,0.0,0.0,0.0,0.0,-1.8498,-1.8498,-1.8498,-1.8736,-1.8975,-1.9242,-1.9354,-1.9228,-1.8863,-1.8863,-1.8919,-1.9045,-1.9045,-1.9578,-2.0526,-2.0175,-2.0358,-2.0942,-2.0706,-2.0815,-2.1173,-2.1387,-2.1709,-2.2067,0.0,0.0,0.0,0.0,0.0,0.0,0.0,0.0,0.0,-2.2208,-2.2208,-2.2137,-2.1793,-2.164,-2.1496,-2.1204,-2.1071,0.0,-2.0785,-2.1032,-2.1438,-2.1734,0.0,0.0,0.0,-2.1747,-2.1581,-2.1175,-2.1668,0.0,-2.1331,-2.1404,-2.1536,-2.1536,-2.0824,-2.0303,-2.0187,-1.9998,-1.988,-1.9806,-1.9308,-1.9002,-1.9097,-1.8694,-1.8518,-1.8625,-1.8545,-1.8504,-1.8567,-1.8556,-1.8604,-1.8756,-1.908,-1.9268,-1.9331,-1.9672,-1.9694,-1.9382,-1.9119,-1.8907,-1.8706,-1.8503,-1.8286,-1.8084,-1.8084,-1.8002,-1.7865,-1.8041,-1.7893,-1.7579,-1.7783,-1.7562,-1.7177,0.0,0.0,0.0,0.0,0.0,0.0,0.0,0.0,0.0,0.0,0.0,0.0,0.0,0.0,0.0,0.0,0.0,0.0,0.0,0.0,-1.8512,-1.8582,-1.9115,-1.9691,-2.0302,-1.9719,-1.939,-1.939,-1.939,-1.9129,-1.8582,-1.8526,-1.8849,-1.9494,-1.9341,-1.967,-2.0301,-2.052,-2.0693,-2.0831,-2.1383,-2.1673,-2.1817,-2.2067,0.0,0.0,0.0,0.0,0.0,0.0,0.0,0.0,-2.2208,-2.2208,-2.2208,-2.2184,-2.1996,-2.1793,-2.1746,0.0,0.0,-2.1204,-2.1532,0.0,-2.2379,-2.2365,-2.2189,-2.1979,0.0,-2.1827,-2.1172,-2.1275,-2.1375,-2.1087,-2.1191,-2.1334,-2.139,-2.0964,-2.0633,-2.0605,-1.9857,-1.9321,-1.9293,-1.9017,-1.8851,-1.8851,-1.8946,-1.9013,-1.9013,-1.8774,-1.8534,-1.8315,-1.8025,-1.7864,-1.7908,-1.8388,-1.8834,-1.9217,-1.9837,-2.0054,-1.994,-1.9357,-1.9146,-1.9174,-1.8578,-1.824,-1.8139,-1.8111,-1.8084,-1.8084,-1.8084,-1.8084,-1.8084,-1.8084,-1.7931,-1.7767,0.0,0.0,0.0,0.0,0.0,0.0,0.0,0.0,0.0,0.0,0.0,0.0,0.0,0.0,0.0,0.0,0.0,0.0,0.0,0.0,-1.8708,-1.92,-1.9319,-1.948,-1.9621,-1.946,-1.939,-1.939,-1.939,-1.9319,-1.9214,-1.8722,-1.9087,-2.0126,-1.8967,-1.8788,-1.9343,-1.8789,-1.9053,-1.9876,-2.0034,-2.0776,-2.1793,-2.1864,-2.202,0.0,0.0,0.0,0.0,0.0,0.0,0.0,-2.2208,-2.2208,-2.2161,-2.1949,-2.1841,-2.1722,-2.1423,-2.135,0.0,0.0,-2.1274,-2.1383,-2.1467,-2.137,-2.1431,-2.2137,-2.2307,-2.2116,-2.1521,-2.1281,-2.1237,-2.1362,-2.1102,-2.0949,-2.1283,-2.065,-2.0124,-2.0005,-1.9826,-1.9621,-1.9407,-1.9218,-1.9172,-1.9263,-1.9105,-1.904,-1.916,-1.9013,-1.8992,-1.9144,-1.8678,-1.8535,-1.8746,-1.8434,-1.8617,-1.9204,-1.9442,-1.9604,-1.9691,-1.9864,-1.9656,-1.9162,-1.8189,-1.7996,-1.8313,-1.8177,-1.8084,-1.8084,-1.8084,-1.8084,-1.8084,-1.8084,-1.7931,-1.7723,0.0,0.0,0.0,0.0,0.0,0.0,0.0,0.0,0.0,0.0,0.0,0.0,0.0,0.0,0.0,0.0,0.0,0.0,0.0,0.0,-1.8905,-1.9831,-1.9298,-1.9382,-2.0288,-1.9719,-1.939,-1.939,-1.939,-1.9256,-1.8961,-1.8652,-1.8809,-1.9343,-1.8858,-1.8583,-1.8522,-1.8551,-1.8741,-1.9078,-1.9642,-2.034,-2.1101,-2.1602,-2.1902,-2.2044,-2.2161,0.0,0.0,0.0,0.0,0.0,0.0,0.0,-2.2184,-2.2044,-2.1949,-2.1841,-2.164,0.0,0.0,-2.1326,0.0,-2.172,-2.1659,-2.1534,-2.1608,-2.2062,-2.1734,-2.1275,-2.1024,-2.0703,-2.0575,-2.0827,-2.0716,-2.0681,-2.1043,-2.0642,-2.0258,-2.0182,-2.0067,-1.9888,-1.9617,-1.9591,-1.9565,-1.9486,-1.9434,-1.9422,-1.9488,-1.9059,-1.8751,-1.8633,-1.8007,-1.7688,-1.7804,-1.7937,-1.8294,-1.8859,-1.9492,-1.9681,-1.951,-1.9425,-1.9296,-1.9056,-1.8215,-1.8063,-1.8394,-1.8166,-1.8166,-1.822,-1.8139,-1.8166,-1.8247,-1.8247,-1.815,-1.8075,0.0,0.0,0.0,0.0,0.0,0.0,0.0,0.0,0.0,0.0,0.0,0.0,0.0,0.0,0.0,0.0,0.0,0.0,0.0,0.0,0.0,-2.0035,-1.9036,-1.9189,-2.0787,-1.9698,-1.916,-1.9256,-1.9256,-1.9045,0.0,-1.8501,-1.8361,-1.8216,-1.8632,-1.8454,-1.7875,-1.8625,-1.8769,-1.8574,-1.9575,-2.0117,-2.0438,-2.1377,-2.1746,-2.1841,-2.2114,-2.2208,-2.2208,-2.2208,0.0,0.0,0.0,0.0,-2.2208,-2.2208,-2.2114,-2.2044,0.0,0.0,-2.1568,-2.1471,-2.1789,0.0,-2.2005,-2.1955,-2.1929,-2.1828,-2.1117,-2.0475,-2.0435,-2.0156,-2.0016,-2.0182,-2.0321,-2.0536,-2.085,-2.0785,-2.0684,-2.0673,-2.0472,-2.0195,-1.9901,-1.9978,-1.9926,-1.9656,-1.9734,-1.9798,-1.9798,-1.9082,-1.8462,-1.8018,-1.7214,-1.6755,-1.6651,-1.7352,-1.7906,-1.831,-1.9264,-1.9607,-1.9398,-1.8697,-1.8607,-1.895,-1.8291,-1.8191,-1.8503,-1.8259,-1.8259,-1.8394,-1.8232,-1.8275,-1.8422,-1.8422,-1.8422,-1.848,0.0,0.0,0.0,0.0,0.0,0.0,0.0,0.0,0.0,0.0,0.0,0.0,0.0,0.0,0.0,0.0,0.0,0.0,-1.7118,0.0,0.0,-1.8745,-1.8376,-1.8388,-1.8863,-1.8322,-1.8205,-1.8624,-1.8624,0.0,0.0,0.0,0.0,-1.8183,-1.7855,-1.7658,-1.755,-1.7515,-1.8,-1.8852,-1.9009,-1.9795,-2.0926,-2.1323,-2.1616,-2.1841,-2.2114,-2.2208,-2.2208,-2.2208,-2.2208,0.0,0.0,0.0,-2.2208,-2.2208,-2.2184,-2.2161,0.0,0.0,-2.1616,0.0,-2.155,-2.1507,0.0,0.0,-2.135,0.0,-2.1586,-2.1454,-2.0701,-2.0535,-2.0434,-2.0233,-2.0422,-2.0635,-2.0784,-2.0995,-2.1082,-2.0959,-2.0909,-2.0711,-2.0207,-2.0156,-2.0042,-1.9798,-1.9798,-1.9798,-1.9798,-1.9258,-1.8921,-1.8846,-1.7996,-1.7473,-1.7285,-1.7282,-1.7371,-1.7534,-1.7708,-1.8414,-1.9533,-1.8346,-1.8253,-1.8958,-1.8007,-1.8098,-1.8893,-1.8518,-1.8367,-1.8394,-1.8367,-1.8437,-1.856,-1.8449,-1.8464,-1.8572,0.0,0.0,0.0,0.0,0.0,0.0,0.0,0.0,0.0,0.0,0.0,0.0,0.0,0.0,0.0,-1.5513,-1.6293,-1.6892,-1.7102,-1.7818,-1.8255,-1.826,-1.8047,-1.8034,-1.8274,-1.7957,-1.7902,-1.8115,0.0,0.0,0.0,-1.8926,-1.8638,0.0,0.0,0.0,-1.7344,-1.724,-1.7486,-1.7983,-1.8323,-1.9051,-2.0003,-2.0705,-2.1267,-2.1722,-2.2091,-2.2208,-2.2208,-2.2208,-2.2208,-2.2208,-2.2208,0.0,0.0,0.0,-2.2208,0.0,-2.2044,-2.2152,-2.2225,0.0,-2.1862,-2.1929,-2.1588,0.0,-2.1326,-2.1399,-2.1529,-2.1488,-2.1023,-2.0734,-2.061,-2.0636,-2.0698,-2.0784,-2.0995,-2.1057,-2.1057,-2.1021,-2.0885,-2.0623,-2.0233,-2.0207,-2.0093,-1.9824,-1.9798,-1.9798,-1.9798,-1.902,-1.8544,-1.8544,-1.7566,-1.7052,-1.713,-1.7259,-1.7521,-1.7966,-1.7808,-1.8076,-1.8698,-1.8174,-1.8359,-1.9056,-1.8215,-1.8277,-1.8934,-1.8275,-1.8205,-1.8491,-1.8422,-1.853,-1.8706,-1.8637,-1.8652,-1.878,0.0,0.0,0.0,0.0,0.0,0.0,0.0,0.0,0.0,0.0,0.0,0.0,0.0,0.0,0.0,0.0,-1.5998,-1.6603,-1.7123,-1.7318,-1.7544,-1.7856,-1.7618,-1.7654,-1.802,-1.7874,-1.7861,-1.7982,0.0,0.0,-1.9663,-1.944,-1.9229,0.0,-1.8952,-1.8265,0.0,0.0,0.0,0.0,-1.8017,-1.8681,-1.9416,-2.0341,-2.1053,-2.1616,-2.1996,-2.2161,-2.2161,-2.2184,-2.2208,-2.2208,-2.2208,-2.2208,0.0,0.0,0.0,0.0,0.0,0.0,-2.2547,-2.1989,-2.209,-2.2213,0.0,0.0,-2.1447,0.0,-2.1399,-2.1375,-2.1277,-2.1019,-2.0847,-2.0983,-2.097,-2.1006,-2.1131,-2.1057,-2.0997,-2.0997,-2.0747,-2.0498,-2.0233,-2.0207,-2.0093,-1.9824,-1.9798,-1.9798,-1.9798,-1.8781,-1.8204,-1.8204,-1.7134,-1.6629,-1.6791,-1.7036,-1.7529,-1.8234,-1.776,-1.7629,-1.7812,-1.7846,-1.8282,-1.8977,-1.8535,-1.8636,-1.9093,-1.8302,-1.8247,-1.864,-1.8545,-1.8637,-1.8851,-1.8798,-1.8825,-1.8926,0.0,0.0,0.0,0.0,0.0,0.0,0.0,0.0,0.0,0.0,0.0,0.0,-1.5513,-1.5614,-1.5547,-1.5153,-1.5732,-1.6373,-1.6972,-1.6612,-1.6637,-1.7217,-1.6812,0.0,-1.7801,-1.7814,-1.8022,0.0,0.0,0.0,-2.0344,-2.0079,-1.9847,-1.9649,-1.9382,-1.8499,-1.7238,0.0,0.0,0.0,0.0,0.0,-2.0028,-2.0731,-2.1153,-2.1471,-2.1864,-2.202,-2.2044,-2.2161,-2.2208,-2.2208,-2.2208,-2.2208,-2.2208,0.0,0.0,0.0,0.0,-2.2105,0.0,-2.1996,-2.1916,0.0,0.0,0.0,-2.1544,-2.1423,-2.1399,-2.1399,-2.1399,-2.1361,-2.1277,-2.1033,-2.1204,-2.1277,-2.1033,-2.0997,-2.0997,-2.0997,-2.0747,-2.0498,-2.0233,-2.0207,-2.0093,-1.9824,-1.9798,-1.9798,-1.9798,-1.8781,-1.8204,-1.8204,-1.721,-1.6637,-1.6522,-1.6547,-1.6957,-1.7725,-1.676,-1.6631,-1.7229,-1.725,-1.7664,-1.8456,-1.8794,-1.9208,-1.9539,-1.8972,-1.8771,-1.8798,-1.8771,-1.8866,-1.8972,-1.8851,-1.8866,-1.8972,0.0,0.0,0.0,0.0,0.0,0.0,0.0,0.0,0.0,0.0,0.0,0.0,0.0,-1.5368,-1.5345,-1.5108,-1.5467,-1.5844,-1.6141,-1.6337,-1.6531,-1.6744,-1.6884,-1.7094,-1.7413,-1.7679,-1.7882,0.0,0.0,-1.8933,-1.9761,-1.9663,-1.9319,-1.8816,-1.915,-1.8526,-1.7212,-1.7434,0.0,0.0,0.0,0.0,0.0,0.0,-2.0761,-2.1544,-2.1688,0.0,-2.202,-2.2161,-2.2208,-2.2208,-2.2208,-2.2208,-2.2208,-2.2208,-2.2208,0.0,0.0,0.0,0.0,-2.2137,-2.2044,-2.1926,-2.1864,-2.1793,-2.1712,-2.1688,-2.1592,-2.1544,-2.1544,-2.1471,-2.1375,-2.1277,-2.135,-2.1375,-2.1277,-2.097,-2.0747,-2.0747,-2.0359,-2.0055,-1.9965,-1.9939,-1.9901,-1.9798,-1.9798,-1.9798,-1.9798,-1.8781,-1.8204,-1.8204,-1.7099,-1.6479,-1.6436,-1.6552,-1.6696,-1.6867,-1.6631,-1.6613,-1.6826,-1.7078,-1.748,-1.7991,-1.8511,-1.8967,-1.9291,-1.8629,-1.8425,-1.8556,-1.8718,-1.8866,-1.8987,-1.8946,-1.8972,-1.9035,0.0,0.0,0.0,0.0,0.0,0.0,0.0,0.0,0.0,-1.5592,0.0,0.0,0.0,0.0,-1.5323,-1.5244,-1.5401,-1.5558,-1.5693,-1.6035,-1.6306,-1.65,-1.6947,-1.7261,-1.7393,-1.8024,-1.8248,0.0,0.0,0.0,0.0,-1.9169,-1.8898,-1.858,-1.8866,-1.8275,0.0,0.0,0.0,-1.8105,0.0,0.0,-2.0123,0.0,0.0,0.0,0.0,0.0,-2.1973,-2.2137,-2.2208,-2.2208,-2.2208,-2.2208,-2.2208,-2.2208,-2.2208,-2.2208,-2.2208,0.0,0.0,0.0,0.0,-2.2067,-2.202,-2.1926,-2.1817,-2.1688,-2.1688,-2.164,-2.1544,-2.1544,-2.1496,-2.1423,-2.1399,-2.1399,-2.1399,-2.0932,-2.061,-2.061,-2.0131,-1.9798,-1.9798,-1.9798,-1.9798,-1.9798,-1.9798,-1.9798,-1.9798,-1.8781,-1.7981,-1.7537,-1.6779,-1.6349,-1.6262,-1.6402,-1.6402,-1.6262,-1.6337,-1.6316,-1.6239,-1.6581,-1.6965,-1.7398,-1.7812,-1.8239,-1.8612,-1.826,-1.8063,-1.8011,-1.8439,-1.8656,-1.8746,-1.8927,-1.8987,-1.9071,0.0,0.0,0.0,0.0,0.0,0.0,0.0,0.0,-1.5705,-1.5693,0.0,0.0,0.0,0.0,0.0,-1.5491,-1.5491,-1.5558,-1.5693,-1.5693,-1.5947,-1.6479,-1.6947,-1.7385,-1.7828,-1.883,-1.9061,0.0,0.0,0.0,0.0,0.0,-1.8646,-1.9031,-1.8602,-1.7743,-1.6808,0.0,-1.8571,-1.8196,0.0,-1.9629,-2.0046,0.0,0.0,0.0,-2.1496,-2.1688,0.0,-2.2114,0.0,0.0,0.0,-2.2208,-2.2208,-2.2208,-2.2208,-2.2208,0.0,0.0,0.0,0.0,0.0,0.0,-2.2044,0.0,-2.1902,-2.1496,-2.164,-2.1722,-2.1471,-2.164,-2.1712,-2.1447,-2.1423,-2.1423,-2.1423,-2.097,-2.061,-2.061,-2.0156,-1.9824,-1.9811,-1.9811,-1.9798,-1.9798,-1.9798,-1.9798,-1.9798,-1.8781,-1.7586,-1.6271,-1.6318,-1.6262,-1.5988,-1.5988,-1.6001,-1.6025,-1.5816,-1.565,-1.5538,-1.5739,-1.6161,-1.6712,-1.6769,-1.706,-1.7472,-1.7978,-1.7742,-1.7176,-1.7888,-1.8193,-1.824,-1.877,-1.8987,-1.9083,0.0,0.0,0.0,0.0,0.0,0.0,-1.6379,-1.6287,-1.6052,0.0,0.0,0.0,-1.5325,-1.5221,-1.5221,-1.5221,-1.5401,-1.5513,-1.5558,-1.5681,-1.5991,-1.6479,-1.6616,-1.7276,-1.8506,-1.8048,-1.8255,-1.9157,-1.844,-1.8302,-1.875,-1.8557,-1.8323,0.0,-1.8051,-1.7614,-1.6955,-1.7462,0.0,-1.8679,-1.8727,-1.944,0.0,0.0,0.0,0.0,0.0,-2.1616,-2.1841,0.0,-2.2208,-2.2208,0.0,0.0,0.0,-2.2208,-2.2208,-2.2208,-2.2208,0.0,0.0,0.0,0.0,0.0,-2.2161,0.0,-2.2114,-2.1996,-2.1973,-2.1926,-2.1841,-2.1817,-2.1769,-2.1712,-2.1688,-2.1688,-2.1688,-2.1385,-2.1106,-2.0909,-2.0598,-2.0258,-1.9978,-1.9926,-1.9901,-1.9811,-1.9798,-1.9798,-1.9798,-1.8781,-1.7761,-1.6802,-1.6441,-1.6175,-1.5988,-1.5891,-1.6051,-1.6424,-1.6172,-1.6185,-1.644,-1.6488,-1.6618,-1.6771,-1.6881,-1.6655,-1.6263,-1.7216,-1.7384,-1.7068,-1.7482,-1.7744,-1.7962,-1.8285,-1.8782,-1.9337,0.0,0.0,0.0,0.0,0.0,-1.6068,-1.6443,-1.6044,-1.5707,0.0,0.0,0.0,-1.5637,-1.5417,-1.5356,-1.5379,-1.5536,-1.5637,-1.5637,-1.5714,-1.6001,-1.6479,-1.6693,-1.7279,-1.837,-1.8213,-1.8419,-1.9031,-1.8481,-1.8302,-1.8498,-1.8307,-1.8135,-1.8036,0.0,0.0,0.0,0.0,0.0,0.0,-1.8639,0.0,0.0,-2.0269,-2.0548,0.0,0.0,0.0,-2.1841,-2.2114,-2.2208,0.0,0.0,0.0,-2.2208,-2.2208,-2.2208,-2.2208,0.0,0.0,0.0,0.0,0.0,0.0,-2.2208,-2.2208,-2.2184,0.0,-2.2067,-2.2067,-2.1949,-2.1949,-2.1973,-2.1973,-2.1973,-2.1926,-2.1817,-2.1568,-2.1302,-2.1033,-2.0747,-2.0472,-2.0105,-2.0093,-2.0029,-1.9888,-1.9888,-1.9762,-1.9497,-1.8668,-1.7847,-1.7103,-1.6527,-1.61,-1.5913,-1.577,-1.5921,-1.6397,-1.5963,-1.6078,-1.671,-1.6625,-1.6697,-1.6872,-1.6772,-1.6431,-1.5984,-1.6291,-1.635,-1.6278,-1.7002,-1.7332,-1.7551,-1.8271,-1.8896,-1.9427,0.0,0.0,-1.6702,-1.6765,-1.6002,-1.563,-1.6386,-1.5649,-1.5256,0.0,-1.5927,-1.5926,-1.6174,-1.5889,-1.5715,-1.577,-1.577,-1.5792,-1.5792,-1.5792,-1.5991,-1.6414,-1.6884,-1.735,-1.7821,-1.8769,-1.9042,-1.8596,-1.8735,-1.8693,-1.8498,-1.8075,-1.8095,-1.8478,0.0,0.0,0.0,0.0,0.0,-1.8059,-1.8638,-1.9155,0.0,0.0,-2.0535,-2.0858,-2.1361,-2.1664,-2.1841,-2.2114,-2.2208,0.0,0.0,-2.2208,-2.2208,-2.2208,-2.2208,0.0,0.0,0.0,0.0,-2.2208,-2.2208,0.0,-2.2208,-2.2208,-2.2137,0.0,-2.2044,-2.2137,-2.1902,-2.2044,-2.2208,-2.2208,-2.2208,-2.2114,-2.1864,-2.164,-2.1399,-2.1106,-2.0847,-2.0598,-2.0296,-2.0258,-2.0182,-2.0042,-2.0016,-1.9724,-1.9121,-1.8569,-1.7958,-1.7304,-1.6636,-1.613,-1.5792,-1.5614,-1.574,-1.6184,-1.5568,-1.5784,-1.6747,-1.6534,-1.6678,-1.7086,-1.6549,-1.635,-1.6362,-1.5476,-1.5165,-1.5349,-1.6501,-1.6995,-1.7183,-1.8398,-1.9107,-1.9481,0.0,0.0,-1.8493,-1.8503,-1.7986,-1.7488,-1.7243,-1.7015,-1.6563,-1.5738,-1.5497,-1.5649,-1.6209,-1.5843,-1.5536,-1.5558,-1.5659,-1.5715,-1.5715,-1.577,-1.5836,-1.5925,-1.6392,-1.7089,-1.8016,-1.8256,-1.864,-1.9228,-1.8941,-1.8693,-1.8498,-1.842,-1.842,-1.8478,0.0,0.0,0.0,0.0,0.0,-1.7526,-1.8266,-1.9126,-1.9953,-2.0169,-2.0422,-2.0709,-2.1118,-2.1496,-2.1841,-2.2114,-2.2208,-2.2208,0.0,-2.2208,-2.2208,-2.2208,-2.2208,0.0,0.0,0.0,0.0,-2.2208,-2.2208,0.0,-2.2208,-2.2208,-2.2184,-2.2137,-2.2161,-2.2184,-2.2137,-2.2161,-2.2208,-2.2208,-2.2208,-2.2184,-2.2137,-2.2091,-2.1949,-2.1688,-2.141,-2.1093,-2.0709,-2.0536,-2.0372,-2.0182,-2.0067,-1.9914,-1.966,-1.9133,-1.8484,-1.771,-1.7145,-1.6485,-1.5738,-1.5558,-1.5892,-1.667,-1.6431,-1.6839,-1.7802,-1.7376,-1.7448,-1.7821,-1.6814,-1.6692,-1.709,-1.5791,-1.5586,-1.6068,-1.6065,-1.6533,-1.7309,-1.7829,-1.8713,-1.9709,0.0,-1.7644,-1.7836,-1.8456,-1.7903,-1.7289,-1.7005,-1.6712,-1.6289,-1.5591,-1.5661,-1.5893,-1.6315,-1.59,-1.5614,-1.5647,-1.5703,-1.576,-1.576,-1.577,-1.5792,-1.5792,-1.6262,-1.6755,-1.7294,-1.7723,-1.806,-1.8303,-1.8303,-1.8242,-1.8155,-1.8155,-1.8228,-1.8327,-1.7922,0.0,0.0,0.0,-1.7106,-1.8007,-1.8006,0.0,-1.9648,-2.0054,-2.0271,-2.0472,-2.1008,-2.1496,-2.1926,-2.2137,-2.2208,0.0,-2.2208,-2.2208,-2.2208,-2.2208,-2.2208,-2.2208,-2.2208,-2.2208,-2.2208,-2.2208,-2.2208,0.0,0.0,-2.2208,-2.2208,-2.2208,-2.2208,-2.2231,-2.2301,-2.2301,-2.2324,-2.2394,-2.2231,-2.2114,-2.2114,-2.2044,-2.1841,-2.1447,-2.1277,-2.1082,-2.0772,-2.0674,-2.0537,-2.0372,-2.0118,-1.9978,-1.9901,-1.9346,-1.8771,-1.8314,-1.7651,-1.7036,-1.6456,-1.6256,-1.6475,-1.7104,-1.6775,-1.7137,-1.8088,-1.7425,-1.752,-1.8201,-1.7122,-1.6975,-1.7393,-1.6107,-1.6164,-1.6985,-1.6459,-1.6518,-1.7037,-1.8024,-1.894,-1.972,-1.633,0.0,-1.6782,-1.7765,-1.7187,-1.655,-1.6393,-1.592,-1.5498,-1.5276,-1.5761,-1.6138,-1.6244,-1.6028,-1.5951,-1.6092,-1.6008,-1.5984,-1.6092,-1.6018,-1.6006,-1.6182,-1.6461,-1.6709,-1.6867,-1.7676,-1.7902,-1.7447,-1.7902,-1.8051,-1.7942,-1.7942,-1.8055,-1.8262,-1.8213,0.0,0.0,0.0,0.0,-1.8611,0.0,-1.8449,-1.9445,-1.9965,-2.0182,-2.0334,-2.1008,-2.1568,-2.202,-2.2161,-2.2208,-2.2208,-2.2208,-2.2208,-2.2208,-2.2208,-2.2208,-2.2208,-2.2208,-2.2208,-2.2208,-2.2208,-2.2208,-2.2208,0.0,0.0,0.0,-2.2254,-2.2254,-2.2301,-2.2417,-2.244,-2.2463,-2.2578,-2.2324,-2.2114,-2.2067,-2.1949,-2.1688,-2.1131,-2.1033,-2.0947,-2.0774,-2.0724,-2.0637,-2.0511,-2.022,-2.0042,-1.999,-1.946,-1.9021,-1.8722,-1.8093,-1.7557,-1.7117,-1.692,-1.6989,-1.7396,-1.6968,-1.7229,-1.8077,-1.7277,-1.7461,-1.8348,-1.7406,-1.7303,-1.7751,-1.6644,-1.6859,-1.7788,-1.6983,-1.6777,-1.7104,-1.8598,-1.9468,-1.982,-1.6866,-1.709,0.0,-1.7285,-1.6917,-1.6444,-1.5961,-1.5466,-1.4956,-1.4434,-1.5167,-1.5771,-1.5795,-1.6209,-1.6703,0.0,-1.6787,-1.6715,-1.7183,-1.6775,-1.6844,-1.753,-1.7291,-1.7455,-1.8168,-1.8851,-1.893,-1.8361,-1.893,-1.8937,-1.842,-1.842,-1.8439,-1.8467,-1.8286,0.0,0.0,0.0,-1.8111,0.0,-1.8803,-1.9396,0.0,-2.0042,-2.0182,-2.0472,-2.1142,-2.1664,-2.202,-2.2161,-2.2208,-2.2208,-2.2208,-2.2208,-2.2208,-2.2208,-2.2208,-2.2208,-2.2208,-2.2208,-2.2208,-2.2208,-2.2208,-2.2208,-2.2208,0.0,-2.237,-2.237,0.0,-2.2555,-2.2555,0.0,0.0,-2.2615,-2.2555,-2.244,-2.2208,-2.2161,-2.1973,-2.1423,-2.1131,-2.0997,-2.0972,-2.0799,-2.0637,-2.0511,-2.0296,-2.0131,-2.0016,-1.9812,-1.9307,-1.8484,-1.8348,-1.7831,-1.6857,-1.6821,-1.6989,-1.7407,-1.735,-1.7588,-1.8088,-1.7579,-1.7705,-1.836,-1.7647,-1.7851,-1.8576,-1.7621,-1.7601,-1.8044,-1.702,-1.7317,-1.8469,-1.9389,-2.0033,-2.0521,-1.65,-1.6669,0.0,-1.7146,-1.7065,-1.6564,-1.5503,-1.4891,-1.4605,-1.4655,-1.5547,-1.6156,-1.6156,0.0,0.0,0.0,0.0,-1.7159,-1.74,-1.6895,-1.6882,-1.7545,-1.7413,-1.7452,-1.7749,-1.8623,-1.8611,-1.7754,-1.8221,-1.8343,-1.8095,-1.8095,-1.8189,-1.8349,-1.8569,0.0,-1.7906,0.0,-1.8827,0.0,0.0,-1.9894,0.0,-2.0207,-2.0385,-2.081,-2.1313,-2.1722,-2.202,-2.2161,-2.2208,-2.2208,-2.2208,-2.2208,-2.2208,-2.2208,-2.2208,-2.2208,-2.2208,-2.2208,-2.2208,-2.2208,-2.2208,-2.2231,-2.2301,-2.237,-2.2417,-2.2486,0.0,0.0,0.0,0.0,0.0,0.0,-2.2615,-2.244,-2.2324,-2.2114,-2.1864,-2.1544,-2.1423,-2.1253,-2.1008,-2.0823,-2.0687,-2.0612,-2.0372,-2.0182,-2.0105,-1.9772,-1.9271,-1.8638,-1.8572,-1.8177,-1.7455,-1.7519,-1.7648,-1.7817,-1.7817,-1.7905,-1.81,-1.7701,-1.7853,-1.8371,-1.7941,-1.8142,-1.8762,-1.8111,-1.818,-1.8576,-1.782,-1.7788,-1.8225,-1.9027,-1.9676,-2.0189,-1.5968,0.0,0.0,0.0,-1.662,-1.6132,-1.4948,-1.4419,-1.4327,-1.4726,-1.5797,-1.6548,-1.6562,-1.7175,0.0,0.0,-1.7712,-1.7653,-1.7726,-1.7364,-1.7399,-1.7922,-1.7783,-1.7786,-1.7938,-1.8481,-1.8365,-1.7568,-1.7726,-1.7787,-1.7787,-1.7787,-1.7902,-1.8117,0.0,-1.8702,-1.8218,0.0,-1.9501,-1.9521,-1.9897,-2.0308,-2.0687,-2.0398,-2.0611,-2.1082,-2.1399,-2.1722,-2.2067,-2.2184,-2.2208,-2.2208,-2.2208,-2.2208,-2.2208,-2.2208,-2.2208,-2.2208,-2.2208,-2.2208,-2.2208,-2.2208,-2.2231,-2.2278,-2.237,-2.2454,-2.2523,-2.2615,-2.2661,0.0,0.0,0.0,-2.2849,-2.2902,0.0,-2.2532,-2.2532,-2.2301,-2.1996,-2.1688,-2.1616,-2.1496,-2.118,-2.0923,-2.0774,-2.0774,-2.0473,-2.0207,-2.0054,-1.9591,-1.9107,-1.8563,-1.8494,-1.8251,-1.7854,-1.8002,-1.8084,-1.8084,-1.8084,-1.8084,-1.81,-1.7904,-1.8045,-1.8452,-1.8291,-1.8444,-1.8842,-1.8552,-1.865,-1.8951,-1.8566,-1.8307,-1.8223,-1.9064,-1.9606,-1.9973,-1.5439,-1.5439,0.0,0.0,-1.5135,-1.4704,-1.4209,-1.4121,-1.4139,-1.4209,-1.5607,0.0,0.0,0.0,0.0,0.0,0.0,-1.8283,-1.8534,-1.8547,-1.8784,-1.9313,-1.8774,-1.884,-1.9599,-1.8968,-1.8582,-1.8569,-1.8051,-1.7787,-1.7787,-1.7787,-1.7787,-1.7848,-1.8639,-1.8836,-1.8655,-1.9647,-1.9927,-1.974,-2.0425,-2.0686,-2.0687,-2.0537,-2.0774,-2.1204,-2.1204,-2.164,-2.2184,-2.2208,-2.2208,-2.2208,-2.2208,-2.2208,-2.2208,-2.2208,-2.2208,-2.2208,-2.2208,-2.2208,-2.2208,-2.2208,-2.2301,-2.2394,-2.2394,-2.2606,-2.2787,-2.2795,-2.2849,-2.2888,-2.2902,-2.2902,-2.2902,-2.2888,-2.2888,0.0,0.0,-2.2865,-2.2615,-2.1864,-2.1688,-2.1592,-2.1592,-2.1229,-2.0997,-2.0997,-2.0687,-2.0246,-1.9642,-1.937,-1.8804,-1.7963,-1.805,-1.7968,-1.7711,-1.7986,-1.8084,-1.8084,-1.8084,-1.8084,-1.8111,-1.829,-1.8452,-1.8587,-1.8721,-1.8854,-1.8987,-1.8975,-1.8975,-1.8987,-1.8975,-1.8963,-1.9062,-1.9932,-2.0289,-2.0328,0.0,0.0,0.0,0.0,0.0,0.0,-1.4629,-1.4907,-1.5273,-1.5662,-1.712,-1.8139,0.0,-1.8836,-1.9179,-1.9011,-1.8988,-1.9034,-1.9124,-1.8945,-1.9096,-1.9636,-1.9484,-1.9398,-1.9436,-1.9532,-1.9132,-1.8201,-1.8024,-1.7902,-1.7787,-1.7537,-1.7537,-1.7814,-1.8039,-1.8187,0.0,0.0,0.0,0.0,0.0,-2.0774,-2.0898,-2.0848,-2.0923,-2.1106,-2.1471,-2.1722,-2.1973,-2.2137,-2.2208,-2.2208,-2.2208,-2.2208,-2.2208,-2.2208,-2.2208,-2.2208,-2.2208,-2.2208,-2.2231,-2.2301,-2.237,-2.2454,-2.2606,-2.2727,-2.2818,-2.2849,-2.288,-2.2888,-2.2888,-2.2888,-2.2888,-2.2888,-2.2888,-2.2888,0.0,-2.2888,-2.2797,-2.2555,-2.2208,-2.1973,-2.1864,-2.1094,-2.0716,-2.0981,-2.0334,-1.9811,-1.9618,-1.9148,-1.8498,-1.7661,-1.754,-1.7468,-1.7368,-1.7673,-1.792,-1.8084,-1.822,-1.8313,-1.8313,-1.8556,-1.8691,-1.8744,-1.8866,-1.8972,-1.8987,-1.8987,-1.8987,-1.8987,-1.8987,-1.8987,-1.9037,-1.9325,-1.9558,-1.9869,-1.541,0.0,0.0,0.0,0.0,0.0,-1.565,-1.5988,-1.6371,-1.6747,-1.8025,-1.8853,-1.8659,-1.9348,-1.9619,-1.9168,-1.9316,-1.9386,-1.9394,-1.9422,-1.9547,-1.98,-1.9882,-1.9829,-1.962,-1.9924,-1.9558,-1.8458,-1.8346,-1.8145,-1.7864,-1.7547,-1.7557,-1.7814,-1.8158,-1.8327,-1.8416,-1.9287,-1.9695,0.0,0.0,-2.0823,0.0,-2.0997,-2.1106,-2.1299,-2.1322,-2.159,-2.1931,-2.1885,-2.2025,-2.2208,-2.2208,-2.2208,-2.2208,-2.2208,-2.2208,-2.2208,-2.2208,-2.2208,-2.2231,-2.237,-2.244,-2.2523,-2.2749,-2.2818,-2.2884,-2.3146,-2.3024,-2.2938,-2.3086,-2.3002,-2.2902,-2.2857,-2.288,-2.2888,0.0,-2.2888,-2.2888,-2.2888,-2.2615,-2.2315,-2.2091,-2.1401,-2.0931,-2.087,-2.0296,-1.9786,-1.941,-1.8818,-1.8147,-1.7412,-1.719,-1.706,-1.706,-1.7534,-1.7865,-1.8018,-1.8286,-1.8422,-1.8464,-1.8652,-1.8732,-1.8798,-1.8946,-1.8987,-1.8987,-1.8987,-1.8987,-1.8987,-1.8987,-1.8987,-1.9011,-1.9203,-1.9505,-2.0002,-1.541,-1.541,0.0,0.0,-1.5911,0.0,0.0,-1.7251,-1.7329,-1.7413,-1.8315,-1.8806,-1.837,-1.9218,-1.9673,-1.9417,-1.9394,-1.9431,-1.9415,-1.9938,-2.0102,-1.9878,-2.0101,-2.0233,-2.0207,-2.0147,-1.9834,-1.9278,-1.8981,-1.8575,-1.8044,-1.7898,-1.7835,-1.793,-1.8899,0.0,-1.8874,-1.97,-1.9976,-1.9862,-2.0435,-2.0799,-2.0997,-2.0997,-2.1299,-2.1635,-2.0842,-2.1263,-2.2086,-2.1533,-2.1729,-2.2208,-2.2208,-2.2208,-2.2208,-2.2208,-2.2208,-2.2208,-2.2208,-2.2208,-2.2231,-2.237,-2.2509,-2.2638,-2.2772,-2.2849,-2.3039,-2.3553,-2.3268,-2.3051,-2.3388,-2.3184,-2.2923,-2.2818,-2.2872,-2.2888,-2.2888,-2.2888,-2.2888,-2.2888,-2.2797,-2.2615,-2.2254,-2.2035,-2.1558,-2.0696,-2.0584,-2.008,-1.904,-1.8479,-1.7881,-1.7245,-1.6948,-1.6846,-1.6835,-1.7523,-1.7881,-1.7925,-1.8247,-1.8464,-1.8614,-1.8614,-1.8679,-1.8825,-1.8946,-1.8987,-1.8987,-1.8987,-1.8987,-1.8987,-1.8987,-1.9025,-1.9122,-1.9591,-2.0128,-2.0654,-1.541,-1.541,-1.5555,0.0,-1.6197,-1.65,-1.7118,-1.793,-1.8606,-1.9023,-1.9718,-2.0115,-1.9993,-1.9865,-1.9619,-1.9141,-1.9474,-1.9697,-1.9712,-2.0257,-2.0534,-2.0465,-2.0695,-2.0611,-2.0207,-2.0367,-1.9921,-1.8784,-1.9103,-1.9047,-1.8653,-1.8232,-1.8452,-1.9193,0.0,-1.8732,-1.9263,-1.9477,-1.978,-2.0105,-2.0258,-2.0586,-2.0997,-2.0823,-2.0839,-2.0963,-2.1321,-2.1645,-2.1921,-2.1955,-2.2067,-2.2208,-2.2208,-2.2208,-2.2208,-2.2208,-2.2208,-2.2208,-2.2208,-2.2208,-2.2254,-2.2486,-2.2555,-2.2661,-2.2834,-2.2902,-2.2923,-2.302,-2.3279,-2.338,-2.3037,-2.3256,-2.3346,-2.2929,-2.2902,-2.2888,-2.2888,-2.2888,-2.2888,-2.2888,-2.2349,-2.2173,-2.2601,-2.1392,-2.0713,-2.1024,-2.0169,-1.946,-1.9028,-1.9104,-1.8605,-1.7451,-1.7217,-1.7228,-1.7462,-1.7462,-1.7783,-1.8425,-1.8247,-1.8383,-1.8744,-1.8744,-1.8813,-1.8946,-1.8987,-1.8987,-1.8987,-1.8987,-1.8987,-1.8987,-1.8987,-1.9361,-1.9851,-1.9582,-2.0009,-2.0706,-1.541,-1.541,0.0,-1.6197,-1.6696,-1.7263,-1.7857,-1.8499,-1.9132,-1.9671,-2.0253,-2.0413,-1.9961,-2.0061,-1.9927,-1.9391,-1.963,-1.9901,-2.0182,-2.0524,-2.0699,-2.0699,-2.0898,-2.081,-2.0423,-2.0772,-2.0453,-1.9472,-1.9865,-1.9751,-1.9193,-1.8849,-1.8991,-1.9541,0.0,-1.8968,-1.9488,-1.951,-1.9706,-2.0042,-2.0309,-2.0636,0.0,-2.0873,-2.0882,-2.1009,-2.1612,-2.1641,-2.1467,-2.1592,-2.189,-2.2208,-2.2208,-2.2208,-2.2208,-2.2208,-2.2208,-2.2208,-2.2208,-2.2254,-2.2347,-2.2555,-2.2638,-2.2721,-2.288,-2.2888,-2.2929,-2.308,-2.3195,-2.3224,-2.2988,-2.3293,-2.3525,-2.3297,-2.3053,-2.2888,-2.2888,-2.288,-2.2872,-2.2902,-2.2472,-2.2369,-2.2797,-2.106,-2.0175,-2.0815,-2.0012,-1.937,-1.9028,-1.9207,-1.8855,-1.7893,-1.7567,-1.7512,-1.7689,-1.7717,-1.7909,-1.829,-1.8383,-1.8518,-1.8706,-1.8771,-1.8866,-1.8987,-1.8987,-1.8987,-1.8987,-1.8987,-1.8987,-1.8987,-1.8987,-1.934,-1.9838,-1.965,-2.0096,-2.0841,-1.541,-1.5459,0.0,0.0,0.0,-1.8233,-1.8902,-1.9183,-1.9468,-1.9965,-2.0346,-2.0249,-1.9312,-1.9956,-2.0263,-1.9783,-1.9811,-2.0067,-2.0599,-2.0687,-2.0699,-2.0699,-2.0923,-2.0947,-2.0699,-2.1155,-2.1142,-2.061,-2.0847,-2.0575,-1.9818,-1.971,-1.9691,0.0,0.0,0.0,0.0,-1.9653,-1.9709,-1.985,-2.0359,-2.0724,-2.0972,-2.0997,-2.1115,-2.129,-2.1636,-2.1476,-2.1107,-2.1079,-2.1574,-2.2208,-2.2208,-2.2208,-2.2208,-2.2208,-2.2208,-2.2208,-2.2208,-2.2301,-2.2417,-2.2555,-2.2712,-2.2818,-2.288,-2.2888,-2.3002,-2.334,-2.3134,-2.2916,-2.3021,-2.3226,-2.3445,-2.365,-2.3273,-2.2944,-2.288,-2.2875,-2.2881,-2.2857,-2.2663,0.0,-2.2775,-2.1005,-2.0032,-2.0549,-2.0143,-1.9625,-1.9122,-1.9231,-1.9009,-1.8356,-1.7995,-1.7831,-1.7831,-1.8116,-1.8197,-1.8034,-1.8518,-1.8706,-1.8667,-1.8732,-1.8866,-1.8987,-1.8987,-1.8987,-1.8987,-1.8987,-1.8987,-1.8987,-1.904,-1.9225,-1.9486,-1.9759,-2.0321,-2.0951,-1.541,0.0,0.0,0.0,0.0,-1.8344,-1.9407,-2.0364,-2.1019,-2.1115,-2.0832,-2.0543,-2.0346,-1.9888,-1.9576,-1.9485,-1.9875,-2.0182,-2.0283,-2.0549,-2.0699,-2.0699,-2.1106,-2.1131,-2.0699,-2.1155,-2.1142,-2.061,-2.1083,-2.123,-2.1074,-2.1004,-2.1237,0.0,0.0,0.0,-1.9666,-1.951,0.0,-1.9798,-1.9914,-2.0271,-2.0774,-2.0947,-2.074,-2.0499,-2.1223,-2.1547,-2.1702,-2.1899,-2.2063,-2.2208,-2.2208,-2.2208,-2.2208,-2.2208,-2.2208,-2.2208,-2.2208,-2.2301,-2.2417,-2.2555,-2.2712,-2.2818,-2.288,-2.2888,-2.2909,-2.2925,-2.3177,-2.3235,-2.2774,-2.2726,-2.2944,-2.3459,-2.3459,-2.3225,-2.2732,-2.3059,-2.3202,-2.2718,-2.1712,-2.1347,-2.2081,-2.1176,-2.0826,-2.1492,-2.0715,-2.0045,-1.9664,-2.0085,-1.9789,-1.8595,-1.8479,-1.8452,-1.8452,-1.8247,-1.8344,-1.8801,-1.8572,-1.8625,-1.8946,-1.8839,-1.8866,-1.8987,-1.8987,-1.8987,-1.8987,-1.8987,-1.8987,-1.9013,-1.9237,-1.9486,-1.9759,-2.0016,-2.0462,-2.0919,-1.5703,0.0,0.0,0.0,-1.7608,-1.8777,-1.9802,-2.0776,-2.1308,-2.1031,-2.0754,-2.0382,-1.9829,-1.9797,-1.9768,-1.9615,-1.9978,-2.0283,-2.0448,-2.0599,-2.0699,-2.0699,-2.1155,-2.118,-2.0699,-2.1155,-2.1326,-2.1104,-2.1326,-2.1284,-2.1019,-2.0919,-2.1038,-2.1287,0.0,-2.0026,0.0,0.0,-1.9432,-1.9617,-1.9734,-2.0067,-2.0448,-2.0536,-2.0515,-2.0475,-2.0713,-2.0867,-2.1074,-2.1767,-2.2091,-2.2208,-2.2208,-2.2208,-2.2208,-2.2208,-2.2254,-2.2301,-2.2301,-2.2454,-2.2606,-2.2689,-2.2781,-2.2872,-2.2888,-2.2888,-2.288,-2.2818,-2.2919,-2.2988,-2.2885,-2.2923,-2.3046,-2.3345,-2.345,-2.3293,-2.2686,-2.2789,-2.2828,-2.2529,-2.1614,-2.1245,-2.1833,-2.0971,-2.0545,-2.0936,-2.0716,-2.0219,-1.9438,-2.0157,-2.0053,-1.8863,-1.8801,-1.8801,-1.8801,-1.864,-1.864,-1.8774,-1.8732,-1.8732,-1.8801,-1.8866,-1.8946,-1.8987,-1.8987,-1.8987,-1.8987,-1.8987,-1.8987,-1.9013,-1.9146,-1.9474,-1.9927,-2.0055,-2.0511,-2.1035,-1.6628,-1.6437,0.0,0.0,-1.8412,-1.9437,-2.0331,-2.1084,-2.138,-2.0851,-2.0586,-2.0105,-1.9251,-1.9729,-2.0023,-1.981,-2.0118,-2.0423,-2.0674,-2.0699,-2.0724,-2.0749,-2.118,-2.1229,-2.0848,-2.1204,-2.1403,-2.14,-2.1307,-2.1039,-2.0574,-2.0556,-2.0486,-2.0331,-2.0344,-1.9805,-1.8921,-1.9145,-1.9308,-1.942,-1.9682,-1.9965,-2.0207,-2.0334,-2.0536,-2.072,-2.0404,-2.0285,-2.0409,-2.1156,-2.1537,-2.1704,-2.1899,-2.1964,-2.2016,-2.2212,-2.237,-2.244,-2.244,-2.2606,-2.2809,-2.2809,-2.2849,-2.2888,-2.2888,-2.2888,-2.288,-2.2841,-2.2698,-2.2708,-2.3082,-2.3082,-2.3111,-2.3253,-2.3339,-2.3198,-2.2594,-2.253,-2.2446,-2.22,-2.1619,-2.1264,-2.1323,-2.0661,-2.0134,-1.9976,-2.0395,-2.0275,-1.9375,-2.0254,-2.0338,-1.936,-1.9336,-1.9336,-1.9324,-1.9095,-1.8881,-1.8694,-1.8907,-1.8881,-1.8694,-1.8907,-1.8987,-1.8987,-1.8987,-1.8987,-1.8987,-1.8987,-1.8987,-1.9013,-1.9093,-1.9462,-2.0016,-2.0093,-2.0585,-2.118,0.0,0.0,0.0,-1.9395,-1.9927,-2.0556,-2.12,-2.1752,-2.1933,-2.1404,-2.0478,-1.9844,-1.9748,-1.9781,-1.9835,-1.9811,-2.0334,-2.0687,-2.0699,-2.0699,-2.0774,-2.0972,-2.1253,-2.1375,-2.135,-2.1375,-2.1165,-2.0679,-2.0801,-2.064,-2.0251,-2.0614,-2.0428,-1.9786,-1.9825,-1.9497,-1.8921,-1.8996,-1.9176,-1.942,-1.9682,-1.9965,-2.0258,-2.0736,-2.0934,-2.0942,-2.0651,-2.0564,-2.0529,-2.0263,-2.0053,-2.0083,-2.0926,-2.1197,-2.1386,-2.2306,-2.2555,-2.2578,-2.2578,-2.2689,-2.2809,-2.2809,-2.2849,-2.2888,-2.2888,-2.2888,-2.2888,-2.2902,-2.2729,-2.2732,-2.3202,-2.2743,-2.2475,-2.3023,-2.3122,-2.2935,-2.2315,-2.271,-2.2615,-2.1527,-2.1182,-2.0718,-1.9895,-2.0269,-2.0187,-1.928,-1.9866,-2.0318,-2.0442,-2.1019,-2.1067,-2.0461,-2.0466,-2.0442,-2.0446,-1.9495,-1.8987,-1.896,-1.8987,-1.8987,-1.896,-1.8987,-1.8987,-1.8987,-1.8987,-1.8987,-1.8987,-1.8987,-1.8987,-1.904,-1.9408,-1.9721,-2.0042,-2.0409,-2.0809,-2.1204,-1.9192,-1.9107,-1.9227,-1.9886,-2.0293,-2.078,-2.1568,-2.144,-2.1169,-2.0952,-2.0538,-2.0033,-1.9399,-1.9597,-1.9798,-1.9798,-2.0359,-2.0699,-2.0699,-2.0699,-2.0724,-2.0823,-2.1033,-2.1155,-2.1155,-2.1155,-2.1018,-2.0712,-2.0761,-2.0505,-1.9903,-2.0174,-1.9953,-1.9294,-1.9647,-1.948,-1.8972,-1.8982,-1.9146,-1.942,-1.9512,-1.9823,-2.0194,-2.0072,-2.0151,-2.0191,-1.937,-1.9173,-1.9212,-1.8679,-1.91,-1.9974,-2.0552,-2.0731,-2.0901,-2.1745,-2.2042,-2.221,-2.2597,-2.2803,-2.2849,-2.2795,-2.2818,-2.2826,-2.2729,-2.2789,-2.2826,-2.2826,-2.2721,-2.2617,-2.2626,-2.2696,-2.269,-2.2587,-2.2859,-2.2887,-2.2292,-2.2419,-2.2133,-2.1006,-2.0488,-1.9909,-1.9078,-1.9499,-1.9684,-1.9421,-2.0487,-2.0884,-2.0269,-2.0663,-2.0983,-2.1091,-2.0141,-1.9937,-2.0591,-1.9543,-1.8987,-1.8987,-1.8987,-1.8987,-1.8987,-1.8987,-1.8987,-1.8987,-1.8987,-1.8987,-1.8987,-1.8987,-1.8987,-1.9013,-1.9263,-1.9668,-2.0144,-2.0397,-2.0847,-2.1326,-2.0361,-2.0064,-2.0011,-2.0684,-2.0908,-2.1162,-2.1663,-2.1236,-2.0723,-2.041,-2.0358,-2.0021,-1.9095,-1.9474,-1.9798,-1.9798,-2.0359,-2.0699,-2.0699,-2.0699,-2.0724,-2.0799,-2.0923,-2.1057,-2.1229,-2.1082,-2.0866,-2.0557,-2.0646,-2.0255,-1.9357,-1.9636,-1.95,-1.9025,-1.9396,-1.9344,-1.9025,-1.9066,-1.9237,-1.9408,-1.9403,-1.9636,-1.99,-1.9421,-1.9359,-1.9407,-1.8453,-1.8218,-1.8321,-1.7791,-1.8432,-1.9543,-2.0028,-2.0168,-2.038,-2.1405,-2.1794,-2.2004,-2.2653,-2.2789,-2.2766,-2.2795,-2.2704,-2.2598,-2.25,-2.256,-2.2598,-2.2529,-2.2454,-2.2347,-2.2067,-2.2464,-2.2666,-2.2147,-2.2502,-2.2676,-2.2264,-2.2208,-2.1806,-2.0735,-2.0311,-1.9716,-1.8812,-1.9019,-1.9295,-1.9496,-2.0682,-2.0984,-2.0049,-2.0523,-2.0947,-2.1163,-2.0057,-1.9832,-2.0591,-1.9543,-1.8987,-1.8987,-1.8987,-1.8987,-1.8987,-1.8987,-1.8987,-1.8987,-1.8987,-1.8987,-1.8987,-1.8987,-1.9025,-1.9078,-1.9368,-1.981,-2.0296,-2.0598,-2.0995,-2.1399,-2.2678,-2.2389,-2.2173,-2.2185,-2.2185,-2.2005,-2.1488,-2.1404,-2.1007,-1.9953,-1.982,-1.9615,-1.9047,-1.9474,-1.9798,-1.9798,-2.0359,-2.0699,-2.0699,-2.0699,-2.0799,-2.0997,-2.0997,-2.1253,-2.1769,-2.1277,-2.0627,-1.9902,-2.0305,-1.9829,-1.8522,-1.9005,-1.9143,-1.8987,-1.9013,-1.9013,-1.9025,-1.9289,-1.9394,-1.9397,-1.9408,-1.94,-1.936,-1.9017,-1.8911,-1.8845,-1.8296,-1.8218,-1.8342,-1.8004,-1.8037,-1.8367,-1.9159,-1.9409,-1.9744,-2.1484,-2.1989,-2.2135,-2.2728,-2.2661,-2.2477,-2.2727,-2.2491,-2.2208,-2.2208,-2.2208,-2.2137,-2.1864,-2.1926,-2.1926,-2.1664,-2.1949,-2.2114,-2.1841,-2.202,-2.2208,-2.2208,-2.2208,-2.1843,-2.0818,-2.0873,-2.0465,-1.9117,-1.8995,-1.9094,-1.9291,-2.0011,-2.0274,-1.9998,-2.0873,-2.1163,-2.0646,-2.0603,-2.0579,-2.0591,-1.9543,-1.8987,-1.8987,-1.8987,-1.8987,-1.8987,-1.8987,-1.8987,-1.8987,-1.8987,-1.8987,-1.8987,-1.8987,-1.9078,-1.9249,-1.9926,-2.0283,-2.0472,-2.1142,-2.1399,-2.1399,-2.2204,-2.2147,-2.2197,-2.2197,-2.2197,-2.2017,-2.1488,-2.1103,-2.061,-1.9904,-1.9495,-1.9179,-1.9011,-1.9474,-1.9798,-1.9798,-1.9986,-2.0074,-2.0074,-1.9695,-1.9507,-1.9577,-1.9801,-2.0078,-2.0443,-2.0721,-2.052,-1.9823,-2.0423,-2.0216,-1.9258,-1.9403,-1.9394,-1.9251,-1.8885,-1.874,-1.8716,-1.8561,-1.8584,-1.8718,-1.8864,-1.8975,-1.9004,-1.8526,-1.8438,-1.8491,-1.7895,-1.7947,-1.8262,-1.8152,-1.8242,-1.8428,-1.8601,-1.8796,-1.9182,-2.0194,-2.054,-2.0697,-2.1361,-2.1598,-2.1657,-2.1702,-2.1736,-2.1769,-2.1688,-2.1722,-2.1769,-2.1688,-2.1712,-2.1688,-2.1496,-2.1568,-2.164,-2.1544,-2.1746,-2.1926,-2.1926,-2.1926,-2.1572,-2.0609,-2.03,-1.9758,-1.8688,-1.9155,-1.9585,-1.9649,-2.1181,-2.1543,-2.0211,-2.0665,-2.1034,-2.1151,-2.0069,-1.9853,-2.0598,-1.9528,-1.8987,-1.8987,-1.8987,-1.8987,-1.8987,-1.8987,-1.8987,-1.8987,-1.8987,-1.8987,-1.8987,-1.8987,-1.9198,-1.9486,-1.9811,-2.0232,-2.0709,-2.0995,-2.1229,-2.1399,-2.2109,-2.2206,-2.2352,-2.2216,-2.2029,-2.1716,-2.1175,-2.0646,-2.0105,-1.9579,-1.9218,-1.8987,-1.8987,-1.9526,-1.985,-1.9798,-1.9794,-1.9799,-1.9799,-1.9237,-1.8911,-1.8911,-1.9197,-1.9598,-2.0098,-2.053,-2.0589,-2.0196,-2.0327,-2.0202,-1.9811,-1.9668,-1.9539,-1.937,-1.883,-1.8634,-1.8697,-1.8381,-1.8344,-1.8518,-1.8517,-1.8561,-1.8586,-1.8078,-1.7975,-1.8091,-1.7779,-1.7889,-1.8202,-1.8202,-1.8341,-1.8478,-1.8313,-1.8489,-1.8888,-1.949,-1.9741,-2.0005,-2.0651,-2.0841,-2.0918,-2.1251,-2.1246,-2.1186,-2.1248,-2.1253,-2.1253,-2.1253,-2.1326,-2.1326,-2.118,-2.1277,-2.1375,-2.1277,-2.1471,-2.1664,-2.1664,-2.1664,-2.137,-2.0574,-2.0257,-1.9798,-1.9002,-1.9283,-1.9597,-1.9786,-2.1222,-2.1571,-2.0375,-2.0831,-2.0969,-2.0583,-1.9543,-1.9312,-1.9997,-1.9324,-1.8987,-1.8987,-1.8987,-1.8987,-1.8987,-1.8987,-1.8987,-1.8987,-1.8987,-1.9025,-1.9078,-1.9078,-1.9277,-1.9604,-1.9811,-2.0207,-2.0759,-2.0934,-2.118,-2.1399,-2.238,-2.2506,-2.2586,-2.2247,-2.1765,-2.1211,-2.0687,-2.0145,-1.9615,-1.9059,-1.9025,-1.9025,-1.9013,-1.9618,-1.9952,-1.9824,-1.9794,-1.9799,-1.9775,-1.9237,-1.8911,-1.8898,-1.9175,-1.9714,-2.0506,-2.0676,-2.0809,-2.0942,-2.0136,-1.9904,-2.0182,-1.9785,-1.9539,-1.9396,-1.8855,-1.8709,-1.8845,-1.8592,-1.8524,-1.8581,-1.8293,-1.8178,-1.8125,-1.7688,-1.7625,-1.776,-1.7882,-1.8043,-1.8202,-1.8202,-1.8321,-1.842,-1.8222,-1.838,-1.8728,-1.9184,-1.9509,-1.9847,-2.0412,-2.0295,-2.0249,-2.1163,-2.0969,-2.0604,-2.0913,-2.0823,-2.0699,-2.0699,-2.0848,-2.0923,-2.0724,-2.1057,-2.1277,-2.1008,-2.1204,-2.1375,-2.1375,-2.1375,-2.1191,-2.0684,-2.0585,-2.0384,-1.9888,-1.9359,-1.9271,-1.9823,-2.0427,-2.07,-2.0578,-2.1317,-2.0986,-1.9305,-1.9127,-1.9062,-1.8987,-1.8987,-1.8987,-1.8987,-1.8987,-1.8987,-1.8987,-1.8987,-1.8987,-1.8987,-1.8987,-1.9078,-1.9208,-1.9208,-1.9368,-1.9642,-1.9926,-2.0283,-2.066,-2.0934,-2.118,-2.1399,-2.2397,-2.2506,-2.2586,-2.2247,-2.1765,-2.1223,-2.0682,-2.0129,-1.9615,-1.9059,-1.909,-1.9196,-1.9289,-1.972,-1.9978,-1.9952,-1.9856,-1.9751,-1.9653,-1.9178,-1.8943,-1.9057,-1.9467,-1.9736,-1.984,-2.0661,-2.1153,-2.1278,-2.0586,-2.0218,-2.0182,-1.9888,-1.9734,-1.9683,-1.9133,-1.8781,-1.8567,-1.8258,-1.7956,-1.7723,-1.7892,-1.7983,-1.797,-1.7842,-1.7955,-1.8161,-1.8129,-1.8163,-1.8202,-1.8202,-1.8123,-1.8003,-1.7754,-1.7868,-1.815,-1.8408,-1.8708,-1.8986,-1.9128,-1.9235,-1.9439,-2.0241,-2.0657,-2.0873,-2.0797,-2.0724,-2.0699,-2.0699,-2.0724,-2.0749,-2.0699,-2.0799,-2.0848,-2.0774,-2.0947,-2.1082,-2.1082,-2.1082,-2.1033,-2.0909,-2.0523,-2.0245,-2.0131,-1.98,-1.9849,-2.044,-2.1006,-2.1292,-2.1265,-2.1757,-2.1317,-1.987,-1.9767,-1.9519,-1.8987,-1.8987,-1.8987,-1.8987,-1.8987,-1.8987,-1.8987,-1.8987,-1.8987,-1.8987,-1.8987,-1.9078,-1.9208,-1.9208,-1.9485,-1.9939,-2.0195,-2.0548,-2.0934,-2.1204,-2.135,-2.1399,-2.2401,-2.2613,-2.2652,-2.1964,-2.1392,-2.0863,-2.0322,-1.9836,-1.9416,-1.9115,-1.9223,-1.9354,-1.9486,-1.981,-1.9939,-1.9823,-1.9758,-1.9727,-1.9786,-1.9294,-1.9116,-1.9364,-1.9712,-2.0004,-2.0224,-2.096,-2.1489,-2.1769,-2.0981,-2.0573,-2.0548,-1.9788,-1.9497,-1.9573,-1.8667,-1.8338,-1.8416,-1.7926,-1.7718,-1.7693,-1.7875,-1.8139,-1.8419,-1.8139,-1.8314,-1.8621,-1.8305,-1.8143,-1.8063,-1.8063,-1.7983,-1.7862,-1.7591,-1.7672,-1.7902,-1.7889,-1.8089,-1.8361,-1.8459,-1.8484,-1.8693,-1.9538,-2.0448,-2.1106,-2.0774,-2.0699,-2.0699,-2.0699,-2.0699,-2.0699,-2.0699,-2.0699,-2.0699,-2.0699,-2.0799,-2.0848,-2.0848,-2.0848,-2.0823,-2.0636,-2.0385,-2.0156,-2.0016,-1.9888,-1.9936,-2.025,-2.1029,-2.1493,-2.1493,-2.2172,-2.1952,-2.0625,-2.026,-1.9882,-1.9455,-1.916,-1.8987,-1.8987,-1.8987,-1.8987,-1.8987,-1.8987,-1.8987,-1.8987,-1.9052,-1.917,-1.9302,-1.9368,-1.9591,-1.9914,-2.0067,-2.0422,-2.0822,-2.0995,-2.1191,-2.1399,-2.2241,-2.2543,-2.2511,-2.1475,-2.0851,-2.0334,-1.9908,-1.9455,-1.9208,-1.9223,-1.9342,-1.9486,-1.9642,-1.9849,-1.9913,-1.972,-1.9685,-1.9809,-2.0061,-1.9621,-1.955,-1.9962,-2.0163,-2.0523,-2.1084,-2.1386,-2.1715,-2.2091,-2.1251,-2.0871,-2.0896,-1.9721,-1.9306,-1.9477,-1.8266,-1.8007,-1.8472,-1.7832,-1.7793,-1.8179,-1.8199,-1.8638,-1.9246,-1.8719,-1.8871,-1.9239,-1.8588,-1.822,-1.8024,-1.7889,-1.7821,-1.7747,-1.7529,-1.7611,-1.7747,-1.7529,-1.7611,-1.7862,-1.8083,-1.8146,-1.8342,-1.9115,-2.0345,-2.1229,-2.0799,-2.0699,-2.0699,-2.0699,-2.0699,-2.0699,-2.0699,-2.0699,-2.0738,-2.0817,-2.0739,-2.0738,-2.0805,-2.0751,-2.0599,-2.0283,-2.0207,-2.0105,-1.9862,-1.9798,-1.9798,-1.9798,-2.0778,-2.1393,-2.1509,-2.2431,-2.2535,-2.1612,-2.0872,-2.0373,-2.011,-1.9537,-1.9239,-1.9239,-1.9227,-1.9227,-1.9227,-1.9143,-1.9107,-1.9134,-1.918,-1.9275,-1.942,-1.9539,-1.9682,-1.9798,-1.9824,-2.0131,-2.0535,-2.0635,-2.0945,-2.135,-2.1619,-2.1681,-2.1521,-2.0829,-2.0273,-1.9932,-1.9955,-1.9521,-1.9249,-1.9342,-1.9486,-1.9668,-1.9913,-1.999,-2.0042,-2.0105,-2.0105,-2.023,-2.0492,-2.0524,-2.0788,-2.1281,-2.1446,-2.1525,-2.1503,-2.1669,-2.1687,-2.152,-2.1155,-2.0847,-2.0635,-2.0219,-2.0054,-2.0041,-1.9377,-1.9074,-1.9043,-1.8485,-1.8502,-1.8928,-1.9051,-1.9558,-2.0267,-2.0112,-2.0211,-2.0309,-1.9315,-1.8838,-1.8547,-1.7826,-1.7447,-1.7303,-1.7261,-1.7282,-1.7303,-1.7261,-1.7282,-1.7385,-1.7828,-1.8629,-1.9322,-1.9315,-2.018,-2.0997,-2.0749,-2.0699,-2.0699,-2.0699,-2.0699,-2.0699,-2.0699,-2.0699,-2.0844,-2.1302,-2.1001,-2.0857,-2.1315,-2.0988,-2.0637,-2.0486,-2.0296,-2.0131,-1.9978,-1.9862,-1.9798,-1.9798,-2.0453,-2.1018,-2.1496,-2.2096,-2.2543,-2.2815,-2.2143,-2.1445,-2.0665,-2.0451,-2.0358,-2.0358,-2.0334,-2.0334,-2.0346,-1.9877,-1.9688,-1.9664,-1.9337,-1.9275,-1.942,-1.9539,-1.9682,-1.9824,-2.0042,-2.0207,-2.0334,-2.0785,-2.0983,-2.1082,-2.1841,-2.1581,-2.1057,-2.0298,-1.9949,-1.9712,-1.9489,-1.9301,-1.9249,-1.9368,-1.9512,-1.9694,-1.9965,-1.9926,-1.9952,-2.0093,-2.0029,-2.0144,-2.0472,-2.0809,-2.1215,-2.1688,-2.1926,-2.1949,-2.1817,-2.1949,-2.1926,-2.1722,-2.1026,-2.0649,-2.0574,-1.9396,-1.8935,-1.9027,-1.8367,-1.8143,-1.8281,-1.8112,-1.8255,-1.8637,-1.8879,-1.9624,-2.0571,-2.0216,-2.0266,-2.0422,-1.9405,-1.863,-1.8014,-1.7519,-1.7282,-1.7199,-1.7199,-1.7199,-1.7199,-1.7199,-1.7282,-1.7385,-1.7488,-1.8325,-1.916,-1.9095,-1.9834,-2.0587,-2.0683,-2.0699,-2.0699,-2.0699,-2.0699,-2.0699,-2.0699,-2.0699,-2.0791,-2.1027,-2.0857,-2.0804,-2.104,-2.0857,-2.0662,-2.0511,-2.0423,-2.0271,-2.0016,-1.9926,-1.9888,-1.9811,-2.0614,-2.1245,-2.1509,-2.2297,-2.2844,-2.3095,-2.2374,-2.1637,-2.0901,-2.0696,-2.0581,-2.061,-2.0298,-2.031,-2.0557,-1.9744,-1.957,-1.9906,-1.948,-1.9368,-1.9512,-1.9656,-1.9734,-1.9798,-1.9939,-2.0169,-2.0472,-2.0871,-2.1191,-2.1447,-2.1587,-2.1157,-2.0487,-1.9782,-1.9655,-1.9549,-1.918,-1.9237,-1.9354,-1.9486,-1.9591,-1.9746,-1.9965,-1.9901,-1.9888,-2.0029,-2.0003,-2.0093,-2.041,-2.0934,-2.1399,-2.1722,-2.2044,-2.2137,-2.1996,-2.1997,-2.1867,-2.1633,-2.0679,-2.0209,-2.0149,-1.8675,-1.807,-1.8226,-1.751,-1.7366,-1.7716,-1.7747,-1.7997,-1.843,-1.8767,-1.9717,-2.0869,-2.0404,-2.0414,-2.057,-1.9613,-1.8679,-1.7806,-1.7404,-1.7282,-1.7261,-1.722,-1.7303,-1.7382,-1.7238,-1.7323,-1.7393,-1.724,-1.7906,-1.8685,-1.8858,-1.9519,-2.0208,-2.0606,-2.0699,-2.0699,-2.0699,-2.0699,-2.0699,-2.0699,-2.0699,-2.0751,-2.0857,-2.0791,-2.0751,-2.0857,-2.0791,-2.0662,-2.0511,-2.0486,-2.0385,-2.0093,-2.0042,-1.9978,-1.9862,-2.0907,-2.1536,-2.1493,-2.2506,-2.3108,-2.3108,-2.2452,-2.1854,-2.1395,-2.1117,-2.0923,-2.0762,-2.049,-2.047,-2.0615,-1.9799,-1.9664,-2.0016,-1.9627,-1.9486,-1.9617,-1.9811,-1.9875,-1.9901,-1.9952,-2.0232,-2.0635,-2.0908,-2.1299,-2.1722,-1.9922,-1.9739,-1.9478,-1.9295,-1.923,-1.9312,-1.9512,-1.9552,-1.9604,-1.9759,-1.9773,-1.9837,-1.999,-1.999,-2.0042,-2.0182,-2.0347,-2.0461,-2.0486,-2.1057,-2.1447,-2.1616,-2.1996,-2.2137,-2.1996,-2.1577,-2.1079,-2.0526,-1.9926,-1.9395,-1.8923,-1.8852,-1.879,-1.8734,-1.823,-1.8131,-1.8307,-1.801,-1.8337,-1.9052,-1.9415,-2.0336,-2.1533,-2.1476,-2.1504,-2.1396,-2.0455,-1.9627,-1.8831,-1.7826,-1.7475,-1.7455,-1.7261,-1.7578,-1.7917,-1.7356,-1.722,-1.722,-1.7199,-1.7686,-1.8275,-1.8767,-1.9355,-1.998,-2.0581,-2.0699,-2.0699,-2.0699,-2.0699,-2.0699,-2.0699,-2.0699,-2.0857,-2.1368,-2.1027,-2.087,-2.1368,-2.1014,-2.0662,-2.0511,-2.0486,-2.041,-2.0207,-2.0182,-2.0131,-1.999,-2.1042,-2.162,-2.1521,-2.2506,-2.3108,-2.3108,-2.2811,-2.2634,-2.2597,-2.2262,-2.1825,-2.1356,-2.1801,-2.1572,-2.0799,-2.0714,-2.0479,-2.0168,-1.9747,-1.9591,-1.9642,-2.0016,-2.0182,-2.0207,-2.0434,-2.056,-2.0635,-2.0909,-2.118,-2.1471,-1.9972,-1.9589,-1.9131,-1.9078,-1.9078,-1.9131,-1.9316,-1.9342,-1.942,-1.9656,-1.9759,-1.9862,-1.999,-2.0067,-2.0131,-2.0207,-2.0258,-2.0309,-2.0309,-2.0835,-2.1399,-2.1949,-2.2114,-2.2137,-2.1996,-2.1411,-2.0946,-2.0661,-1.9489,-1.8821,-1.8601,-1.8087,-1.7831,-1.7822,-1.7758,-1.7708,-1.7674,-1.7963,-1.8186,-1.8433,-1.9256,-1.9939,-2.0576,-2.1406,-2.1492,-2.109,-2.0528,-1.9845,-1.9066,-1.8092,-1.7632,-1.7542,-1.7843,-1.8013,-1.8114,-1.8218,-1.8022,-1.7761,-1.7761,-1.7931,-1.8231,-1.8767,-1.9355,-1.9956,-2.0543,-2.0699,-2.0699,-2.0699,-2.0699,-2.0699,-2.0699,-2.0699,-2.0777,-2.0975,-2.0818,-2.0777,-2.0975,-2.0818,-2.0687,-2.0637,-2.0612,-2.0562,-2.0398,-2.0258,-2.0131,-2.0016,-2.0974,-2.1413,-2.1018,-2.1707,-2.2121,-2.2121,-2.1878,-2.2066,-2.2678,-2.2134,-2.1687,-2.1404,-2.1022,-2.0814,-2.0775,-2.0217,-2.0082,-2.0291,-1.9826,-1.9734,-1.9978,-1.9965,-2.0144,-2.0447,-2.0372,-2.0548,-2.0871,-2.1155,-2.152,-2.1926,-2.0082,-1.9563,-1.9013,-1.9052,-1.9052,-1.9131,-1.9289,-1.9328,-1.942,-1.963,-1.9785,-1.9888,-1.9926,-2.0144,-2.0258,-2.0207,-2.0309,-2.0334,-2.0296,-2.0711,-2.1288,-2.2114,-2.2184,-2.2137,-2.1996,-2.1319,-2.0772,-2.0375,-1.9091,-1.8321,-1.8014,-1.7458,-1.722,-1.7274,-1.7365,-1.7352,-1.7344,-1.7868,-1.8023,-1.797,-1.8941,-1.9618,-2.0196,-2.114,-2.1348,-2.1083,-2.0855,-2.0161,-1.9217,-1.8529,-1.799,-1.7678,-1.8009,-1.8117,-1.8205,-1.8741,-1.8519,-1.81,-1.81,-1.81,-1.8231,-1.8767,-1.9211,-1.9721,-2.0529,-2.0699,-2.0699,-2.0699,-2.0699,-2.0699,-2.0699,-2.0699,-2.0699,-2.0699,-2.0699,-2.0699,-2.0699,-2.0699,-2.0699,-2.0699,-2.0699,-2.0662,-2.0562,-2.0448,-2.0361,-2.0347,-2.0964,-2.1251,-2.0968,-2.1307,-2.1493,-2.1493,-2.1369,-2.1588,-2.2209,-2.1704,-2.1289,-2.1003,-2.0548,-2.0336,-2.0404,-1.9937,-1.991,-2.0204,-1.9818,-1.9811,-2.0067,-1.9965,-2.0144,-2.0472,-2.046,-2.0686,-2.1033,-2.1399,-2.1793,-2.2208,-2.0027,-1.9548,-1.9052,-1.917,-1.9208,-1.9302,-1.9565,-1.9617,-1.9656,-1.9773,-1.9926,-1.9952,-1.9837,-2.022,-2.041,-2.0207,-2.0498,-2.0637,-2.0511,-2.0698,-2.1177,-2.1973,-2.2114,-2.2137,-2.1996,-2.1269,-2.0425,-1.9503,-1.8759,-1.7903,-1.7002,-1.7136,-1.7274,-1.7384,-1.7253,-1.7323,-1.7516,-1.7788,-1.7902,-1.7942,-1.8492,-1.9504,-2.0719,-2.0859,-2.1205,-2.1604,-2.1604,-2.0656,-1.9383,-1.9163,-1.8577,-1.7862,-1.7591,-1.7787,-1.8205,-1.8741,-1.8519,-1.81,-1.81,-1.81,-1.8218,-1.8767,-1.8911,-1.9211,-2.0437,-2.0699,-2.0699,-2.0699,-2.0699,-2.0699,-2.0699,-2.0699,-2.0699,-2.0699,-2.0699,-2.0699,-2.0699,-2.0699,-2.0699,-2.0699,-2.0699,-2.0699,-2.0699,-2.0699,-2.0821,-2.1092,-2.1078,-2.1213,-2.1483,-2.1481,-2.1509,-2.1509,-2.1509,-2.1384,-2.1203,-2.1075,-2.0732,-2.0204,-2.0744,-2.0508,-1.9629,-2.0149,-2.0179,-1.9798,-1.9798,-1.9798,-1.9824,-2.0093,-2.0207,-2.0258,-2.0785,-2.0997,-2.1057,-2.1616,-2.1973,-2.2254,-1.9298,-1.9148,-1.9052,-1.917,-1.9208,-1.9249,-1.942,-1.9473,-1.9539,-1.9773,-1.9824,-1.9914,-2.0067,-2.0207,-2.0271,-2.0207,-2.0283,-2.041,-2.0548,-2.0635,-2.0932,-2.1554,-2.1616,-2.1592,-2.1447,-2.034,-1.9633,-1.9369,-1.8138,-1.7411,-1.7136,-1.7178,-1.722,-1.7274,-1.7365,-1.7372,-1.7323,-1.7889,-1.8269,-1.8596,-1.9531,-2.0154,-2.0656,-2.1603,-2.181,-2.1582,-2.1544,-2.0954,-2.007,-1.9523,-1.8781,-1.8111,-1.8141,-1.8381,-1.8702,-1.8858,-1.8519,-1.81,-1.81,-1.7787,-1.7695,-1.8662,-1.9224,-1.9734,-2.0504,-2.0699,-2.0699,-2.0699,-2.0699,-2.0699,-2.0699,-2.0699,-2.0699,-2.0699,-2.0699,-2.0699,-2.0699,-2.0699,-2.0699,-2.0699,-2.0699,-2.0699,-2.0699,-2.0612,-2.0589,-2.0681,-2.0553,-2.0693,-2.1188,-2.0738,-2.0431,-2.0431,-2.0366,-2.0274,-2.0221,-2.0499,-2.0501,-2.0204,-2.0079,-1.9874,-1.9617,-1.9844,-1.991,-1.9798,-1.9798,-1.9914,-2.0067,-1.9965,-2.0245,-2.0761,-2.0723,-2.0945,-2.1302,-2.1471,-2.1793,-2.2208,-1.9263,-1.9158,-1.9025,-1.9117,-1.9117,-1.9196,-1.9368,-1.9394,-1.9486,-1.9759,-1.9837,-1.9914,-2.0016,-2.0131,-2.0182,-2.0131,-2.0105,-2.0207,-2.0422,-2.0498,-2.0673,-2.0995,-2.1068,-2.1059,-2.0951,-2.0054,-1.933,-1.883,-1.7922,-1.7357,-1.7115,-1.7115,-1.7199,-1.7323,-1.7352,-1.7352,-1.7352,-1.7868,-1.8228,-1.8528,-1.9586,-2.0189,-2.0606,-2.1648,-2.1835,-2.1567,-2.1514,-2.0868,-1.9999,-1.9536,-1.8801,-1.8091,-1.804,-1.8288,-1.8584,-1.8584,-1.8349,-1.81,-1.81,-1.7656,-1.7421,-1.8349,-1.8858,-1.9277,-1.9863,-2.0164,-2.0334,-2.0334,-2.0517,-2.0699,-2.0699,-2.0699,-2.0699,-2.0699,-2.0699,-2.0699,-2.0699,-2.0699,-2.0699,-2.0699,-2.0699,-2.0699,-2.0699,-2.0637,-2.0562,-2.0486,-2.054,-2.0604,-2.0732,-2.0335,-2.0042,-1.999,-1.9926,-1.9862,-1.9798,-2.0071,-2.0167,-2.0048,-1.9792,-1.9682,-1.9682,-1.9759,-1.9862,-1.9965,-1.9965,-2.0042,-2.0195,-2.0258,-2.051,-2.0847,-2.0896,-2.1118,-2.1423,-2.164,-2.1926,-2.2231,-1.964,-1.9351,-1.9013,-1.904,-1.904,-1.9146,-1.9394,-1.942,-1.9512,-1.9773,-1.9901,-1.9926,-1.9837,-2.0016,-2.0105,-1.999,-1.999,-2.0029,-2.0156,-2.0296,-2.0397,-2.0422,-2.0471,-2.049,-2.0483,-2.0087,-1.9311,-1.8092,-1.7922,-1.7571,-1.7023,-1.7002,-1.7157,-1.7434,-1.7261,-1.7282,-1.7475,-1.7767,-1.7929,-1.8065,-1.9023,-1.988,-2.0649,-2.1243,-2.147,-2.147,-2.147,-2.0585,-1.9376,-1.9313,-1.8679,-1.7862,-1.7591,-1.7734,-1.8022,-1.8022,-1.8022,-1.8022,-1.8022,-1.7617,-1.7329,-1.7878,-1.8022,-1.8166,-1.8767,-1.9329,-1.9721,-1.9721,-2.0164,-2.0568,-2.062,-2.0633,-2.0646,-2.0699,-2.0699,-2.0699,-2.0699,-2.0699,-2.0699,-2.0699,-2.0699,-2.0699,-2.0699,-2.0699,-2.0662,-2.0537,-2.0875,-2.0823,-2.0258,-2.0233,-2.0156,-2.0016,-2.0016,-1.9926,-1.9798,-1.9824,-1.9824,-1.9798,-1.9824,-1.9824,-1.9798,-1.985,-1.9991,-2.0207,-2.0233,-2.0233,-2.0283,-2.0746,-2.082,-2.0635,-2.1166,-2.135,-2.1423,-2.1973,-2.2184,-2.2278,-1.9289,-1.9255,-1.9223,-1.9434,-1.946,-1.9486,-1.9539,-1.9565,-1.9604,-1.9773,-1.9734,-1.9746,-1.9939,-1.9914,-1.9888,-1.9837,-1.9837,-1.9862,-1.9888,-2.0118,-2.0346,-2.0535,-1.997,-1.9647,-1.9592,-1.9295,-1.8793,-1.8109,-1.7596,-1.7274,-1.7157,-1.7002,-1.696,-1.7044,-1.7044,-1.7086,-1.7136,-1.7666,-1.8174,-1.865,-1.919,-2.0091,-2.1155,-2.1296,-2.1338,-2.1338,-2.1338,-2.0506,-1.9299,-1.8683,-1.8213,-1.7862,-1.7591,-1.7444,-1.7395,-1.7395,-1.7395,-1.7395,-1.7395,-1.7303,-1.7225,-1.7356,-1.7395,-1.7656,-1.8675,-1.9002,-1.9107,-1.9107,-1.9198,-1.942,-1.9904,-1.9995,-2.0164,-2.0633,-2.0699,-2.0699,-2.0699,-2.0699,-2.0699,-2.0699,-2.0699,-2.0699,-2.0699,-2.0699,-2.0687,-2.0662,-2.0741,-2.0742,-2.0599,-2.0486,-2.0347,-2.0156,-2.0042,-1.9926,-1.9798,-2.0105,-2.0105,-1.9798,-2.0016,-1.9991,-1.9798,-2.0232,-2.0334,-2.0207,-2.0422,-2.051,-2.051,-2.0635,-2.066,-2.0635,-2.0959,-2.1082,-2.1155,-2.1688,-2.202,-2.2278,-1.9078,-1.9105,-1.9158,-1.9303,-1.9303,-1.9356,-1.9486,-1.9447,-1.9486,-1.9773,-1.9682,-1.9694,-1.9875,-1.9837,-1.9798,-1.9798,-1.9798,-1.9798,-1.9798,-2.0156,-2.0447,-2.0585,-2.0311,-1.9895,-1.9328,-1.9165,-1.8621,-1.7669,-1.7292,-1.7094,-1.7094,-1.6897,-1.6846,-1.6897,-1.6939,-1.6939,-1.6981,-1.7399,-1.784,-1.8323,-1.8921,-1.9649,-2.0428,-2.0759,-2.0653,-2.0386,-2.0386,-1.9796,-1.8879,-1.8359,-1.8063,-1.7862,-1.7591,-1.7352,-1.7199,-1.7199,-1.7199,-1.7199,-1.7199,-1.7408,-1.763,-1.763,-1.7813,-1.8022,-1.8074,-1.831,-1.8519,-1.8519,-1.895,-1.9433,-1.9747,-2.0035,-2.0334,-2.066,-2.0699,-2.0699,-2.0699,-2.0699,-2.0699,-2.0699,-2.0699,-2.0699,-2.0699,-2.0799,-2.0799,-2.0699,-2.0799,-2.0848,-2.0848,-2.0774,-2.0674,-2.0498,-2.0422,-2.0321,-2.0182,-2.0384,-2.0459,-2.0371,-2.0459,-2.0384,-2.0182,-2.0485,-2.0585,-2.0586,-2.0723,-2.0797,-2.0797,-2.1068,-2.1104,-2.1019,-2.141,-2.1496,-2.1447,-2.1996,-2.2324,-2.2555,-1.9025,-1.9013,-1.9052,-1.9066,-1.9078,-1.9146,-1.9368,-1.9328,-1.9394,-1.9734,-1.9682,-1.9682,-1.9798,-1.9798,-1.9798,-1.9798,-1.9798,-1.9798,-1.9798,-2.0258,-2.0535,-2.0535,-2.0588,-2.0215,-1.9314,-1.9101,-1.8428,-1.7261,-1.7136,-1.7086,-1.7044,-1.6825,-1.6782,-1.6833,-1.6867,-1.6854,-1.6876,-1.7094,-1.7393,-1.776,-1.8453,-1.8997,-1.9466,-2.0014,-1.9873,-1.939,-1.939,-1.9017,-1.8459,-1.8242,-1.8043,-1.7862,-1.755,-1.7344,-1.7199,-1.7199,-1.7199,-1.7225,-1.7329,-1.7721,-1.8114,-1.8218,-1.8506,-1.8545,-1.7682,-1.78,-1.8127,-1.8218,-1.8924,-1.9577,-1.9773,-2.0216,-2.0594,-2.0686,-2.0699,-2.0699,-2.0699,-2.0699,-2.0699,-2.0699,-2.0699,-2.0699,-2.0699,-2.0873,-2.0923,-2.0724,-2.0898,-2.0997,-2.0947,-2.0947,-2.0909,-2.0795,-2.0795,-2.0746,-2.0684,-2.0734,-2.0883,-2.1066,-2.0993,-2.0858,-2.0635,-2.0709,-2.0822,-2.0997,-2.1033,-2.1057,-2.1106,-2.1544,-2.1568,-2.1375,-2.1864,-2.1926,-2.1793,-2.2394,-2.2729,-2.2888,-1.9143,-1.917,-1.9196,-1.9316,-1.9342,-1.9368,-1.9394,-1.9486,-1.9565,-1.9604,-1.9708,-1.9773,-1.9798,-1.9798,-1.9798,-1.9798,-1.9798,-1.9798,-1.9798,-2.0093,-2.0258,-2.0258,-1.9573,-1.9206,-1.9301,-1.8289,-1.7635,-1.7455,-1.7434,-1.7344,-1.7178,-1.696,-1.6769,-1.6565,-1.6675,-1.6718,-1.674,-1.7086,-1.7393,-1.772,-1.8003,-1.8643,-1.9404,-1.9508,-1.9494,-1.939,-1.939,-1.9017,-1.8439,-1.8063,-1.7922,-1.7821,-1.7385,-1.722,-1.7199,-1.7199,-1.7199,-1.7316,-1.7839,-1.8035,-1.8218,-1.8675,-1.8506,-1.8283,-1.8597,-1.8375,-1.8231,-1.8702,-1.8545,-1.8623,-1.963,-1.9865,-2.0074,-2.0633,-2.0699,-2.0699,-2.0699,-2.0699,-2.0699,-2.0699,-2.0699,-2.0699,-2.0699,-2.0873,-2.0923,-2.0724,-2.0898,-2.0923,-2.0749,-2.0724,-2.0761,-2.0795,-2.0795,-2.0845,-2.0944,-2.1275,-2.141,-2.1337,-2.1554,-2.1348,-2.0771,-2.1142,-2.118,-2.1021,-2.1253,-2.135,-2.135,-2.1423,-2.1302,-2.1082,-2.1399,-2.1496,-2.1544,-2.2324,-2.2729,-2.2888,-1.9078,-1.909,-1.9105,-1.9184,-1.9184,-1.921,-1.9275,-1.9354,-1.942,-1.9591,-1.9656,-1.9734,-1.9798,-1.9798,-1.9798,-1.9798,-1.9798,-1.9798,-1.9798,-2.0042,-2.0117,-1.9945,-1.9703,-1.9402,-1.9019,-1.8502,-1.805,-1.7713,-1.7468,-1.7303,-1.7199,-1.6842,-1.6607,-1.65,-1.6543,-1.6599,-1.6599,-1.6757,-1.6997,-1.7338,-1.7564,-1.8085,-1.8731,-1.8865,-1.897,-1.9055,-1.901,-1.8782,-1.8439,-1.8043,-1.7902,-1.7821,-1.7344,-1.7199,-1.7178,-1.7086,-1.7044,-1.7096,-1.7368,-1.7644,-1.7963,-1.8343,-1.8754,-1.9107,-1.9355,-1.9224,-1.9028,-1.8924,-1.8989,-1.9198,-1.9721,-2.0074,-2.0386,-2.0673,-2.0699,-2.0699,-2.0699,-2.0699,-2.0699,-2.0699,-2.0699,-2.0699,-2.0699,-2.0873,-2.0972,-2.0873,-2.1082,-2.1253,-2.1302,-2.1302,-2.1313,-2.1348,-2.1348,-2.1396,-2.1444,-2.1626,-2.1746,-2.1841,-2.1817,-2.1602,-2.1264,-2.1337,-2.135,-2.1229,-2.135,-2.1399,-2.1399,-2.1399,-2.1423,-2.1471,-2.1722,-2.202,-2.2278,-2.2509,-2.2729,-2.2888]}]]